<?xml version="1.0" encoding="UTF-8" standalone="no" ?><gpx xmlns="http://www.topografix.com/GPX/1/1" xmlns:gpxx="http://www.garmin.com/xmlschemas/GpxExtensions/v3" xmlns:wptx1="http://www.garmin.com/xmlschemas/WaypointExtension/v1" xmlns:gpxtpx="http://www.garmin.com/xmlschemas/TrackPointExtension/v1" creator="GuideVTT.com" version="1.1" xmlns:xsi="http://www.w3.org/2001/XMLSchema-instance" xsi:schemaLocation="http://www.topografix.com/GPX/1/1 http://www.topografix.com/GPX/1/1/gpx.xsd http://www.garmin.com/xmlschemas/GpxExtensions/v3 http://www8.garmin.com/xmlschemas/GpxExtensionsv3.xsd http://www.garmin.com/xmlschemas/WaypointExtension/v1 http://www8.garmin.com/xmlschemas/WaypointExtensionv1.xsd http://www.garmin.com/xmlschemas/TrackPointExtension/v1 http://www.garmin.com/xmlschemas/TrackPointExtensionv1.xsd">
<metadata><link href="http://www.garmin.com"><text>Garmin International</text></link><time>2013-06-22T15:13:50Z</time></metadata>
<trk><name>2024-05-20_092738.gpx</name><extensions><gpxx:TrackExtension><gpxx:DisplayColor>Cyan</gpxx:DisplayColor></gpxx:TrackExtension></extensions><trkseg>
<trkpt lat="48.496792" lon="2.634662"><ele></ele><time>2024-6-8T4:59:39Z</time></trkpt>
<trkpt lat="48.496792" lon="2.634662"><ele></ele><time>2024-6-8T4:59:42Z</time></trkpt>
<trkpt lat="48.4968" lon="2.634655"><ele></ele><time>2024-6-8T4:59:45Z</time></trkpt>
<trkpt lat="48.496805" lon="2.634638"><ele></ele><time>2024-6-8T4:59:48Z</time></trkpt>
<trkpt lat="48.496844" lon="2.634619"><ele></ele><time>2024-6-8T4:59:51Z</time></trkpt>
<trkpt lat="48.496844" lon="2.634619"><ele></ele><time>2024-6-8T4:59:54Z</time></trkpt>
<trkpt lat="48.496844" lon="2.634619"><ele></ele><time>2024-6-8T4:59:57Z</time></trkpt>
<trkpt lat="48.496814" lon="2.634642"><ele></ele><time>2024-6-8T5:0:0Z</time></trkpt>
<trkpt lat="48.496807" lon="2.634648"><ele></ele><time>2024-6-8T5:0:3Z</time></trkpt>
<trkpt lat="48.496796" lon="2.634694"><ele></ele><time>2024-6-8T5:0:6Z</time></trkpt>
<trkpt lat="48.496797" lon="2.634694"><ele></ele><time>2024-6-8T5:0:9Z</time></trkpt>
<trkpt lat="48.496797" lon="2.634694"><ele></ele><time>2024-6-8T5:0:12Z</time></trkpt>
<trkpt lat="48.496795" lon="2.634718"><ele></ele><time>2024-6-8T5:0:15Z</time></trkpt>
<trkpt lat="48.496795" lon="2.63472"><ele></ele><time>2024-6-8T5:0:18Z</time></trkpt>
<trkpt lat="48.496796" lon="2.634723"><ele></ele><time>2024-6-8T5:0:21Z</time></trkpt>
<trkpt lat="48.496711" lon="2.634746"><ele></ele><time>2024-6-8T5:0:24Z</time></trkpt>
<trkpt lat="48.496693" lon="2.63476"><ele></ele><time>2024-6-8T5:0:27Z</time></trkpt>
<trkpt lat="48.496682" lon="2.634785"><ele></ele><time>2024-6-8T5:0:30Z</time></trkpt>
<trkpt lat="48.496662" lon="2.634843"><ele></ele><time>2024-6-8T5:0:33Z</time></trkpt>
<trkpt lat="48.496646" lon="2.63485"><ele></ele><time>2024-6-8T5:0:36Z</time></trkpt>
<trkpt lat="48.49655" lon="2.634929"><ele></ele><time>2024-6-8T5:0:39Z</time></trkpt>
<trkpt lat="48.496465" lon="2.635002"><ele></ele><time>2024-6-8T5:0:42Z</time></trkpt>
<trkpt lat="48.496368" lon="2.635126"><ele></ele><time>2024-6-8T5:0:45Z</time></trkpt>
<trkpt lat="48.496272" lon="2.635226"><ele></ele><time>2024-6-8T5:0:48Z</time></trkpt>
<trkpt lat="48.496186" lon="2.635361"><ele></ele><time>2024-6-8T5:0:51Z</time></trkpt>
<trkpt lat="48.496112" lon="2.635465"><ele></ele><time>2024-6-8T5:0:54Z</time></trkpt>
<trkpt lat="48.496014" lon="2.635569"><ele></ele><time>2024-6-8T5:0:57Z</time></trkpt>
<trkpt lat="48.495937" lon="2.635663"><ele></ele><time>2024-6-8T5:1:0Z</time></trkpt>
<trkpt lat="48.49586" lon="2.635768"><ele></ele><time>2024-6-8T5:1:3Z</time></trkpt>
<trkpt lat="48.495779" lon="2.635866"><ele></ele><time>2024-6-8T5:1:6Z</time></trkpt>
<trkpt lat="48.495653" lon="2.636046"><ele></ele><time>2024-6-8T5:1:9Z</time></trkpt>
<trkpt lat="48.495575" lon="2.636153"><ele></ele><time>2024-6-8T5:1:12Z</time></trkpt>
<trkpt lat="48.49547" lon="2.63627"><ele></ele><time>2024-6-8T5:1:15Z</time></trkpt>
<trkpt lat="48.495362" lon="2.636392"><ele></ele><time>2024-6-8T5:1:18Z</time></trkpt>
<trkpt lat="48.495292" lon="2.636486"><ele></ele><time>2024-6-8T5:1:21Z</time></trkpt>
<trkpt lat="48.495196" lon="2.636595"><ele></ele><time>2024-6-8T5:1:24Z</time></trkpt>
<trkpt lat="48.495101" lon="2.636723"><ele></ele><time>2024-6-8T5:1:27Z</time></trkpt>
<trkpt lat="48.495014" lon="2.636826"><ele></ele><time>2024-6-8T5:1:30Z</time></trkpt>
<trkpt lat="48.494912" lon="2.636945"><ele></ele><time>2024-6-8T5:1:33Z</time></trkpt>
<trkpt lat="48.494816" lon="2.637051"><ele></ele><time>2024-6-8T5:1:36Z</time></trkpt>
<trkpt lat="48.494744" lon="2.637134"><ele></ele><time>2024-6-8T5:1:39Z</time></trkpt>
<trkpt lat="48.494672" lon="2.637221"><ele></ele><time>2024-6-8T5:1:42Z</time></trkpt>
<trkpt lat="48.494576" lon="2.637351"><ele></ele><time>2024-6-8T5:1:45Z</time></trkpt>
<trkpt lat="48.49449" lon="2.637475"><ele></ele><time>2024-6-8T5:1:48Z</time></trkpt>
<trkpt lat="48.494395" lon="2.6376"><ele></ele><time>2024-6-8T5:1:51Z</time></trkpt>
<trkpt lat="48.494304" lon="2.63772"><ele></ele><time>2024-6-8T5:1:54Z</time></trkpt>
<trkpt lat="48.494218" lon="2.637842"><ele></ele><time>2024-6-8T5:1:57Z</time></trkpt>
<trkpt lat="48.49412" lon="2.637966"><ele></ele><time>2024-6-8T5:2:0Z</time></trkpt>
<trkpt lat="48.494008" lon="2.638078"><ele></ele><time>2024-6-8T5:2:3Z</time></trkpt>
<trkpt lat="48.493926" lon="2.638187"><ele></ele><time>2024-6-8T5:2:6Z</time></trkpt>
<trkpt lat="48.493806" lon="2.638278"><ele></ele><time>2024-6-8T5:2:9Z</time></trkpt>
<trkpt lat="48.493712" lon="2.638415"><ele></ele><time>2024-6-8T5:2:12Z</time></trkpt>
<trkpt lat="48.493623" lon="2.638529"><ele></ele><time>2024-6-8T5:2:15Z</time></trkpt>
<trkpt lat="48.493542" lon="2.63865"><ele></ele><time>2024-6-8T5:2:18Z</time></trkpt>
<trkpt lat="48.493441" lon="2.638781"><ele></ele><time>2024-6-8T5:2:21Z</time></trkpt>
<trkpt lat="48.493358" lon="2.638897"><ele></ele><time>2024-6-8T5:2:24Z</time></trkpt>
<trkpt lat="48.493291" lon="2.638994"><ele></ele><time>2024-6-8T5:2:27Z</time></trkpt>
<trkpt lat="48.493195" lon="2.6391"><ele></ele><time>2024-6-8T5:2:30Z</time></trkpt>
<trkpt lat="48.493129" lon="2.639206"><ele></ele><time>2024-6-8T5:2:33Z</time></trkpt>
<trkpt lat="48.493077" lon="2.639319"><ele></ele><time>2024-6-8T5:2:36Z</time></trkpt>
<trkpt lat="48.493012" lon="2.639414"><ele></ele><time>2024-6-8T5:2:39Z</time></trkpt>
<trkpt lat="48.492919" lon="2.639492"><ele></ele><time>2024-6-8T5:2:42Z</time></trkpt>
<trkpt lat="48.492811" lon="2.639593"><ele></ele><time>2024-6-8T5:2:45Z</time></trkpt>
<trkpt lat="48.492743" lon="2.639685"><ele></ele><time>2024-6-8T5:2:48Z</time></trkpt>
<trkpt lat="48.49267" lon="2.639777"><ele></ele><time>2024-6-8T5:2:51Z</time></trkpt>
<trkpt lat="48.492571" lon="2.639894"><ele></ele><time>2024-6-8T5:2:54Z</time></trkpt>
<trkpt lat="48.492491" lon="2.639987"><ele></ele><time>2024-6-8T5:2:57Z</time></trkpt>
<trkpt lat="48.492363" lon="2.640087"><ele></ele><time>2024-6-8T5:3:0Z</time></trkpt>
<trkpt lat="48.492284" lon="2.640164"><ele></ele><time>2024-6-8T5:3:3Z</time></trkpt>
<trkpt lat="48.492213" lon="2.640255"><ele></ele><time>2024-6-8T5:3:6Z</time></trkpt>
<trkpt lat="48.492141" lon="2.640395"><ele></ele><time>2024-6-8T5:3:9Z</time></trkpt>
<trkpt lat="48.492052" lon="2.640517"><ele></ele><time>2024-6-8T5:3:12Z</time></trkpt>
<trkpt lat="48.491981" lon="2.640614"><ele></ele><time>2024-6-8T5:3:15Z</time></trkpt>
<trkpt lat="48.491886" lon="2.640738"><ele></ele><time>2024-6-8T5:3:18Z</time></trkpt>
<trkpt lat="48.491794" lon="2.640855"><ele></ele><time>2024-6-8T5:3:21Z</time></trkpt>
<trkpt lat="48.491705" lon="2.640967"><ele></ele><time>2024-6-8T5:3:24Z</time></trkpt>
<trkpt lat="48.491625" lon="2.641055"><ele></ele><time>2024-6-8T5:3:27Z</time></trkpt>
<trkpt lat="48.491544" lon="2.64115"><ele></ele><time>2024-6-8T5:3:30Z</time></trkpt>
<trkpt lat="48.491467" lon="2.641257"><ele></ele><time>2024-6-8T5:3:33Z</time></trkpt>
<trkpt lat="48.491386" lon="2.641369"><ele></ele><time>2024-6-8T5:3:36Z</time></trkpt>
<trkpt lat="48.491306" lon="2.641447"><ele></ele><time>2024-6-8T5:3:39Z</time></trkpt>
<trkpt lat="48.491211" lon="2.64154"><ele></ele><time>2024-6-8T5:3:42Z</time></trkpt>
<trkpt lat="48.491137" lon="2.641618"><ele></ele><time>2024-6-8T5:3:45Z</time></trkpt>
<trkpt lat="48.491033" lon="2.641726"><ele></ele><time>2024-6-8T5:3:48Z</time></trkpt>
<trkpt lat="48.490962" lon="2.641819"><ele></ele><time>2024-6-8T5:3:51Z</time></trkpt>
<trkpt lat="48.490894" lon="2.641908"><ele></ele><time>2024-6-8T5:3:54Z</time></trkpt>
<trkpt lat="48.490815" lon="2.642014"><ele></ele><time>2024-6-8T5:3:57Z</time></trkpt>
<trkpt lat="48.490752" lon="2.642116"><ele></ele><time>2024-6-8T5:4:0Z</time></trkpt>
<trkpt lat="48.490681" lon="2.642222"><ele></ele><time>2024-6-8T5:4:3Z</time></trkpt>
<trkpt lat="48.490598" lon="2.642316"><ele></ele><time>2024-6-8T5:4:6Z</time></trkpt>
<trkpt lat="48.490514" lon="2.642405"><ele></ele><time>2024-6-8T5:4:9Z</time></trkpt>
<trkpt lat="48.490427" lon="2.642515"><ele></ele><time>2024-6-8T5:4:12Z</time></trkpt>
<trkpt lat="48.490336" lon="2.642623"><ele></ele><time>2024-6-8T5:4:15Z</time></trkpt>
<trkpt lat="48.490257" lon="2.64271"><ele></ele><time>2024-6-8T5:4:18Z</time></trkpt>
<trkpt lat="48.490153" lon="2.642834"><ele></ele><time>2024-6-8T5:4:21Z</time></trkpt>
<trkpt lat="48.490079" lon="2.64292"><ele></ele><time>2024-6-8T5:4:24Z</time></trkpt>
<trkpt lat="48.489991" lon="2.643021"><ele></ele><time>2024-6-8T5:4:27Z</time></trkpt>
<trkpt lat="48.489909" lon="2.643126"><ele></ele><time>2024-6-8T5:4:30Z</time></trkpt>
<trkpt lat="48.489827" lon="2.643242"><ele></ele><time>2024-6-8T5:4:33Z</time></trkpt>
<trkpt lat="48.489732" lon="2.643386"><ele></ele><time>2024-6-8T5:4:36Z</time></trkpt>
<trkpt lat="48.489654" lon="2.643466"><ele></ele><time>2024-6-8T5:4:39Z</time></trkpt>
<trkpt lat="48.489583" lon="2.643559"><ele></ele><time>2024-6-8T5:4:42Z</time></trkpt>
<trkpt lat="48.489521" lon="2.643716"><ele></ele><time>2024-6-8T5:4:45Z</time></trkpt>
<trkpt lat="48.489473" lon="2.643833"><ele></ele><time>2024-6-8T5:4:48Z</time></trkpt>
<trkpt lat="48.48944" lon="2.644028"><ele></ele><time>2024-6-8T5:4:51Z</time></trkpt>
<trkpt lat="48.489407" lon="2.644194"><ele></ele><time>2024-6-8T5:4:54Z</time></trkpt>
<trkpt lat="48.489383" lon="2.644341"><ele></ele><time>2024-6-8T5:4:57Z</time></trkpt>
<trkpt lat="48.489362" lon="2.644498"><ele></ele><time>2024-6-8T5:5:0Z</time></trkpt>
<trkpt lat="48.489307" lon="2.644663"><ele></ele><time>2024-6-8T5:5:3Z</time></trkpt>
<trkpt lat="48.489275" lon="2.644806"><ele></ele><time>2024-6-8T5:5:6Z</time></trkpt>
<trkpt lat="48.489239" lon="2.644952"><ele></ele><time>2024-6-8T5:5:9Z</time></trkpt>
<trkpt lat="48.489205" lon="2.645095"><ele></ele><time>2024-6-8T5:5:12Z</time></trkpt>
<trkpt lat="48.489172" lon="2.645229"><ele></ele><time>2024-6-8T5:5:15Z</time></trkpt>
<trkpt lat="48.489128" lon="2.645381"><ele></ele><time>2024-6-8T5:5:18Z</time></trkpt>
<trkpt lat="48.489092" lon="2.645514"><ele></ele><time>2024-6-8T5:5:21Z</time></trkpt>
<trkpt lat="48.489051" lon="2.645662"><ele></ele><time>2024-6-8T5:5:24Z</time></trkpt>
<trkpt lat="48.489021" lon="2.645809"><ele></ele><time>2024-6-8T5:5:27Z</time></trkpt>
<trkpt lat="48.48898" lon="2.645943"><ele></ele><time>2024-6-8T5:5:30Z</time></trkpt>
<trkpt lat="48.488935" lon="2.646116"><ele></ele><time>2024-6-8T5:5:33Z</time></trkpt>
<trkpt lat="48.488912" lon="2.646313"><ele></ele><time>2024-6-8T5:5:36Z</time></trkpt>
<trkpt lat="48.488878" lon="2.64646"><ele></ele><time>2024-6-8T5:5:39Z</time></trkpt>
<trkpt lat="48.48882" lon="2.646596"><ele></ele><time>2024-6-8T5:5:42Z</time></trkpt>
<trkpt lat="48.488774" lon="2.646715"><ele></ele><time>2024-6-8T5:5:45Z</time></trkpt>
<trkpt lat="48.488723" lon="2.646846"><ele></ele><time>2024-6-8T5:5:48Z</time></trkpt>
<trkpt lat="48.48867" lon="2.646978"><ele></ele><time>2024-6-8T5:5:51Z</time></trkpt>
<trkpt lat="48.48859" lon="2.647128"><ele></ele><time>2024-6-8T5:5:54Z</time></trkpt>
<trkpt lat="48.488526" lon="2.647286"><ele></ele><time>2024-6-8T5:5:57Z</time></trkpt>
<trkpt lat="48.488457" lon="2.647413"><ele></ele><time>2024-6-8T5:6:0Z</time></trkpt>
<trkpt lat="48.488387" lon="2.647555"><ele></ele><time>2024-6-8T5:6:3Z</time></trkpt>
<trkpt lat="48.488321" lon="2.647678"><ele></ele><time>2024-6-8T5:6:6Z</time></trkpt>
<trkpt lat="48.488259" lon="2.647779"><ele></ele><time>2024-6-8T5:6:9Z</time></trkpt>
<trkpt lat="48.488186" lon="2.647878"><ele></ele><time>2024-6-8T5:6:12Z</time></trkpt>
<trkpt lat="48.488121" lon="2.648001"><ele></ele><time>2024-6-8T5:6:15Z</time></trkpt>
<trkpt lat="48.488034" lon="2.648158"><ele></ele><time>2024-6-8T5:6:18Z</time></trkpt>
<trkpt lat="48.487981" lon="2.648299"><ele></ele><time>2024-6-8T5:6:21Z</time></trkpt>
<trkpt lat="48.487911" lon="2.648474"><ele></ele><time>2024-6-8T5:6:24Z</time></trkpt>
<trkpt lat="48.48787" lon="2.648597"><ele></ele><time>2024-6-8T5:6:27Z</time></trkpt>
<trkpt lat="48.487794" lon="2.648748"><ele></ele><time>2024-6-8T5:6:30Z</time></trkpt>
<trkpt lat="48.487716" lon="2.648837"><ele></ele><time>2024-6-8T5:6:33Z</time></trkpt>
<trkpt lat="48.487655" lon="2.648957"><ele></ele><time>2024-6-8T5:6:36Z</time></trkpt>
<trkpt lat="48.487595" lon="2.649138"><ele></ele><time>2024-6-8T5:6:39Z</time></trkpt>
<trkpt lat="48.487534" lon="2.649268"><ele></ele><time>2024-6-8T5:6:42Z</time></trkpt>
<trkpt lat="48.487471" lon="2.64938"><ele></ele><time>2024-6-8T5:6:45Z</time></trkpt>
<trkpt lat="48.487411" lon="2.649508"><ele></ele><time>2024-6-8T5:6:48Z</time></trkpt>
<trkpt lat="48.487323" lon="2.649666"><ele></ele><time>2024-6-8T5:6:51Z</time></trkpt>
<trkpt lat="48.48727" lon="2.649786"><ele></ele><time>2024-6-8T5:6:54Z</time></trkpt>
<trkpt lat="48.4872" lon="2.649921"><ele></ele><time>2024-6-8T5:6:57Z</time></trkpt>
<trkpt lat="48.487141" lon="2.65005"><ele></ele><time>2024-6-8T5:7:0Z</time></trkpt>
<trkpt lat="48.487074" lon="2.650155"><ele></ele><time>2024-6-8T5:7:3Z</time></trkpt>
<trkpt lat="48.487025" lon="2.650282"><ele></ele><time>2024-6-8T5:7:6Z</time></trkpt>
<trkpt lat="48.486964" lon="2.650412"><ele></ele><time>2024-6-8T5:7:9Z</time></trkpt>
<trkpt lat="48.486911" lon="2.650528"><ele></ele><time>2024-6-8T5:7:12Z</time></trkpt>
<trkpt lat="48.486856" lon="2.650638"><ele></ele><time>2024-6-8T5:7:15Z</time></trkpt>
<trkpt lat="48.48679" lon="2.650749"><ele></ele><time>2024-6-8T5:7:18Z</time></trkpt>
<trkpt lat="48.486716" lon="2.650898"><ele></ele><time>2024-6-8T5:7:21Z</time></trkpt>
<trkpt lat="48.486652" lon="2.651055"><ele></ele><time>2024-6-8T5:7:24Z</time></trkpt>
<trkpt lat="48.486571" lon="2.65121"><ele></ele><time>2024-6-8T5:7:27Z</time></trkpt>
<trkpt lat="48.486515" lon="2.651317"><ele></ele><time>2024-6-8T5:7:30Z</time></trkpt>
<trkpt lat="48.486453" lon="2.651482"><ele></ele><time>2024-6-8T5:7:33Z</time></trkpt>
<trkpt lat="48.486389" lon="2.651611"><ele></ele><time>2024-6-8T5:7:36Z</time></trkpt>
<trkpt lat="48.486323" lon="2.65175"><ele></ele><time>2024-6-8T5:7:39Z</time></trkpt>
<trkpt lat="48.486246" lon="2.651895"><ele></ele><time>2024-6-8T5:7:42Z</time></trkpt>
<trkpt lat="48.486176" lon="2.652051"><ele></ele><time>2024-6-8T5:7:45Z</time></trkpt>
<trkpt lat="48.486117" lon="2.652167"><ele></ele><time>2024-6-8T5:7:48Z</time></trkpt>
<trkpt lat="48.486053" lon="2.65228"><ele></ele><time>2024-6-8T5:7:51Z</time></trkpt>
<trkpt lat="48.486" lon="2.652396"><ele></ele><time>2024-6-8T5:7:54Z</time></trkpt>
<trkpt lat="48.485919" lon="2.652564"><ele></ele><time>2024-6-8T5:7:57Z</time></trkpt>
<trkpt lat="48.485867" lon="2.652689"><ele></ele><time>2024-6-8T5:8:0Z</time></trkpt>
<trkpt lat="48.485811" lon="2.652835"><ele></ele><time>2024-6-8T5:8:3Z</time></trkpt>
<trkpt lat="48.485725" lon="2.652971"><ele></ele><time>2024-6-8T5:8:6Z</time></trkpt>
<trkpt lat="48.485645" lon="2.653071"><ele></ele><time>2024-6-8T5:8:9Z</time></trkpt>
<trkpt lat="48.485588" lon="2.653226"><ele></ele><time>2024-6-8T5:8:12Z</time></trkpt>
<trkpt lat="48.485515" lon="2.653356"><ele></ele><time>2024-6-8T5:8:15Z</time></trkpt>
<trkpt lat="48.485453" lon="2.653506"><ele></ele><time>2024-6-8T5:8:18Z</time></trkpt>
<trkpt lat="48.485427" lon="2.653693"><ele></ele><time>2024-6-8T5:8:21Z</time></trkpt>
<trkpt lat="48.485414" lon="2.653828"><ele></ele><time>2024-6-8T5:8:24Z</time></trkpt>
<trkpt lat="48.485377" lon="2.65397"><ele></ele><time>2024-6-8T5:8:27Z</time></trkpt>
<trkpt lat="48.485368" lon="2.654128"><ele></ele><time>2024-6-8T5:8:30Z</time></trkpt>
<trkpt lat="48.485342" lon="2.654334"><ele></ele><time>2024-6-8T5:8:33Z</time></trkpt>
<trkpt lat="48.485304" lon="2.654521"><ele></ele><time>2024-6-8T5:8:36Z</time></trkpt>
<trkpt lat="48.485266" lon="2.654706"><ele></ele><time>2024-6-8T5:8:39Z</time></trkpt>
<trkpt lat="48.485257" lon="2.654861"><ele></ele><time>2024-6-8T5:8:42Z</time></trkpt>
<trkpt lat="48.485248" lon="2.655014"><ele></ele><time>2024-6-8T5:8:45Z</time></trkpt>
<trkpt lat="48.485228" lon="2.655157"><ele></ele><time>2024-6-8T5:8:48Z</time></trkpt>
<trkpt lat="48.485205" lon="2.655305"><ele></ele><time>2024-6-8T5:8:51Z</time></trkpt>
<trkpt lat="48.485191" lon="2.655452"><ele></ele><time>2024-6-8T5:8:54Z</time></trkpt>
<trkpt lat="48.485172" lon="2.655642"><ele></ele><time>2024-6-8T5:8:57Z</time></trkpt>
<trkpt lat="48.485176" lon="2.655811"><ele></ele><time>2024-6-8T5:9:0Z</time></trkpt>
<trkpt lat="48.485137" lon="2.65597"><ele></ele><time>2024-6-8T5:9:3Z</time></trkpt>
<trkpt lat="48.485106" lon="2.656163"><ele></ele><time>2024-6-8T5:9:6Z</time></trkpt>
<trkpt lat="48.485095" lon="2.65634"><ele></ele><time>2024-6-8T5:9:9Z</time></trkpt>
<trkpt lat="48.485055" lon="2.656536"><ele></ele><time>2024-6-8T5:9:12Z</time></trkpt>
<trkpt lat="48.485017" lon="2.656687"><ele></ele><time>2024-6-8T5:9:15Z</time></trkpt>
<trkpt lat="48.484995" lon="2.656852"><ele></ele><time>2024-6-8T5:9:18Z</time></trkpt>
<trkpt lat="48.484979" lon="2.656992"><ele></ele><time>2024-6-8T5:9:21Z</time></trkpt>
<trkpt lat="48.484945" lon="2.657138"><ele></ele><time>2024-6-8T5:9:24Z</time></trkpt>
<trkpt lat="48.484926" lon="2.657341"><ele></ele><time>2024-6-8T5:9:27Z</time></trkpt>
<trkpt lat="48.484916" lon="2.657501"><ele></ele><time>2024-6-8T5:9:30Z</time></trkpt>
<trkpt lat="48.4849" lon="2.657639"><ele></ele><time>2024-6-8T5:9:33Z</time></trkpt>
<trkpt lat="48.484892" lon="2.657781"><ele></ele><time>2024-6-8T5:9:36Z</time></trkpt>
<trkpt lat="48.484848" lon="2.657992"><ele></ele><time>2024-6-8T5:9:39Z</time></trkpt>
<trkpt lat="48.484828" lon="2.658126"><ele></ele><time>2024-6-8T5:9:42Z</time></trkpt>
<trkpt lat="48.484806" lon="2.658307"><ele></ele><time>2024-6-8T5:9:45Z</time></trkpt>
<trkpt lat="48.484785" lon="2.658446"><ele></ele><time>2024-6-8T5:9:48Z</time></trkpt>
<trkpt lat="48.484768" lon="2.658583"><ele></ele><time>2024-6-8T5:9:51Z</time></trkpt>
<trkpt lat="48.484753" lon="2.658768"><ele></ele><time>2024-6-8T5:9:54Z</time></trkpt>
<trkpt lat="48.484738" lon="2.658955"><ele></ele><time>2024-6-8T5:9:57Z</time></trkpt>
<trkpt lat="48.484721" lon="2.659104"><ele></ele><time>2024-6-8T5:10:0Z</time></trkpt>
<trkpt lat="48.484708" lon="2.659246"><ele></ele><time>2024-6-8T5:10:3Z</time></trkpt>
<trkpt lat="48.484675" lon="2.659453"><ele></ele><time>2024-6-8T5:10:6Z</time></trkpt>
<trkpt lat="48.484642" lon="2.659606"><ele></ele><time>2024-6-8T5:10:9Z</time></trkpt>
<trkpt lat="48.484612" lon="2.659775"><ele></ele><time>2024-6-8T5:10:12Z</time></trkpt>
<trkpt lat="48.484572" lon="2.65993"><ele></ele><time>2024-6-8T5:10:15Z</time></trkpt>
<trkpt lat="48.484551" lon="2.660071"><ele></ele><time>2024-6-8T5:10:18Z</time></trkpt>
<trkpt lat="48.484518" lon="2.660202"><ele></ele><time>2024-6-8T5:10:21Z</time></trkpt>
<trkpt lat="48.484479" lon="2.660347"><ele></ele><time>2024-6-8T5:10:24Z</time></trkpt>
<trkpt lat="48.484418" lon="2.660563"><ele></ele><time>2024-6-8T5:10:27Z</time></trkpt>
<trkpt lat="48.484381" lon="2.660718"><ele></ele><time>2024-6-8T5:10:30Z</time></trkpt>
<trkpt lat="48.484348" lon="2.66087"><ele></ele><time>2024-6-8T5:10:33Z</time></trkpt>
<trkpt lat="48.484285" lon="2.661032"><ele></ele><time>2024-6-8T5:10:36Z</time></trkpt>
<trkpt lat="48.48424" lon="2.661192"><ele></ele><time>2024-6-8T5:10:39Z</time></trkpt>
<trkpt lat="48.484229" lon="2.661334"><ele></ele><time>2024-6-8T5:10:42Z</time></trkpt>
<trkpt lat="48.484198" lon="2.661478"><ele></ele><time>2024-6-8T5:10:45Z</time></trkpt>
<trkpt lat="48.484163" lon="2.661631"><ele></ele><time>2024-6-8T5:10:48Z</time></trkpt>
<trkpt lat="48.48412" lon="2.661765"><ele></ele><time>2024-6-8T5:10:51Z</time></trkpt>
<trkpt lat="48.484098" lon="2.661923"><ele></ele><time>2024-6-8T5:10:54Z</time></trkpt>
<trkpt lat="48.484082" lon="2.662058"><ele></ele><time>2024-6-8T5:10:57Z</time></trkpt>
<trkpt lat="48.484054" lon="2.662188"><ele></ele><time>2024-6-8T5:11:0Z</time></trkpt>
<trkpt lat="48.484013" lon="2.662331"><ele></ele><time>2024-6-8T5:11:3Z</time></trkpt>
<trkpt lat="48.483974" lon="2.662459"><ele></ele><time>2024-6-8T5:11:6Z</time></trkpt>
<trkpt lat="48.48394" lon="2.662593"><ele></ele><time>2024-6-8T5:11:9Z</time></trkpt>
<trkpt lat="48.483911" lon="2.662723"><ele></ele><time>2024-6-8T5:11:12Z</time></trkpt>
<trkpt lat="48.483887" lon="2.662867"><ele></ele><time>2024-6-8T5:11:15Z</time></trkpt>
<trkpt lat="48.483848" lon="2.663012"><ele></ele><time>2024-6-8T5:11:18Z</time></trkpt>
<trkpt lat="48.483839" lon="2.663182"><ele></ele><time>2024-6-8T5:11:21Z</time></trkpt>
<trkpt lat="48.483813" lon="2.663328"><ele></ele><time>2024-6-8T5:11:24Z</time></trkpt>
<trkpt lat="48.483771" lon="2.663485"><ele></ele><time>2024-6-8T5:11:27Z</time></trkpt>
<trkpt lat="48.483714" lon="2.663656"><ele></ele><time>2024-6-8T5:11:30Z</time></trkpt>
<trkpt lat="48.483667" lon="2.663833"><ele></ele><time>2024-6-8T5:11:33Z</time></trkpt>
<trkpt lat="48.483618" lon="2.663956"><ele></ele><time>2024-6-8T5:11:36Z</time></trkpt>
<trkpt lat="48.483574" lon="2.664087"><ele></ele><time>2024-6-8T5:11:39Z</time></trkpt>
<trkpt lat="48.48352" lon="2.664271"><ele></ele><time>2024-6-8T5:11:42Z</time></trkpt>
<trkpt lat="48.483483" lon="2.664395"><ele></ele><time>2024-6-8T5:11:45Z</time></trkpt>
<trkpt lat="48.483466" lon="2.664583"><ele></ele><time>2024-6-8T5:11:48Z</time></trkpt>
<trkpt lat="48.483436" lon="2.664715"><ele></ele><time>2024-6-8T5:11:51Z</time></trkpt>
<trkpt lat="48.483414" lon="2.66486"><ele></ele><time>2024-6-8T5:11:54Z</time></trkpt>
<trkpt lat="48.483378" lon="2.665006"><ele></ele><time>2024-6-8T5:11:57Z</time></trkpt>
<trkpt lat="48.48327" lon="2.66505"><ele></ele><time>2024-6-8T5:12:0Z</time></trkpt>
<trkpt lat="48.483173" lon="2.665057"><ele></ele><time>2024-6-8T5:12:3Z</time></trkpt>
<trkpt lat="48.483077" lon="2.665078"><ele></ele><time>2024-6-8T5:12:6Z</time></trkpt>
<trkpt lat="48.482962" lon="2.66506"><ele></ele><time>2024-6-8T5:12:9Z</time></trkpt>
<trkpt lat="48.482866" lon="2.665037"><ele></ele><time>2024-6-8T5:12:12Z</time></trkpt>
<trkpt lat="48.482801" lon="2.664909"><ele></ele><time>2024-6-8T5:12:15Z</time></trkpt>
<trkpt lat="48.482784" lon="2.664764"><ele></ele><time>2024-6-8T5:12:18Z</time></trkpt>
<trkpt lat="48.482751" lon="2.664633"><ele></ele><time>2024-6-8T5:12:21Z</time></trkpt>
<trkpt lat="48.48271" lon="2.664486"><ele></ele><time>2024-6-8T5:12:24Z</time></trkpt>
<trkpt lat="48.482664" lon="2.664295"><ele></ele><time>2024-6-8T5:12:27Z</time></trkpt>
<trkpt lat="48.48259" lon="2.664112"><ele></ele><time>2024-6-8T5:12:30Z</time></trkpt>
<trkpt lat="48.482556" lon="2.663957"><ele></ele><time>2024-6-8T5:12:33Z</time></trkpt>
<trkpt lat="48.482518" lon="2.663783"><ele></ele><time>2024-6-8T5:12:36Z</time></trkpt>
<trkpt lat="48.482469" lon="2.663606"><ele></ele><time>2024-6-8T5:12:39Z</time></trkpt>
<trkpt lat="48.482437" lon="2.663443"><ele></ele><time>2024-6-8T5:12:42Z</time></trkpt>
<trkpt lat="48.482398" lon="2.663268"><ele></ele><time>2024-6-8T5:12:45Z</time></trkpt>
<trkpt lat="48.482342" lon="2.663107"><ele></ele><time>2024-6-8T5:12:48Z</time></trkpt>
<trkpt lat="48.482288" lon="2.662927"><ele></ele><time>2024-6-8T5:12:51Z</time></trkpt>
<trkpt lat="48.482264" lon="2.662695"><ele></ele><time>2024-6-8T5:12:54Z</time></trkpt>
<trkpt lat="48.482194" lon="2.662511"><ele></ele><time>2024-6-8T5:12:57Z</time></trkpt>
<trkpt lat="48.482154" lon="2.662346"><ele></ele><time>2024-6-8T5:13:0Z</time></trkpt>
<trkpt lat="48.482132" lon="2.662184"><ele></ele><time>2024-6-8T5:13:3Z</time></trkpt>
<trkpt lat="48.482058" lon="2.662053"><ele></ele><time>2024-6-8T5:13:6Z</time></trkpt>
<trkpt lat="48.481971" lon="2.661893"><ele></ele><time>2024-6-8T5:13:9Z</time></trkpt>
<trkpt lat="48.481923" lon="2.661721"><ele></ele><time>2024-6-8T5:13:12Z</time></trkpt>
<trkpt lat="48.481877" lon="2.661552"><ele></ele><time>2024-6-8T5:13:15Z</time></trkpt>
<trkpt lat="48.481815" lon="2.661364"><ele></ele><time>2024-6-8T5:13:18Z</time></trkpt>
<trkpt lat="48.481752" lon="2.661156"><ele></ele><time>2024-6-8T5:13:21Z</time></trkpt>
<trkpt lat="48.481721" lon="2.660972"><ele></ele><time>2024-6-8T5:13:24Z</time></trkpt>
<trkpt lat="48.481658" lon="2.660796"><ele></ele><time>2024-6-8T5:13:27Z</time></trkpt>
<trkpt lat="48.481576" lon="2.660603"><ele></ele><time>2024-6-8T5:13:30Z</time></trkpt>
<trkpt lat="48.481538" lon="2.660432"><ele></ele><time>2024-6-8T5:13:33Z</time></trkpt>
<trkpt lat="48.481484" lon="2.660254"><ele></ele><time>2024-6-8T5:13:36Z</time></trkpt>
<trkpt lat="48.481417" lon="2.660089"><ele></ele><time>2024-6-8T5:13:39Z</time></trkpt>
<trkpt lat="48.481352" lon="2.659901"><ele></ele><time>2024-6-8T5:13:42Z</time></trkpt>
<trkpt lat="48.481287" lon="2.659749"><ele></ele><time>2024-6-8T5:13:45Z</time></trkpt>
<trkpt lat="48.481257" lon="2.659586"><ele></ele><time>2024-6-8T5:13:48Z</time></trkpt>
<trkpt lat="48.481204" lon="2.659416"><ele></ele><time>2024-6-8T5:13:51Z</time></trkpt>
<trkpt lat="48.481136" lon="2.65924"><ele></ele><time>2024-6-8T5:13:54Z</time></trkpt>
<trkpt lat="48.481086" lon="2.659083"><ele></ele><time>2024-6-8T5:13:57Z</time></trkpt>
<trkpt lat="48.481046" lon="2.658907"><ele></ele><time>2024-6-8T5:14:0Z</time></trkpt>
<trkpt lat="48.48099" lon="2.658782"><ele></ele><time>2024-6-8T5:14:3Z</time></trkpt>
<trkpt lat="48.480931" lon="2.65866"><ele></ele><time>2024-6-8T5:14:6Z</time></trkpt>
<trkpt lat="48.480892" lon="2.658512"><ele></ele><time>2024-6-8T5:14:9Z</time></trkpt>
<trkpt lat="48.480833" lon="2.658304"><ele></ele><time>2024-6-8T5:14:12Z</time></trkpt>
<trkpt lat="48.480793" lon="2.658158"><ele></ele><time>2024-6-8T5:14:15Z</time></trkpt>
<trkpt lat="48.480742" lon="2.658017"><ele></ele><time>2024-6-8T5:14:18Z</time></trkpt>
<trkpt lat="48.480677" lon="2.657853"><ele></ele><time>2024-6-8T5:14:21Z</time></trkpt>
<trkpt lat="48.480621" lon="2.657735"><ele></ele><time>2024-6-8T5:14:24Z</time></trkpt>
<trkpt lat="48.480595" lon="2.657598"><ele></ele><time>2024-6-8T5:14:27Z</time></trkpt>
<trkpt lat="48.480549" lon="2.657434"><ele></ele><time>2024-6-8T5:14:30Z</time></trkpt>
<trkpt lat="48.480495" lon="2.657323"><ele></ele><time>2024-6-8T5:14:33Z</time></trkpt>
<trkpt lat="48.480447" lon="2.657207"><ele></ele><time>2024-6-8T5:14:36Z</time></trkpt>
<trkpt lat="48.480399" lon="2.657039"><ele></ele><time>2024-6-8T5:14:39Z</time></trkpt>
<trkpt lat="48.480344" lon="2.656865"><ele></ele><time>2024-6-8T5:14:42Z</time></trkpt>
<trkpt lat="48.480295" lon="2.656722"><ele></ele><time>2024-6-8T5:14:45Z</time></trkpt>
<trkpt lat="48.480259" lon="2.656597"><ele></ele><time>2024-6-8T5:14:48Z</time></trkpt>
<trkpt lat="48.480208" lon="2.65644"><ele></ele><time>2024-6-8T5:14:51Z</time></trkpt>
<trkpt lat="48.480164" lon="2.656306"><ele></ele><time>2024-6-8T5:14:54Z</time></trkpt>
<trkpt lat="48.480107" lon="2.656129"><ele></ele><time>2024-6-8T5:14:57Z</time></trkpt>
<trkpt lat="48.48006" lon="2.655978"><ele></ele><time>2024-6-8T5:15:0Z</time></trkpt>
<trkpt lat="48.480023" lon="2.655853"><ele></ele><time>2024-6-8T5:15:3Z</time></trkpt>
<trkpt lat="48.479976" lon="2.655678"><ele></ele><time>2024-6-8T5:15:6Z</time></trkpt>
<trkpt lat="48.479932" lon="2.655552"><ele></ele><time>2024-6-8T5:15:9Z</time></trkpt>
<trkpt lat="48.479881" lon="2.655377"><ele></ele><time>2024-6-8T5:15:12Z</time></trkpt>
<trkpt lat="48.479818" lon="2.655213"><ele></ele><time>2024-6-8T5:15:15Z</time></trkpt>
<trkpt lat="48.479773" lon="2.655071"><ele></ele><time>2024-6-8T5:15:18Z</time></trkpt>
<trkpt lat="48.479737" lon="2.654944"><ele></ele><time>2024-6-8T5:15:21Z</time></trkpt>
<trkpt lat="48.479679" lon="2.654816"><ele></ele><time>2024-6-8T5:15:24Z</time></trkpt>
<trkpt lat="48.479627" lon="2.654663"><ele></ele><time>2024-6-8T5:15:27Z</time></trkpt>
<trkpt lat="48.479582" lon="2.654521"><ele></ele><time>2024-6-8T5:15:30Z</time></trkpt>
<trkpt lat="48.479535" lon="2.654366"><ele></ele><time>2024-6-8T5:15:33Z</time></trkpt>
<trkpt lat="48.479473" lon="2.65418"><ele></ele><time>2024-6-8T5:15:36Z</time></trkpt>
<trkpt lat="48.479423" lon="2.654054"><ele></ele><time>2024-6-8T5:15:39Z</time></trkpt>
<trkpt lat="48.479356" lon="2.653885"><ele></ele><time>2024-6-8T5:15:42Z</time></trkpt>
<trkpt lat="48.479317" lon="2.653749"><ele></ele><time>2024-6-8T5:15:45Z</time></trkpt>
<trkpt lat="48.479282" lon="2.653616"><ele></ele><time>2024-6-8T5:15:48Z</time></trkpt>
<trkpt lat="48.47924" lon="2.653468"><ele></ele><time>2024-6-8T5:15:51Z</time></trkpt>
<trkpt lat="48.479168" lon="2.653299"><ele></ele><time>2024-6-8T5:15:54Z</time></trkpt>
<trkpt lat="48.47912" lon="2.653171"><ele></ele><time>2024-6-8T5:15:57Z</time></trkpt>
<trkpt lat="48.479076" lon="2.652999"><ele></ele><time>2024-6-8T5:16:0Z</time></trkpt>
<trkpt lat="48.479042" lon="2.652847"><ele></ele><time>2024-6-8T5:16:3Z</time></trkpt>
<trkpt lat="48.479008" lon="2.652711"><ele></ele><time>2024-6-8T5:16:6Z</time></trkpt>
<trkpt lat="48.478937" lon="2.652582"><ele></ele><time>2024-6-8T5:16:9Z</time></trkpt>
<trkpt lat="48.478851" lon="2.652462"><ele></ele><time>2024-6-8T5:16:12Z</time></trkpt>
<trkpt lat="48.478739" lon="2.652394"><ele></ele><time>2024-6-8T5:16:15Z</time></trkpt>
<trkpt lat="48.478626" lon="2.652411"><ele></ele><time>2024-6-8T5:16:18Z</time></trkpt>
<trkpt lat="48.478547" lon="2.652506"><ele></ele><time>2024-6-8T5:16:21Z</time></trkpt>
<trkpt lat="48.47846" lon="2.652625"><ele></ele><time>2024-6-8T5:16:24Z</time></trkpt>
<trkpt lat="48.478346" lon="2.652729"><ele></ele><time>2024-6-8T5:16:27Z</time></trkpt>
<trkpt lat="48.47826" lon="2.652808"><ele></ele><time>2024-6-8T5:16:30Z</time></trkpt>
<trkpt lat="48.478153" lon="2.652894"><ele></ele><time>2024-6-8T5:16:33Z</time></trkpt>
<trkpt lat="48.478043" lon="2.652976"><ele></ele><time>2024-6-8T5:16:36Z</time></trkpt>
<trkpt lat="48.477949" lon="2.653044"><ele></ele><time>2024-6-8T5:16:39Z</time></trkpt>
<trkpt lat="48.477839" lon="2.65313"><ele></ele><time>2024-6-8T5:16:42Z</time></trkpt>
<trkpt lat="48.477725" lon="2.653228"><ele></ele><time>2024-6-8T5:16:45Z</time></trkpt>
<trkpt lat="48.477622" lon="2.653319"><ele></ele><time>2024-6-8T5:16:48Z</time></trkpt>
<trkpt lat="48.477538" lon="2.653389"><ele></ele><time>2024-6-8T5:16:51Z</time></trkpt>
<trkpt lat="48.47744" lon="2.653469"><ele></ele><time>2024-6-8T5:16:54Z</time></trkpt>
<trkpt lat="48.477355" lon="2.653575"><ele></ele><time>2024-6-8T5:16:57Z</time></trkpt>
<trkpt lat="48.47726" lon="2.653653"><ele></ele><time>2024-6-8T5:17:0Z</time></trkpt>
<trkpt lat="48.477145" lon="2.653741"><ele></ele><time>2024-6-8T5:17:3Z</time></trkpt>
<trkpt lat="48.477018" lon="2.653836"><ele></ele><time>2024-6-8T5:17:6Z</time></trkpt>
<trkpt lat="48.476924" lon="2.653909"><ele></ele><time>2024-6-8T5:17:9Z</time></trkpt>
<trkpt lat="48.47684" lon="2.653988"><ele></ele><time>2024-6-8T5:17:12Z</time></trkpt>
<trkpt lat="48.47676" lon="2.654082"><ele></ele><time>2024-6-8T5:17:15Z</time></trkpt>
<trkpt lat="48.476653" lon="2.654171"><ele></ele><time>2024-6-8T5:17:18Z</time></trkpt>
<trkpt lat="48.476565" lon="2.654236"><ele></ele><time>2024-6-8T5:17:21Z</time></trkpt>
<trkpt lat="48.476455" lon="2.65431"><ele></ele><time>2024-6-8T5:17:24Z</time></trkpt>
<trkpt lat="48.47637" lon="2.654379"><ele></ele><time>2024-6-8T5:17:27Z</time></trkpt>
<trkpt lat="48.476274" lon="2.654476"><ele></ele><time>2024-6-8T5:17:30Z</time></trkpt>
<trkpt lat="48.476172" lon="2.654554"><ele></ele><time>2024-6-8T5:17:33Z</time></trkpt>
<trkpt lat="48.476071" lon="2.654616"><ele></ele><time>2024-6-8T5:17:36Z</time></trkpt>
<trkpt lat="48.475963" lon="2.654706"><ele></ele><time>2024-6-8T5:17:39Z</time></trkpt>
<trkpt lat="48.475855" lon="2.654807"><ele></ele><time>2024-6-8T5:17:42Z</time></trkpt>
<trkpt lat="48.475772" lon="2.654884"><ele></ele><time>2024-6-8T5:17:45Z</time></trkpt>
<trkpt lat="48.475658" lon="2.654987"><ele></ele><time>2024-6-8T5:17:48Z</time></trkpt>
<trkpt lat="48.475571" lon="2.655057"><ele></ele><time>2024-6-8T5:17:51Z</time></trkpt>
<trkpt lat="48.475487" lon="2.655129"><ele></ele><time>2024-6-8T5:17:54Z</time></trkpt>
<trkpt lat="48.475407" lon="2.655204"><ele></ele><time>2024-6-8T5:17:57Z</time></trkpt>
<trkpt lat="48.475293" lon="2.655304"><ele></ele><time>2024-6-8T5:18:0Z</time></trkpt>
<trkpt lat="48.475209" lon="2.655402"><ele></ele><time>2024-6-8T5:18:3Z</time></trkpt>
<trkpt lat="48.475122" lon="2.655498"><ele></ele><time>2024-6-8T5:18:6Z</time></trkpt>
<trkpt lat="48.475042" lon="2.655572"><ele></ele><time>2024-6-8T5:18:9Z</time></trkpt>
<trkpt lat="48.474938" lon="2.655651"><ele></ele><time>2024-6-8T5:18:12Z</time></trkpt>
<trkpt lat="48.474825" lon="2.655771"><ele></ele><time>2024-6-8T5:18:15Z</time></trkpt>
<trkpt lat="48.474742" lon="2.655834"><ele></ele><time>2024-6-8T5:18:18Z</time></trkpt>
<trkpt lat="48.474672" lon="2.655927"><ele></ele><time>2024-6-8T5:18:21Z</time></trkpt>
<trkpt lat="48.474552" lon="2.656022"><ele></ele><time>2024-6-8T5:18:24Z</time></trkpt>
<trkpt lat="48.474438" lon="2.656132"><ele></ele><time>2024-6-8T5:18:27Z</time></trkpt>
<trkpt lat="48.474333" lon="2.656209"><ele></ele><time>2024-6-8T5:18:30Z</time></trkpt>
<trkpt lat="48.474228" lon="2.656269"><ele></ele><time>2024-6-8T5:18:33Z</time></trkpt>
<trkpt lat="48.474144" lon="2.65633"><ele></ele><time>2024-6-8T5:18:36Z</time></trkpt>
<trkpt lat="48.474061" lon="2.656409"><ele></ele><time>2024-6-8T5:18:39Z</time></trkpt>
<trkpt lat="48.473979" lon="2.656489"><ele></ele><time>2024-6-8T5:18:42Z</time></trkpt>
<trkpt lat="48.473861" lon="2.656585"><ele></ele><time>2024-6-8T5:18:45Z</time></trkpt>
<trkpt lat="48.47375" lon="2.656688"><ele></ele><time>2024-6-8T5:18:48Z</time></trkpt>
<trkpt lat="48.473665" lon="2.656758"><ele></ele><time>2024-6-8T5:18:51Z</time></trkpt>
<trkpt lat="48.473578" lon="2.656819"><ele></ele><time>2024-6-8T5:18:54Z</time></trkpt>
<trkpt lat="48.473464" lon="2.656868"><ele></ele><time>2024-6-8T5:18:57Z</time></trkpt>
<trkpt lat="48.473364" lon="2.656936"><ele></ele><time>2024-6-8T5:19:0Z</time></trkpt>
<trkpt lat="48.473277" lon="2.656986"><ele></ele><time>2024-6-8T5:19:3Z</time></trkpt>
<trkpt lat="48.473167" lon="2.657059"><ele></ele><time>2024-6-8T5:19:6Z</time></trkpt>
<trkpt lat="48.473087" lon="2.657139"><ele></ele><time>2024-6-8T5:19:9Z</time></trkpt>
<trkpt lat="48.472998" lon="2.657238"><ele></ele><time>2024-6-8T5:19:12Z</time></trkpt>
<trkpt lat="48.472916" lon="2.657332"><ele></ele><time>2024-6-8T5:19:15Z</time></trkpt>
<trkpt lat="48.472818" lon="2.65737"><ele></ele><time>2024-6-8T5:19:18Z</time></trkpt>
<trkpt lat="48.472732" lon="2.657453"><ele></ele><time>2024-6-8T5:19:21Z</time></trkpt>
<trkpt lat="48.472647" lon="2.657519"><ele></ele><time>2024-6-8T5:19:24Z</time></trkpt>
<trkpt lat="48.472559" lon="2.657591"><ele></ele><time>2024-6-8T5:19:27Z</time></trkpt>
<trkpt lat="48.472459" lon="2.657683"><ele></ele><time>2024-6-8T5:19:30Z</time></trkpt>
<trkpt lat="48.472365" lon="2.657752"><ele></ele><time>2024-6-8T5:19:33Z</time></trkpt>
<trkpt lat="48.472273" lon="2.657815"><ele></ele><time>2024-6-8T5:19:36Z</time></trkpt>
<trkpt lat="48.47218" lon="2.657936"><ele></ele><time>2024-6-8T5:19:39Z</time></trkpt>
<trkpt lat="48.472095" lon="2.658038"><ele></ele><time>2024-6-8T5:19:42Z</time></trkpt>
<trkpt lat="48.471989" lon="2.658126"><ele></ele><time>2024-6-8T5:19:45Z</time></trkpt>
<trkpt lat="48.471883" lon="2.658189"><ele></ele><time>2024-6-8T5:19:48Z</time></trkpt>
<trkpt lat="48.471789" lon="2.658272"><ele></ele><time>2024-6-8T5:19:51Z</time></trkpt>
<trkpt lat="48.471694" lon="2.658395"><ele></ele><time>2024-6-8T5:19:54Z</time></trkpt>
<trkpt lat="48.471572" lon="2.658479"><ele></ele><time>2024-6-8T5:19:57Z</time></trkpt>
<trkpt lat="48.471489" lon="2.658598"><ele></ele><time>2024-6-8T5:20:0Z</time></trkpt>
<trkpt lat="48.471382" lon="2.658696"><ele></ele><time>2024-6-8T5:20:3Z</time></trkpt>
<trkpt lat="48.471293" lon="2.658743"><ele></ele><time>2024-6-8T5:20:6Z</time></trkpt>
<trkpt lat="48.471174" lon="2.658802"><ele></ele><time>2024-6-8T5:20:9Z</time></trkpt>
<trkpt lat="48.471077" lon="2.658828"><ele></ele><time>2024-6-8T5:20:12Z</time></trkpt>
<trkpt lat="48.470975" lon="2.658842"><ele></ele><time>2024-6-8T5:20:15Z</time></trkpt>
<trkpt lat="48.470843" lon="2.65883"><ele></ele><time>2024-6-8T5:20:18Z</time></trkpt>
<trkpt lat="48.470735" lon="2.658799"><ele></ele><time>2024-6-8T5:20:21Z</time></trkpt>
<trkpt lat="48.47063" lon="2.658795"><ele></ele><time>2024-6-8T5:20:24Z</time></trkpt>
<trkpt lat="48.470521" lon="2.658778"><ele></ele><time>2024-6-8T5:20:27Z</time></trkpt>
<trkpt lat="48.470396" lon="2.65879"><ele></ele><time>2024-6-8T5:20:30Z</time></trkpt>
<trkpt lat="48.470286" lon="2.658813"><ele></ele><time>2024-6-8T5:20:33Z</time></trkpt>
<trkpt lat="48.470183" lon="2.658817"><ele></ele><time>2024-6-8T5:20:36Z</time></trkpt>
<trkpt lat="48.470077" lon="2.65878"><ele></ele><time>2024-6-8T5:20:39Z</time></trkpt>
<trkpt lat="48.469963" lon="2.658748"><ele></ele><time>2024-6-8T5:20:42Z</time></trkpt>
<trkpt lat="48.469865" lon="2.658746"><ele></ele><time>2024-6-8T5:20:45Z</time></trkpt>
<trkpt lat="48.469729" lon="2.658739"><ele></ele><time>2024-6-8T5:20:48Z</time></trkpt>
<trkpt lat="48.46962" lon="2.658706"><ele></ele><time>2024-6-8T5:20:51Z</time></trkpt>
<trkpt lat="48.469516" lon="2.658713"><ele></ele><time>2024-6-8T5:20:54Z</time></trkpt>
<trkpt lat="48.4694" lon="2.658709"><ele></ele><time>2024-6-8T5:20:57Z</time></trkpt>
<trkpt lat="48.469288" lon="2.658696"><ele></ele><time>2024-6-8T5:21:0Z</time></trkpt>
<trkpt lat="48.469151" lon="2.658679"><ele></ele><time>2024-6-8T5:21:3Z</time></trkpt>
<trkpt lat="48.469017" lon="2.658654"><ele></ele><time>2024-6-8T5:21:6Z</time></trkpt>
<trkpt lat="48.4689" lon="2.658636"><ele></ele><time>2024-6-8T5:21:9Z</time></trkpt>
<trkpt lat="48.468779" lon="2.658627"><ele></ele><time>2024-6-8T5:21:12Z</time></trkpt>
<trkpt lat="48.468648" lon="2.658625"><ele></ele><time>2024-6-8T5:21:15Z</time></trkpt>
<trkpt lat="48.46855" lon="2.658603"><ele></ele><time>2024-6-8T5:21:18Z</time></trkpt>
<trkpt lat="48.468455" lon="2.658599"><ele></ele><time>2024-6-8T5:21:21Z</time></trkpt>
<trkpt lat="48.468335" lon="2.658604"><ele></ele><time>2024-6-8T5:21:24Z</time></trkpt>
<trkpt lat="48.468232" lon="2.658585"><ele></ele><time>2024-6-8T5:21:27Z</time></trkpt>
<trkpt lat="48.468129" lon="2.658563"><ele></ele><time>2024-6-8T5:21:30Z</time></trkpt>
<trkpt lat="48.468022" lon="2.65856"><ele></ele><time>2024-6-8T5:21:33Z</time></trkpt>
<trkpt lat="48.467924" lon="2.658554"><ele></ele><time>2024-6-8T5:21:36Z</time></trkpt>
<trkpt lat="48.467787" lon="2.658532"><ele></ele><time>2024-6-8T5:21:39Z</time></trkpt>
<trkpt lat="48.467689" lon="2.658504"><ele></ele><time>2024-6-8T5:21:42Z</time></trkpt>
<trkpt lat="48.467594" lon="2.658467"><ele></ele><time>2024-6-8T5:21:45Z</time></trkpt>
<trkpt lat="48.467504" lon="2.658453"><ele></ele><time>2024-6-8T5:21:48Z</time></trkpt>
<trkpt lat="48.467394" lon="2.658445"><ele></ele><time>2024-6-8T5:21:51Z</time></trkpt>
<trkpt lat="48.46729" lon="2.658446"><ele></ele><time>2024-6-8T5:21:54Z</time></trkpt>
<trkpt lat="48.467169" lon="2.658434"><ele></ele><time>2024-6-8T5:21:57Z</time></trkpt>
<trkpt lat="48.467065" lon="2.65844"><ele></ele><time>2024-6-8T5:22:0Z</time></trkpt>
<trkpt lat="48.466943" lon="2.658428"><ele></ele><time>2024-6-8T5:22:3Z</time></trkpt>
<trkpt lat="48.466821" lon="2.658391"><ele></ele><time>2024-6-8T5:22:6Z</time></trkpt>
<trkpt lat="48.466701" lon="2.65834"><ele></ele><time>2024-6-8T5:22:9Z</time></trkpt>
<trkpt lat="48.466594" lon="2.658326"><ele></ele><time>2024-6-8T5:22:12Z</time></trkpt>
<trkpt lat="48.466489" lon="2.65835"><ele></ele><time>2024-6-8T5:22:15Z</time></trkpt>
<trkpt lat="48.466388" lon="2.65834"><ele></ele><time>2024-6-8T5:22:18Z</time></trkpt>
<trkpt lat="48.466294" lon="2.658315"><ele></ele><time>2024-6-8T5:22:21Z</time></trkpt>
<trkpt lat="48.466171" lon="2.658318"><ele></ele><time>2024-6-8T5:22:24Z</time></trkpt>
<trkpt lat="48.466045" lon="2.658348"><ele></ele><time>2024-6-8T5:22:27Z</time></trkpt>
<trkpt lat="48.465953" lon="2.658406"><ele></ele><time>2024-6-8T5:22:30Z</time></trkpt>
<trkpt lat="48.465838" lon="2.658466"><ele></ele><time>2024-6-8T5:22:33Z</time></trkpt>
<trkpt lat="48.465747" lon="2.658541"><ele></ele><time>2024-6-8T5:22:36Z</time></trkpt>
<trkpt lat="48.465656" lon="2.658505"><ele></ele><time>2024-6-8T5:22:39Z</time></trkpt>
<trkpt lat="48.465575" lon="2.65844"><ele></ele><time>2024-6-8T5:22:42Z</time></trkpt>
<trkpt lat="48.46545" lon="2.658386"><ele></ele><time>2024-6-8T5:22:45Z</time></trkpt>
<trkpt lat="48.465316" lon="2.658412"><ele></ele><time>2024-6-8T5:22:48Z</time></trkpt>
<trkpt lat="48.465184" lon="2.658455"><ele></ele><time>2024-6-8T5:22:51Z</time></trkpt>
<trkpt lat="48.465065" lon="2.658512"><ele></ele><time>2024-6-8T5:22:54Z</time></trkpt>
<trkpt lat="48.464943" lon="2.658541"><ele></ele><time>2024-6-8T5:22:57Z</time></trkpt>
<trkpt lat="48.464841" lon="2.65854"><ele></ele><time>2024-6-8T5:23:0Z</time></trkpt>
<trkpt lat="48.464753" lon="2.658506"><ele></ele><time>2024-6-8T5:23:3Z</time></trkpt>
<trkpt lat="48.464662" lon="2.658468"><ele></ele><time>2024-6-8T5:23:6Z</time></trkpt>
<trkpt lat="48.464549" lon="2.658528"><ele></ele><time>2024-6-8T5:23:9Z</time></trkpt>
<trkpt lat="48.46442" lon="2.658583"><ele></ele><time>2024-6-8T5:23:12Z</time></trkpt>
<trkpt lat="48.464321" lon="2.658663"><ele></ele><time>2024-6-8T5:23:15Z</time></trkpt>
<trkpt lat="48.464227" lon="2.658734"><ele></ele><time>2024-6-8T5:23:18Z</time></trkpt>
<trkpt lat="48.464135" lon="2.658814"><ele></ele><time>2024-6-8T5:23:21Z</time></trkpt>
<trkpt lat="48.464035" lon="2.65889"><ele></ele><time>2024-6-8T5:23:24Z</time></trkpt>
<trkpt lat="48.463941" lon="2.65899"><ele></ele><time>2024-6-8T5:23:27Z</time></trkpt>
<trkpt lat="48.463836" lon="2.659091"><ele></ele><time>2024-6-8T5:23:30Z</time></trkpt>
<trkpt lat="48.463722" lon="2.659165"><ele></ele><time>2024-6-8T5:23:33Z</time></trkpt>
<trkpt lat="48.463634" lon="2.659226"><ele></ele><time>2024-6-8T5:23:36Z</time></trkpt>
<trkpt lat="48.46352" lon="2.659304"><ele></ele><time>2024-6-8T5:23:39Z</time></trkpt>
<trkpt lat="48.463425" lon="2.659382"><ele></ele><time>2024-6-8T5:23:42Z</time></trkpt>
<trkpt lat="48.463334" lon="2.659464"><ele></ele><time>2024-6-8T5:23:45Z</time></trkpt>
<trkpt lat="48.463236" lon="2.659531"><ele></ele><time>2024-6-8T5:23:48Z</time></trkpt>
<trkpt lat="48.463144" lon="2.659588"><ele></ele><time>2024-6-8T5:23:51Z</time></trkpt>
<trkpt lat="48.463056" lon="2.659664"><ele></ele><time>2024-6-8T5:23:54Z</time></trkpt>
<trkpt lat="48.462965" lon="2.659749"><ele></ele><time>2024-6-8T5:23:57Z</time></trkpt>
<trkpt lat="48.462882" lon="2.659818"><ele></ele><time>2024-6-8T5:24:0Z</time></trkpt>
<trkpt lat="48.462795" lon="2.65988"><ele></ele><time>2024-6-8T5:24:3Z</time></trkpt>
<trkpt lat="48.462717" lon="2.659955"><ele></ele><time>2024-6-8T5:24:6Z</time></trkpt>
<trkpt lat="48.462633" lon="2.660004"><ele></ele><time>2024-6-8T5:24:9Z</time></trkpt>
<trkpt lat="48.462543" lon="2.660058"><ele></ele><time>2024-6-8T5:24:12Z</time></trkpt>
<trkpt lat="48.462448" lon="2.660137"><ele></ele><time>2024-6-8T5:24:15Z</time></trkpt>
<trkpt lat="48.46236" lon="2.660249"><ele></ele><time>2024-6-8T5:24:18Z</time></trkpt>
<trkpt lat="48.462263" lon="2.660319"><ele></ele><time>2024-6-8T5:24:21Z</time></trkpt>
<trkpt lat="48.462168" lon="2.660344"><ele></ele><time>2024-6-8T5:24:24Z</time></trkpt>
<trkpt lat="48.462066" lon="2.660361"><ele></ele><time>2024-6-8T5:24:27Z</time></trkpt>
<trkpt lat="48.461968" lon="2.660375"><ele></ele><time>2024-6-8T5:24:30Z</time></trkpt>
<trkpt lat="48.461868" lon="2.660424"><ele></ele><time>2024-6-8T5:24:33Z</time></trkpt>
<trkpt lat="48.461773" lon="2.660459"><ele></ele><time>2024-6-8T5:24:36Z</time></trkpt>
<trkpt lat="48.461684" lon="2.660483"><ele></ele><time>2024-6-8T5:24:39Z</time></trkpt>
<trkpt lat="48.461594" lon="2.660518"><ele></ele><time>2024-6-8T5:24:42Z</time></trkpt>
<trkpt lat="48.461497" lon="2.660505"><ele></ele><time>2024-6-8T5:24:45Z</time></trkpt>
<trkpt lat="48.461402" lon="2.660478"><ele></ele><time>2024-6-8T5:24:48Z</time></trkpt>
<trkpt lat="48.461315" lon="2.660413"><ele></ele><time>2024-6-8T5:24:51Z</time></trkpt>
<trkpt lat="48.461219" lon="2.660426"><ele></ele><time>2024-6-8T5:24:54Z</time></trkpt>
<trkpt lat="48.461122" lon="2.66044"><ele></ele><time>2024-6-8T5:24:57Z</time></trkpt>
<trkpt lat="48.461038" lon="2.660522"><ele></ele><time>2024-6-8T5:25:0Z</time></trkpt>
<trkpt lat="48.460934" lon="2.660527"><ele></ele><time>2024-6-8T5:25:3Z</time></trkpt>
<trkpt lat="48.460845" lon="2.660574"><ele></ele><time>2024-6-8T5:25:6Z</time></trkpt>
<trkpt lat="48.460764" lon="2.660671"><ele></ele><time>2024-6-8T5:25:9Z</time></trkpt>
<trkpt lat="48.46068" lon="2.660754"><ele></ele><time>2024-6-8T5:25:12Z</time></trkpt>
<trkpt lat="48.460589" lon="2.660875"><ele></ele><time>2024-6-8T5:25:15Z</time></trkpt>
<trkpt lat="48.460503" lon="2.66104"><ele></ele><time>2024-6-8T5:25:18Z</time></trkpt>
<trkpt lat="48.460426" lon="2.661149"><ele></ele><time>2024-6-8T5:25:21Z</time></trkpt>
<trkpt lat="48.460319" lon="2.661218"><ele></ele><time>2024-6-8T5:25:24Z</time></trkpt>
<trkpt lat="48.460196" lon="2.661268"><ele></ele><time>2024-6-8T5:25:27Z</time></trkpt>
<trkpt lat="48.46009" lon="2.661348"><ele></ele><time>2024-6-8T5:25:30Z</time></trkpt>
<trkpt lat="48.459997" lon="2.66142"><ele></ele><time>2024-6-8T5:25:33Z</time></trkpt>
<trkpt lat="48.459891" lon="2.661454"><ele></ele><time>2024-6-8T5:25:36Z</time></trkpt>
<trkpt lat="48.459769" lon="2.6614"><ele></ele><time>2024-6-8T5:25:39Z</time></trkpt>
<trkpt lat="48.459662" lon="2.661475"><ele></ele><time>2024-6-8T5:25:42Z</time></trkpt>
<trkpt lat="48.45965" lon="2.661635"><ele></ele><time>2024-6-8T5:25:45Z</time></trkpt>
<trkpt lat="48.459645" lon="2.661828"><ele></ele><time>2024-6-8T5:25:48Z</time></trkpt>
<trkpt lat="48.459635" lon="2.662018"><ele></ele><time>2024-6-8T5:25:51Z</time></trkpt>
<trkpt lat="48.459629" lon="2.662213"><ele></ele><time>2024-6-8T5:25:54Z</time></trkpt>
<trkpt lat="48.459645" lon="2.662415"><ele></ele><time>2024-6-8T5:25:57Z</time></trkpt>
<trkpt lat="48.459645" lon="2.662613"><ele></ele><time>2024-6-8T5:26:0Z</time></trkpt>
<trkpt lat="48.459607" lon="2.662779"><ele></ele><time>2024-6-8T5:26:3Z</time></trkpt>
<trkpt lat="48.459543" lon="2.662957"><ele></ele><time>2024-6-8T5:26:6Z</time></trkpt>
<trkpt lat="48.459487" lon="2.663118"><ele></ele><time>2024-6-8T5:26:9Z</time></trkpt>
<trkpt lat="48.459439" lon="2.663291"><ele></ele><time>2024-6-8T5:26:12Z</time></trkpt>
<trkpt lat="48.459395" lon="2.663454"><ele></ele><time>2024-6-8T5:26:15Z</time></trkpt>
<trkpt lat="48.459339" lon="2.663599"><ele></ele><time>2024-6-8T5:26:18Z</time></trkpt>
<trkpt lat="48.459271" lon="2.663768"><ele></ele><time>2024-6-8T5:26:21Z</time></trkpt>
<trkpt lat="48.459222" lon="2.66391"><ele></ele><time>2024-6-8T5:26:24Z</time></trkpt>
<trkpt lat="48.459181" lon="2.664038"><ele></ele><time>2024-6-8T5:26:27Z</time></trkpt>
<trkpt lat="48.459142" lon="2.664179"><ele></ele><time>2024-6-8T5:26:30Z</time></trkpt>
<trkpt lat="48.459098" lon="2.664328"><ele></ele><time>2024-6-8T5:26:33Z</time></trkpt>
<trkpt lat="48.459051" lon="2.664476"><ele></ele><time>2024-6-8T5:26:36Z</time></trkpt>
<trkpt lat="48.459011" lon="2.664599"><ele></ele><time>2024-6-8T5:26:39Z</time></trkpt>
<trkpt lat="48.458962" lon="2.664726"><ele></ele><time>2024-6-8T5:26:42Z</time></trkpt>
<trkpt lat="48.458913" lon="2.66487"><ele></ele><time>2024-6-8T5:26:45Z</time></trkpt>
<trkpt lat="48.458858" lon="2.665024"><ele></ele><time>2024-6-8T5:26:48Z</time></trkpt>
<trkpt lat="48.458813" lon="2.665142"><ele></ele><time>2024-6-8T5:26:51Z</time></trkpt>
<trkpt lat="48.458759" lon="2.6653"><ele></ele><time>2024-6-8T5:26:54Z</time></trkpt>
<trkpt lat="48.458713" lon="2.665457"><ele></ele><time>2024-6-8T5:26:57Z</time></trkpt>
<trkpt lat="48.458663" lon="2.665607"><ele></ele><time>2024-6-8T5:27:0Z</time></trkpt>
<trkpt lat="48.458614" lon="2.665747"><ele></ele><time>2024-6-8T5:27:3Z</time></trkpt>
<trkpt lat="48.458586" lon="2.665911"><ele></ele><time>2024-6-8T5:27:6Z</time></trkpt>
<trkpt lat="48.458536" lon="2.666037"><ele></ele><time>2024-6-8T5:27:9Z</time></trkpt>
<trkpt lat="48.458498" lon="2.66618"><ele></ele><time>2024-6-8T5:27:12Z</time></trkpt>
<trkpt lat="48.458457" lon="2.666353"><ele></ele><time>2024-6-8T5:27:15Z</time></trkpt>
<trkpt lat="48.458407" lon="2.666477"><ele></ele><time>2024-6-8T5:27:18Z</time></trkpt>
<trkpt lat="48.458378" lon="2.666606"><ele></ele><time>2024-6-8T5:27:21Z</time></trkpt>
<trkpt lat="48.458336" lon="2.666727"><ele></ele><time>2024-6-8T5:27:24Z</time></trkpt>
<trkpt lat="48.458291" lon="2.666848"><ele></ele><time>2024-6-8T5:27:27Z</time></trkpt>
<trkpt lat="48.458244" lon="2.667015"><ele></ele><time>2024-6-8T5:27:30Z</time></trkpt>
<trkpt lat="48.458188" lon="2.667158"><ele></ele><time>2024-6-8T5:27:33Z</time></trkpt>
<trkpt lat="48.458141" lon="2.667287"><ele></ele><time>2024-6-8T5:27:36Z</time></trkpt>
<trkpt lat="48.458091" lon="2.667426"><ele></ele><time>2024-6-8T5:27:39Z</time></trkpt>
<trkpt lat="48.458036" lon="2.667609"><ele></ele><time>2024-6-8T5:27:42Z</time></trkpt>
<trkpt lat="48.457958" lon="2.66779"><ele></ele><time>2024-6-8T5:27:45Z</time></trkpt>
<trkpt lat="48.457934" lon="2.667944"><ele></ele><time>2024-6-8T5:27:48Z</time></trkpt>
<trkpt lat="48.457857" lon="2.668105"><ele></ele><time>2024-6-8T5:27:51Z</time></trkpt>
<trkpt lat="48.4578" lon="2.668288"><ele></ele><time>2024-6-8T5:27:54Z</time></trkpt>
<trkpt lat="48.457752" lon="2.668446"><ele></ele><time>2024-6-8T5:27:57Z</time></trkpt>
<trkpt lat="48.457692" lon="2.668586"><ele></ele><time>2024-6-8T5:28:0Z</time></trkpt>
<trkpt lat="48.457647" lon="2.668709"><ele></ele><time>2024-6-8T5:28:3Z</time></trkpt>
<trkpt lat="48.457609" lon="2.668891"><ele></ele><time>2024-6-8T5:28:6Z</time></trkpt>
<trkpt lat="48.457565" lon="2.669022"><ele></ele><time>2024-6-8T5:28:9Z</time></trkpt>
<trkpt lat="48.457533" lon="2.669192"><ele></ele><time>2024-6-8T5:28:12Z</time></trkpt>
<trkpt lat="48.457488" lon="2.669324"><ele></ele><time>2024-6-8T5:28:15Z</time></trkpt>
<trkpt lat="48.457418" lon="2.669486"><ele></ele><time>2024-6-8T5:28:18Z</time></trkpt>
<trkpt lat="48.457359" lon="2.669661"><ele></ele><time>2024-6-8T5:28:21Z</time></trkpt>
<trkpt lat="48.457275" lon="2.669727"><ele></ele><time>2024-6-8T5:28:24Z</time></trkpt>
<trkpt lat="48.457161" lon="2.66973"><ele></ele><time>2024-6-8T5:28:27Z</time></trkpt>
<trkpt lat="48.457071" lon="2.669737"><ele></ele><time>2024-6-8T5:28:30Z</time></trkpt>
<trkpt lat="48.456982" lon="2.669672"><ele></ele><time>2024-6-8T5:28:33Z</time></trkpt>
<trkpt lat="48.456915" lon="2.66956"><ele></ele><time>2024-6-8T5:28:36Z</time></trkpt>
<trkpt lat="48.456846" lon="2.669448"><ele></ele><time>2024-6-8T5:28:39Z</time></trkpt>
<trkpt lat="48.45678" lon="2.669346"><ele></ele><time>2024-6-8T5:28:42Z</time></trkpt>
<trkpt lat="48.456718" lon="2.669205"><ele></ele><time>2024-6-8T5:28:45Z</time></trkpt>
<trkpt lat="48.456664" lon="2.669052"><ele></ele><time>2024-6-8T5:28:48Z</time></trkpt>
<trkpt lat="48.456635" lon="2.668919"><ele></ele><time>2024-6-8T5:28:51Z</time></trkpt>
<trkpt lat="48.45661" lon="2.668777"><ele></ele><time>2024-6-8T5:28:54Z</time></trkpt>
<trkpt lat="48.456579" lon="2.668633"><ele></ele><time>2024-6-8T5:28:57Z</time></trkpt>
<trkpt lat="48.456543" lon="2.668499"><ele></ele><time>2024-6-8T5:29:0Z</time></trkpt>
<trkpt lat="48.456481" lon="2.668356"><ele></ele><time>2024-6-8T5:29:3Z</time></trkpt>
<trkpt lat="48.456445" lon="2.668232"><ele></ele><time>2024-6-8T5:29:6Z</time></trkpt>
<trkpt lat="48.456391" lon="2.668086"><ele></ele><time>2024-6-8T5:29:9Z</time></trkpt>
<trkpt lat="48.456345" lon="2.667945"><ele></ele><time>2024-6-8T5:29:12Z</time></trkpt>
<trkpt lat="48.456291" lon="2.667826"><ele></ele><time>2024-6-8T5:29:15Z</time></trkpt>
<trkpt lat="48.45623" lon="2.667675"><ele></ele><time>2024-6-8T5:29:18Z</time></trkpt>
<trkpt lat="48.45616" lon="2.667577"><ele></ele><time>2024-6-8T5:29:21Z</time></trkpt>
<trkpt lat="48.456104" lon="2.667454"><ele></ele><time>2024-6-8T5:29:24Z</time></trkpt>
<trkpt lat="48.456047" lon="2.667316"><ele></ele><time>2024-6-8T5:29:27Z</time></trkpt>
<trkpt lat="48.455981" lon="2.667179"><ele></ele><time>2024-6-8T5:29:30Z</time></trkpt>
<trkpt lat="48.455909" lon="2.667054"><ele></ele><time>2024-6-8T5:29:33Z</time></trkpt>
<trkpt lat="48.455835" lon="2.66696"><ele></ele><time>2024-6-8T5:29:36Z</time></trkpt>
<trkpt lat="48.455752" lon="2.666845"><ele></ele><time>2024-6-8T5:29:39Z</time></trkpt>
<trkpt lat="48.455682" lon="2.66676"><ele></ele><time>2024-6-8T5:29:42Z</time></trkpt>
<trkpt lat="48.455604" lon="2.666684"><ele></ele><time>2024-6-8T5:29:45Z</time></trkpt>
<trkpt lat="48.455502" lon="2.666628"><ele></ele><time>2024-6-8T5:29:48Z</time></trkpt>
<trkpt lat="48.455414" lon="2.666588"><ele></ele><time>2024-6-8T5:29:51Z</time></trkpt>
<trkpt lat="48.455325" lon="2.666528"><ele></ele><time>2024-6-8T5:29:54Z</time></trkpt>
<trkpt lat="48.455234" lon="2.666473"><ele></ele><time>2024-6-8T5:29:57Z</time></trkpt>
<trkpt lat="48.45514" lon="2.666398"><ele></ele><time>2024-6-8T5:30:0Z</time></trkpt>
<trkpt lat="48.455056" lon="2.666315"><ele></ele><time>2024-6-8T5:30:3Z</time></trkpt>
<trkpt lat="48.455011" lon="2.666194"><ele></ele><time>2024-6-8T5:30:6Z</time></trkpt>
<trkpt lat="48.455009" lon="2.666039"><ele></ele><time>2024-6-8T5:30:9Z</time></trkpt>
<trkpt lat="48.454993" lon="2.665886"><ele></ele><time>2024-6-8T5:30:12Z</time></trkpt>
<trkpt lat="48.454981" lon="2.665723"><ele></ele><time>2024-6-8T5:30:15Z</time></trkpt>
<trkpt lat="48.454953" lon="2.665577"><ele></ele><time>2024-6-8T5:30:18Z</time></trkpt>
<trkpt lat="48.454911" lon="2.665449"><ele></ele><time>2024-6-8T5:30:21Z</time></trkpt>
<trkpt lat="48.454859" lon="2.665333"><ele></ele><time>2024-6-8T5:30:24Z</time></trkpt>
<trkpt lat="48.454807" lon="2.665193"><ele></ele><time>2024-6-8T5:30:27Z</time></trkpt>
<trkpt lat="48.454741" lon="2.665087"><ele></ele><time>2024-6-8T5:30:30Z</time></trkpt>
<trkpt lat="48.45467" lon="2.664974"><ele></ele><time>2024-6-8T5:30:33Z</time></trkpt>
<trkpt lat="48.454602" lon="2.664858"><ele></ele><time>2024-6-8T5:30:36Z</time></trkpt>
<trkpt lat="48.454549" lon="2.664733"><ele></ele><time>2024-6-8T5:30:39Z</time></trkpt>
<trkpt lat="48.454481" lon="2.664624"><ele></ele><time>2024-6-8T5:30:42Z</time></trkpt>
<trkpt lat="48.454439" lon="2.664488"><ele></ele><time>2024-6-8T5:30:45Z</time></trkpt>
<trkpt lat="48.454385" lon="2.66435"><ele></ele><time>2024-6-8T5:30:48Z</time></trkpt>
<trkpt lat="48.454339" lon="2.66423"><ele></ele><time>2024-6-8T5:30:51Z</time></trkpt>
<trkpt lat="48.45429" lon="2.664108"><ele></ele><time>2024-6-8T5:30:54Z</time></trkpt>
<trkpt lat="48.454236" lon="2.663997"><ele></ele><time>2024-6-8T5:30:57Z</time></trkpt>
<trkpt lat="48.454197" lon="2.663871"><ele></ele><time>2024-6-8T5:31:0Z</time></trkpt>
<trkpt lat="48.454142" lon="2.663753"><ele></ele><time>2024-6-8T5:31:3Z</time></trkpt>
<trkpt lat="48.45413" lon="2.663611"><ele></ele><time>2024-6-8T5:31:6Z</time></trkpt>
<trkpt lat="48.454097" lon="2.663473"><ele></ele><time>2024-6-8T5:31:9Z</time></trkpt>
<trkpt lat="48.454088" lon="2.663323"><ele></ele><time>2024-6-8T5:31:12Z</time></trkpt>
<trkpt lat="48.454064" lon="2.663192"><ele></ele><time>2024-6-8T5:31:15Z</time></trkpt>
<trkpt lat="48.454048" lon="2.663056"><ele></ele><time>2024-6-8T5:31:18Z</time></trkpt>
<trkpt lat="48.454004" lon="2.662916"><ele></ele><time>2024-6-8T5:31:21Z</time></trkpt>
<trkpt lat="48.453955" lon="2.662798"><ele></ele><time>2024-6-8T5:31:24Z</time></trkpt>
<trkpt lat="48.453912" lon="2.662666"><ele></ele><time>2024-6-8T5:31:27Z</time></trkpt>
<trkpt lat="48.453847" lon="2.662551"><ele></ele><time>2024-6-8T5:31:30Z</time></trkpt>
<trkpt lat="48.453775" lon="2.662447"><ele></ele><time>2024-6-8T5:31:33Z</time></trkpt>
<trkpt lat="48.453689" lon="2.662378"><ele></ele><time>2024-6-8T5:31:36Z</time></trkpt>
<trkpt lat="48.453604" lon="2.662302"><ele></ele><time>2024-6-8T5:31:39Z</time></trkpt>
<trkpt lat="48.453653" lon="2.662163"><ele></ele><time>2024-6-8T5:31:42Z</time></trkpt>
<trkpt lat="48.453725" lon="2.662053"><ele></ele><time>2024-6-8T5:31:45Z</time></trkpt>
<trkpt lat="48.453811" lon="2.662004"><ele></ele><time>2024-6-8T5:31:48Z</time></trkpt>
<trkpt lat="48.453886" lon="2.662088"><ele></ele><time>2024-6-8T5:31:51Z</time></trkpt>
<trkpt lat="48.453981" lon="2.662156"><ele></ele><time>2024-6-8T5:31:54Z</time></trkpt>
<trkpt lat="48.454057" lon="2.662262"><ele></ele><time>2024-6-8T5:31:57Z</time></trkpt>
<trkpt lat="48.454116" lon="2.662387"><ele></ele><time>2024-6-8T5:32:0Z</time></trkpt>
<trkpt lat="48.454126" lon="2.662547"><ele></ele><time>2024-6-8T5:32:3Z</time></trkpt>
<trkpt lat="48.454127" lon="2.662717"><ele></ele><time>2024-6-8T5:32:6Z</time></trkpt>
<trkpt lat="48.454183" lon="2.662876"><ele></ele><time>2024-6-8T5:32:9Z</time></trkpt>
<trkpt lat="48.454248" lon="2.663022"><ele></ele><time>2024-6-8T5:32:12Z</time></trkpt>
<trkpt lat="48.454324" lon="2.66317"><ele></ele><time>2024-6-8T5:32:15Z</time></trkpt>
<trkpt lat="48.454403" lon="2.663316"><ele></ele><time>2024-6-8T5:32:18Z</time></trkpt>
<trkpt lat="48.454485" lon="2.663442"><ele></ele><time>2024-6-8T5:32:21Z</time></trkpt>
<trkpt lat="48.45456" lon="2.663585"><ele></ele><time>2024-6-8T5:32:24Z</time></trkpt>
<trkpt lat="48.454635" lon="2.66374"><ele></ele><time>2024-6-8T5:32:27Z</time></trkpt>
<trkpt lat="48.454694" lon="2.663857"><ele></ele><time>2024-6-8T5:32:30Z</time></trkpt>
<trkpt lat="48.454775" lon="2.664005"><ele></ele><time>2024-6-8T5:32:33Z</time></trkpt>
<trkpt lat="48.45482" lon="2.664129"><ele></ele><time>2024-6-8T5:32:36Z</time></trkpt>
<trkpt lat="48.454887" lon="2.664289"><ele></ele><time>2024-6-8T5:32:39Z</time></trkpt>
<trkpt lat="48.45493" lon="2.664415"><ele></ele><time>2024-6-8T5:32:42Z</time></trkpt>
<trkpt lat="48.454992" lon="2.664546"><ele></ele><time>2024-6-8T5:32:45Z</time></trkpt>
<trkpt lat="48.455056" lon="2.664677"><ele></ele><time>2024-6-8T5:32:48Z</time></trkpt>
<trkpt lat="48.455108" lon="2.664817"><ele></ele><time>2024-6-8T5:32:51Z</time></trkpt>
<trkpt lat="48.455168" lon="2.66495"><ele></ele><time>2024-6-8T5:32:54Z</time></trkpt>
<trkpt lat="48.455241" lon="2.665071"><ele></ele><time>2024-6-8T5:32:57Z</time></trkpt>
<trkpt lat="48.455315" lon="2.665214"><ele></ele><time>2024-6-8T5:33:0Z</time></trkpt>
<trkpt lat="48.455398" lon="2.665354"><ele></ele><time>2024-6-8T5:33:3Z</time></trkpt>
<trkpt lat="48.455482" lon="2.665478"><ele></ele><time>2024-6-8T5:33:6Z</time></trkpt>
<trkpt lat="48.455573" lon="2.665593"><ele></ele><time>2024-6-8T5:33:9Z</time></trkpt>
<trkpt lat="48.45567" lon="2.665693"><ele></ele><time>2024-6-8T5:33:12Z</time></trkpt>
<trkpt lat="48.455759" lon="2.665762"><ele></ele><time>2024-6-8T5:33:15Z</time></trkpt>
<trkpt lat="48.455856" lon="2.665839"><ele></ele><time>2024-6-8T5:33:18Z</time></trkpt>
<trkpt lat="48.455939" lon="2.66591"><ele></ele><time>2024-6-8T5:33:21Z</time></trkpt>
<trkpt lat="48.456016" lon="2.665989"><ele></ele><time>2024-6-8T5:33:24Z</time></trkpt>
<trkpt lat="48.456139" lon="2.666081"><ele></ele><time>2024-6-8T5:33:27Z</time></trkpt>
<trkpt lat="48.456238" lon="2.666192"><ele></ele><time>2024-6-8T5:33:30Z</time></trkpt>
<trkpt lat="48.456345" lon="2.666344"><ele></ele><time>2024-6-8T5:33:33Z</time></trkpt>
<trkpt lat="48.456422" lon="2.666453"><ele></ele><time>2024-6-8T5:33:36Z</time></trkpt>
<trkpt lat="48.456477" lon="2.666572"><ele></ele><time>2024-6-8T5:33:39Z</time></trkpt>
<trkpt lat="48.45655" lon="2.666665"><ele></ele><time>2024-6-8T5:33:42Z</time></trkpt>
<trkpt lat="48.456635" lon="2.66678"><ele></ele><time>2024-6-8T5:33:45Z</time></trkpt>
<trkpt lat="48.456705" lon="2.6669"><ele></ele><time>2024-6-8T5:33:48Z</time></trkpt>
<trkpt lat="48.456759" lon="2.667018"><ele></ele><time>2024-6-8T5:33:51Z</time></trkpt>
<trkpt lat="48.456842" lon="2.66714"><ele></ele><time>2024-6-8T5:33:54Z</time></trkpt>
<trkpt lat="48.456928" lon="2.667235"><ele></ele><time>2024-6-8T5:33:57Z</time></trkpt>
<trkpt lat="48.457032" lon="2.66729"><ele></ele><time>2024-6-8T5:34:0Z</time></trkpt>
<trkpt lat="48.457136" lon="2.667261"><ele></ele><time>2024-6-8T5:34:3Z</time></trkpt>
<trkpt lat="48.457207" lon="2.667127"><ele></ele><time>2024-6-8T5:34:6Z</time></trkpt>
<trkpt lat="48.457253" lon="2.666977"><ele></ele><time>2024-6-8T5:34:9Z</time></trkpt>
<trkpt lat="48.457294" lon="2.666832"><ele></ele><time>2024-6-8T5:34:12Z</time></trkpt>
<trkpt lat="48.457328" lon="2.66669"><ele></ele><time>2024-6-8T5:34:15Z</time></trkpt>
<trkpt lat="48.457357" lon="2.666529"><ele></ele><time>2024-6-8T5:34:18Z</time></trkpt>
<trkpt lat="48.457371" lon="2.666371"><ele></ele><time>2024-6-8T5:34:21Z</time></trkpt>
<trkpt lat="48.45738" lon="2.666232"><ele></ele><time>2024-6-8T5:34:24Z</time></trkpt>
<trkpt lat="48.457384" lon="2.666058"><ele></ele><time>2024-6-8T5:34:27Z</time></trkpt>
<trkpt lat="48.457369" lon="2.665909"><ele></ele><time>2024-6-8T5:34:30Z</time></trkpt>
<trkpt lat="48.457359" lon="2.665768"><ele></ele><time>2024-6-8T5:34:33Z</time></trkpt>
<trkpt lat="48.457316" lon="2.66564"><ele></ele><time>2024-6-8T5:34:36Z</time></trkpt>
<trkpt lat="48.457249" lon="2.665542"><ele></ele><time>2024-6-8T5:34:39Z</time></trkpt>
<trkpt lat="48.457178" lon="2.665414"><ele></ele><time>2024-6-8T5:34:42Z</time></trkpt>
<trkpt lat="48.457113" lon="2.66527"><ele></ele><time>2024-6-8T5:34:45Z</time></trkpt>
<trkpt lat="48.457096" lon="2.665091"><ele></ele><time>2024-6-8T5:34:48Z</time></trkpt>
<trkpt lat="48.4571" lon="2.664952"><ele></ele><time>2024-6-8T5:34:51Z</time></trkpt>
<trkpt lat="48.457081" lon="2.664805"><ele></ele><time>2024-6-8T5:34:54Z</time></trkpt>
<trkpt lat="48.457056" lon="2.664646"><ele></ele><time>2024-6-8T5:34:57Z</time></trkpt>
<trkpt lat="48.45705" lon="2.664505"><ele></ele><time>2024-6-8T5:35:0Z</time></trkpt>
<trkpt lat="48.457032" lon="2.664322"><ele></ele><time>2024-6-8T5:35:3Z</time></trkpt>
<trkpt lat="48.457028" lon="2.664151"><ele></ele><time>2024-6-8T5:35:6Z</time></trkpt>
<trkpt lat="48.456996" lon="2.66397"><ele></ele><time>2024-6-8T5:35:9Z</time></trkpt>
<trkpt lat="48.456972" lon="2.663816"><ele></ele><time>2024-6-8T5:35:12Z</time></trkpt>
<trkpt lat="48.456934" lon="2.663668"><ele></ele><time>2024-6-8T5:35:15Z</time></trkpt>
<trkpt lat="48.456878" lon="2.663531"><ele></ele><time>2024-6-8T5:35:18Z</time></trkpt>
<trkpt lat="48.456808" lon="2.663411"><ele></ele><time>2024-6-8T5:35:21Z</time></trkpt>
<trkpt lat="48.456759" lon="2.663251"><ele></ele><time>2024-6-8T5:35:24Z</time></trkpt>
<trkpt lat="48.456707" lon="2.663111"><ele></ele><time>2024-6-8T5:35:27Z</time></trkpt>
<trkpt lat="48.456654" lon="2.662987"><ele></ele><time>2024-6-8T5:35:30Z</time></trkpt>
<trkpt lat="48.4566" lon="2.662854"><ele></ele><time>2024-6-8T5:35:33Z</time></trkpt>
<trkpt lat="48.456556" lon="2.662725"><ele></ele><time>2024-6-8T5:35:36Z</time></trkpt>
<trkpt lat="48.456512" lon="2.662579"><ele></ele><time>2024-6-8T5:35:39Z</time></trkpt>
<trkpt lat="48.456469" lon="2.66241"><ele></ele><time>2024-6-8T5:35:42Z</time></trkpt>
<trkpt lat="48.45642" lon="2.662249"><ele></ele><time>2024-6-8T5:35:45Z</time></trkpt>
<trkpt lat="48.456368" lon="2.662092"><ele></ele><time>2024-6-8T5:35:48Z</time></trkpt>
<trkpt lat="48.456324" lon="2.66194"><ele></ele><time>2024-6-8T5:35:51Z</time></trkpt>
<trkpt lat="48.456281" lon="2.661786"><ele></ele><time>2024-6-8T5:35:54Z</time></trkpt>
<trkpt lat="48.456257" lon="2.661654"><ele></ele><time>2024-6-8T5:35:57Z</time></trkpt>
<trkpt lat="48.456241" lon="2.661484"><ele></ele><time>2024-6-8T5:36:0Z</time></trkpt>
<trkpt lat="48.456192" lon="2.661329"><ele></ele><time>2024-6-8T5:36:3Z</time></trkpt>
<trkpt lat="48.456148" lon="2.661193"><ele></ele><time>2024-6-8T5:36:6Z</time></trkpt>
<trkpt lat="48.456144" lon="2.661037"><ele></ele><time>2024-6-8T5:36:9Z</time></trkpt>
<trkpt lat="48.456172" lon="2.660905"><ele></ele><time>2024-6-8T5:36:12Z</time></trkpt>
<trkpt lat="48.456209" lon="2.660729"><ele></ele><time>2024-6-8T5:36:15Z</time></trkpt>
<trkpt lat="48.456238" lon="2.660573"><ele></ele><time>2024-6-8T5:36:18Z</time></trkpt>
<trkpt lat="48.456244" lon="2.660408"><ele></ele><time>2024-6-8T5:36:21Z</time></trkpt>
<trkpt lat="48.456241" lon="2.660257"><ele></ele><time>2024-6-8T5:36:24Z</time></trkpt>
<trkpt lat="48.456251" lon="2.660085"><ele></ele><time>2024-6-8T5:36:27Z</time></trkpt>
<trkpt lat="48.456273" lon="2.659937"><ele></ele><time>2024-6-8T5:36:30Z</time></trkpt>
<trkpt lat="48.456301" lon="2.659781"><ele></ele><time>2024-6-8T5:36:33Z</time></trkpt>
<trkpt lat="48.456328" lon="2.6596"><ele></ele><time>2024-6-8T5:36:36Z</time></trkpt>
<trkpt lat="48.456372" lon="2.659431"><ele></ele><time>2024-6-8T5:36:39Z</time></trkpt>
<trkpt lat="48.456404" lon="2.659256"><ele></ele><time>2024-6-8T5:36:42Z</time></trkpt>
<trkpt lat="48.456433" lon="2.659097"><ele></ele><time>2024-6-8T5:36:45Z</time></trkpt>
<trkpt lat="48.456477" lon="2.658919"><ele></ele><time>2024-6-8T5:36:48Z</time></trkpt>
<trkpt lat="48.456539" lon="2.658735"><ele></ele><time>2024-6-8T5:36:51Z</time></trkpt>
<trkpt lat="48.456579" lon="2.658599"><ele></ele><time>2024-6-8T5:36:54Z</time></trkpt>
<trkpt lat="48.456617" lon="2.65846"><ele></ele><time>2024-6-8T5:36:57Z</time></trkpt>
<trkpt lat="48.456674" lon="2.658288"><ele></ele><time>2024-6-8T5:37:0Z</time></trkpt>
<trkpt lat="48.456736" lon="2.658157"><ele></ele><time>2024-6-8T5:37:3Z</time></trkpt>
<trkpt lat="48.4568" lon="2.658063"><ele></ele><time>2024-6-8T5:37:6Z</time></trkpt>
<trkpt lat="48.456857" lon="2.657952"><ele></ele><time>2024-6-8T5:37:9Z</time></trkpt>
<trkpt lat="48.456944" lon="2.657845"><ele></ele><time>2024-6-8T5:37:12Z</time></trkpt>
<trkpt lat="48.457035" lon="2.657778"><ele></ele><time>2024-6-8T5:37:15Z</time></trkpt>
<trkpt lat="48.457151" lon="2.657742"><ele></ele><time>2024-6-8T5:37:18Z</time></trkpt>
<trkpt lat="48.457247" lon="2.657705"><ele></ele><time>2024-6-8T5:37:21Z</time></trkpt>
<trkpt lat="48.457345" lon="2.657666"><ele></ele><time>2024-6-8T5:37:24Z</time></trkpt>
<trkpt lat="48.457439" lon="2.657643"><ele></ele><time>2024-6-8T5:37:27Z</time></trkpt>
<trkpt lat="48.457563" lon="2.657613"><ele></ele><time>2024-6-8T5:37:30Z</time></trkpt>
<trkpt lat="48.457659" lon="2.657562"><ele></ele><time>2024-6-8T5:37:33Z</time></trkpt>
<trkpt lat="48.45775" lon="2.657493"><ele></ele><time>2024-6-8T5:37:36Z</time></trkpt>
<trkpt lat="48.457839" lon="2.65746"><ele></ele><time>2024-6-8T5:37:39Z</time></trkpt>
<trkpt lat="48.457946" lon="2.657436"><ele></ele><time>2024-6-8T5:37:42Z</time></trkpt>
<trkpt lat="48.458064" lon="2.657454"><ele></ele><time>2024-6-8T5:37:45Z</time></trkpt>
<trkpt lat="48.458172" lon="2.657441"><ele></ele><time>2024-6-8T5:37:48Z</time></trkpt>
<trkpt lat="48.45828" lon="2.657415"><ele></ele><time>2024-6-8T5:37:51Z</time></trkpt>
<trkpt lat="48.458371" lon="2.657372"><ele></ele><time>2024-6-8T5:37:54Z</time></trkpt>
<trkpt lat="48.45846" lon="2.657284"><ele></ele><time>2024-6-8T5:37:57Z</time></trkpt>
<trkpt lat="48.458535" lon="2.657149"><ele></ele><time>2024-6-8T5:38:0Z</time></trkpt>
<trkpt lat="48.458582" lon="2.657032"><ele></ele><time>2024-6-8T5:38:3Z</time></trkpt>
<trkpt lat="48.458658" lon="2.656897"><ele></ele><time>2024-6-8T5:38:6Z</time></trkpt>
<trkpt lat="48.45872" lon="2.656752"><ele></ele><time>2024-6-8T5:38:9Z</time></trkpt>
<trkpt lat="48.458775" lon="2.656617"><ele></ele><time>2024-6-8T5:38:12Z</time></trkpt>
<trkpt lat="48.458846" lon="2.656494"><ele></ele><time>2024-6-8T5:38:15Z</time></trkpt>
<trkpt lat="48.458919" lon="2.656359"><ele></ele><time>2024-6-8T5:38:18Z</time></trkpt>
<trkpt lat="48.45898" lon="2.656225"><ele></ele><time>2024-6-8T5:38:21Z</time></trkpt>
<trkpt lat="48.459047" lon="2.656105"><ele></ele><time>2024-6-8T5:38:24Z</time></trkpt>
<trkpt lat="48.459124" lon="2.655971"><ele></ele><time>2024-6-8T5:38:27Z</time></trkpt>
<trkpt lat="48.459211" lon="2.655825"><ele></ele><time>2024-6-8T5:38:30Z</time></trkpt>
<trkpt lat="48.459285" lon="2.655679"><ele></ele><time>2024-6-8T5:38:33Z</time></trkpt>
<trkpt lat="48.459345" lon="2.655538"><ele></ele><time>2024-6-8T5:38:36Z</time></trkpt>
<trkpt lat="48.459393" lon="2.655394"><ele></ele><time>2024-6-8T5:38:39Z</time></trkpt>
<trkpt lat="48.459433" lon="2.655242"><ele></ele><time>2024-6-8T5:38:42Z</time></trkpt>
<trkpt lat="48.45947" lon="2.655091"><ele></ele><time>2024-6-8T5:38:45Z</time></trkpt>
<trkpt lat="48.459509" lon="2.654913"><ele></ele><time>2024-6-8T5:38:48Z</time></trkpt>
<trkpt lat="48.459557" lon="2.654761"><ele></ele><time>2024-6-8T5:38:51Z</time></trkpt>
<trkpt lat="48.459594" lon="2.65458"><ele></ele><time>2024-6-8T5:38:54Z</time></trkpt>
<trkpt lat="48.459614" lon="2.654399"><ele></ele><time>2024-6-8T5:38:57Z</time></trkpt>
<trkpt lat="48.459648" lon="2.654241"><ele></ele><time>2024-6-8T5:39:0Z</time></trkpt>
<trkpt lat="48.459676" lon="2.654085"><ele></ele><time>2024-6-8T5:39:3Z</time></trkpt>
<trkpt lat="48.459674" lon="2.653943"><ele></ele><time>2024-6-8T5:39:6Z</time></trkpt>
<trkpt lat="48.459612" lon="2.653772"><ele></ele><time>2024-6-8T5:39:9Z</time></trkpt>
<trkpt lat="48.459507" lon="2.653668"><ele></ele><time>2024-6-8T5:39:12Z</time></trkpt>
<trkpt lat="48.45942" lon="2.653574"><ele></ele><time>2024-6-8T5:39:15Z</time></trkpt>
<trkpt lat="48.459332" lon="2.6535"><ele></ele><time>2024-6-8T5:39:18Z</time></trkpt>
<trkpt lat="48.459241" lon="2.653413"><ele></ele><time>2024-6-8T5:39:21Z</time></trkpt>
<trkpt lat="48.459153" lon="2.653358"><ele></ele><time>2024-6-8T5:39:24Z</time></trkpt>
<trkpt lat="48.45905" lon="2.653349"><ele></ele><time>2024-6-8T5:39:27Z</time></trkpt>
<trkpt lat="48.458945" lon="2.653363"><ele></ele><time>2024-6-8T5:39:30Z</time></trkpt>
<trkpt lat="48.458837" lon="2.653383"><ele></ele><time>2024-6-8T5:39:33Z</time></trkpt>
<trkpt lat="48.458736" lon="2.653413"><ele></ele><time>2024-6-8T5:39:36Z</time></trkpt>
<trkpt lat="48.458646" lon="2.653431"><ele></ele><time>2024-6-8T5:39:39Z</time></trkpt>
<trkpt lat="48.458528" lon="2.653454"><ele></ele><time>2024-6-8T5:39:42Z</time></trkpt>
<trkpt lat="48.458432" lon="2.653465"><ele></ele><time>2024-6-8T5:39:45Z</time></trkpt>
<trkpt lat="48.458307" lon="2.653448"><ele></ele><time>2024-6-8T5:39:48Z</time></trkpt>
<trkpt lat="48.458207" lon="2.653423"><ele></ele><time>2024-6-8T5:39:51Z</time></trkpt>
<trkpt lat="48.458089" lon="2.653371"><ele></ele><time>2024-6-8T5:39:54Z</time></trkpt>
<trkpt lat="48.457975" lon="2.653303"><ele></ele><time>2024-6-8T5:39:57Z</time></trkpt>
<trkpt lat="48.457855" lon="2.65321"><ele></ele><time>2024-6-8T5:40:0Z</time></trkpt>
<trkpt lat="48.457771" lon="2.653101"><ele></ele><time>2024-6-8T5:40:3Z</time></trkpt>
<trkpt lat="48.457693" lon="2.652993"><ele></ele><time>2024-6-8T5:40:6Z</time></trkpt>
<trkpt lat="48.457623" lon="2.652876"><ele></ele><time>2024-6-8T5:40:9Z</time></trkpt>
<trkpt lat="48.457592" lon="2.652746"><ele></ele><time>2024-6-8T5:40:12Z</time></trkpt>
<trkpt lat="48.457595" lon="2.652577"><ele></ele><time>2024-6-8T5:40:15Z</time></trkpt>
<trkpt lat="48.457627" lon="2.652395"><ele></ele><time>2024-6-8T5:40:18Z</time></trkpt>
<trkpt lat="48.45767" lon="2.652246"><ele></ele><time>2024-6-8T5:40:21Z</time></trkpt>
<trkpt lat="48.457738" lon="2.652058"><ele></ele><time>2024-6-8T5:40:24Z</time></trkpt>
<trkpt lat="48.457804" lon="2.651919"><ele></ele><time>2024-6-8T5:40:27Z</time></trkpt>
<trkpt lat="48.4579" lon="2.651787"><ele></ele><time>2024-6-8T5:40:30Z</time></trkpt>
<trkpt lat="48.457992" lon="2.651664"><ele></ele><time>2024-6-8T5:40:33Z</time></trkpt>
<trkpt lat="48.458072" lon="2.651594"><ele></ele><time>2024-6-8T5:40:36Z</time></trkpt>
<trkpt lat="48.458161" lon="2.651541"><ele></ele><time>2024-6-8T5:40:39Z</time></trkpt>
<trkpt lat="48.458285" lon="2.651472"><ele></ele><time>2024-6-8T5:40:42Z</time></trkpt>
<trkpt lat="48.458364" lon="2.651402"><ele></ele><time>2024-6-8T5:40:45Z</time></trkpt>
<trkpt lat="48.458472" lon="2.651319"><ele></ele><time>2024-6-8T5:40:48Z</time></trkpt>
<trkpt lat="48.458574" lon="2.651224"><ele></ele><time>2024-6-8T5:40:51Z</time></trkpt>
<trkpt lat="48.458614" lon="2.651096"><ele></ele><time>2024-6-8T5:40:54Z</time></trkpt>
<trkpt lat="48.458654" lon="2.650907"><ele></ele><time>2024-6-8T5:40:57Z</time></trkpt>
<trkpt lat="48.458627" lon="2.650724"><ele></ele><time>2024-6-8T5:41:0Z</time></trkpt>
<trkpt lat="48.458581" lon="2.650548"><ele></ele><time>2024-6-8T5:41:3Z</time></trkpt>
<trkpt lat="48.458519" lon="2.650377"><ele></ele><time>2024-6-8T5:41:6Z</time></trkpt>
<trkpt lat="48.458469" lon="2.650232"><ele></ele><time>2024-6-8T5:41:9Z</time></trkpt>
<trkpt lat="48.458406" lon="2.650069"><ele></ele><time>2024-6-8T5:41:12Z</time></trkpt>
<trkpt lat="48.458347" lon="2.649955"><ele></ele><time>2024-6-8T5:41:15Z</time></trkpt>
<trkpt lat="48.458295" lon="2.649814"><ele></ele><time>2024-6-8T5:41:18Z</time></trkpt>
<trkpt lat="48.458241" lon="2.6497"><ele></ele><time>2024-6-8T5:41:21Z</time></trkpt>
<trkpt lat="48.45817" lon="2.649549"><ele></ele><time>2024-6-8T5:41:24Z</time></trkpt>
<trkpt lat="48.458131" lon="2.649402"><ele></ele><time>2024-6-8T5:41:27Z</time></trkpt>
<trkpt lat="48.458093" lon="2.649238"><ele></ele><time>2024-6-8T5:41:30Z</time></trkpt>
<trkpt lat="48.458082" lon="2.649039"><ele></ele><time>2024-6-8T5:41:33Z</time></trkpt>
<trkpt lat="48.458106" lon="2.648834"><ele></ele><time>2024-6-8T5:41:36Z</time></trkpt>
<trkpt lat="48.458154" lon="2.648715"><ele></ele><time>2024-6-8T5:41:39Z</time></trkpt>
<trkpt lat="48.458248" lon="2.648614"><ele></ele><time>2024-6-8T5:41:42Z</time></trkpt>
<trkpt lat="48.458328" lon="2.648521"><ele></ele><time>2024-6-8T5:41:45Z</time></trkpt>
<trkpt lat="48.458411" lon="2.648453"><ele></ele><time>2024-6-8T5:41:48Z</time></trkpt>
<trkpt lat="48.458509" lon="2.648376"><ele></ele><time>2024-6-8T5:41:51Z</time></trkpt>
<trkpt lat="48.458613" lon="2.648322"><ele></ele><time>2024-6-8T5:41:54Z</time></trkpt>
<trkpt lat="48.458706" lon="2.648269"><ele></ele><time>2024-6-8T5:41:57Z</time></trkpt>
<trkpt lat="48.458795" lon="2.648229"><ele></ele><time>2024-6-8T5:42:0Z</time></trkpt>
<trkpt lat="48.458879" lon="2.648181"><ele></ele><time>2024-6-8T5:42:3Z</time></trkpt>
<trkpt lat="48.458974" lon="2.648156"><ele></ele><time>2024-6-8T5:42:6Z</time></trkpt>
<trkpt lat="48.459075" lon="2.648124"><ele></ele><time>2024-6-8T5:42:9Z</time></trkpt>
<trkpt lat="48.459194" lon="2.648078"><ele></ele><time>2024-6-8T5:42:12Z</time></trkpt>
<trkpt lat="48.459279" lon="2.648012"><ele></ele><time>2024-6-8T5:42:15Z</time></trkpt>
<trkpt lat="48.459354" lon="2.647914"><ele></ele><time>2024-6-8T5:42:18Z</time></trkpt>
<trkpt lat="48.45942" lon="2.64778"><ele></ele><time>2024-6-8T5:42:21Z</time></trkpt>
<trkpt lat="48.459462" lon="2.64764"><ele></ele><time>2024-6-8T5:42:24Z</time></trkpt>
<trkpt lat="48.459507" lon="2.647443"><ele></ele><time>2024-6-8T5:42:27Z</time></trkpt>
<trkpt lat="48.459526" lon="2.647297"><ele></ele><time>2024-6-8T5:42:30Z</time></trkpt>
<trkpt lat="48.459535" lon="2.647159"><ele></ele><time>2024-6-8T5:42:33Z</time></trkpt>
<trkpt lat="48.459537" lon="2.647011"><ele></ele><time>2024-6-8T5:42:36Z</time></trkpt>
<trkpt lat="48.459506" lon="2.646811"><ele></ele><time>2024-6-8T5:42:39Z</time></trkpt>
<trkpt lat="48.459498" lon="2.646665"><ele></ele><time>2024-6-8T5:42:42Z</time></trkpt>
<trkpt lat="48.45949" lon="2.646519"><ele></ele><time>2024-6-8T5:42:45Z</time></trkpt>
<trkpt lat="48.459471" lon="2.646367"><ele></ele><time>2024-6-8T5:42:48Z</time></trkpt>
<trkpt lat="48.459458" lon="2.646215"><ele></ele><time>2024-6-8T5:42:51Z</time></trkpt>
<trkpt lat="48.45943" lon="2.646049"><ele></ele><time>2024-6-8T5:42:54Z</time></trkpt>
<trkpt lat="48.459373" lon="2.645943"><ele></ele><time>2024-6-8T5:42:57Z</time></trkpt>
<trkpt lat="48.459317" lon="2.645823"><ele></ele><time>2024-6-8T5:43:0Z</time></trkpt>
<trkpt lat="48.459272" lon="2.645703"><ele></ele><time>2024-6-8T5:43:3Z</time></trkpt>
<trkpt lat="48.459208" lon="2.645598"><ele></ele><time>2024-6-8T5:43:6Z</time></trkpt>
<trkpt lat="48.459135" lon="2.645481"><ele></ele><time>2024-6-8T5:43:9Z</time></trkpt>
<trkpt lat="48.459115" lon="2.645325"><ele></ele><time>2024-6-8T5:43:12Z</time></trkpt>
<trkpt lat="48.459069" lon="2.645137"><ele></ele><time>2024-6-8T5:43:15Z</time></trkpt>
<trkpt lat="48.459058" lon="2.64498"><ele></ele><time>2024-6-8T5:43:18Z</time></trkpt>
<trkpt lat="48.459046" lon="2.644844"><ele></ele><time>2024-6-8T5:43:21Z</time></trkpt>
<trkpt lat="48.459051" lon="2.644659"><ele></ele><time>2024-6-8T5:43:24Z</time></trkpt>
<trkpt lat="48.459038" lon="2.644451"><ele></ele><time>2024-6-8T5:43:27Z</time></trkpt>
<trkpt lat="48.459038" lon="2.644257"><ele></ele><time>2024-6-8T5:43:30Z</time></trkpt>
<trkpt lat="48.459069" lon="2.644083"><ele></ele><time>2024-6-8T5:43:33Z</time></trkpt>
<trkpt lat="48.459083" lon="2.643921"><ele></ele><time>2024-6-8T5:43:36Z</time></trkpt>
<trkpt lat="48.459126" lon="2.643769"><ele></ele><time>2024-6-8T5:43:39Z</time></trkpt>
<trkpt lat="48.459144" lon="2.643622"><ele></ele><time>2024-6-8T5:43:42Z</time></trkpt>
<trkpt lat="48.459184" lon="2.64347"><ele></ele><time>2024-6-8T5:43:45Z</time></trkpt>
<trkpt lat="48.459214" lon="2.643328"><ele></ele><time>2024-6-8T5:43:48Z</time></trkpt>
<trkpt lat="48.45928" lon="2.643155"><ele></ele><time>2024-6-8T5:43:51Z</time></trkpt>
<trkpt lat="48.45934" lon="2.642956"><ele></ele><time>2024-6-8T5:43:54Z</time></trkpt>
<trkpt lat="48.459379" lon="2.642819"><ele></ele><time>2024-6-8T5:43:57Z</time></trkpt>
<trkpt lat="48.459349" lon="2.64262"><ele></ele><time>2024-6-8T5:44:0Z</time></trkpt>
<trkpt lat="48.459348" lon="2.642437"><ele></ele><time>2024-6-8T5:44:3Z</time></trkpt>
<trkpt lat="48.459373" lon="2.642299"><ele></ele><time>2024-6-8T5:44:6Z</time></trkpt>
<trkpt lat="48.459374" lon="2.642115"><ele></ele><time>2024-6-8T5:44:9Z</time></trkpt>
<trkpt lat="48.459398" lon="2.641967"><ele></ele><time>2024-6-8T5:44:12Z</time></trkpt>
<trkpt lat="48.459426" lon="2.641815"><ele></ele><time>2024-6-8T5:44:15Z</time></trkpt>
<trkpt lat="48.459447" lon="2.64168"><ele></ele><time>2024-6-8T5:44:18Z</time></trkpt>
<trkpt lat="48.459465" lon="2.641527"><ele></ele><time>2024-6-8T5:44:21Z</time></trkpt>
<trkpt lat="48.459422" lon="2.641375"><ele></ele><time>2024-6-8T5:44:24Z</time></trkpt>
<trkpt lat="48.459346" lon="2.641278"><ele></ele><time>2024-6-8T5:44:27Z</time></trkpt>
<trkpt lat="48.45926" lon="2.641227"><ele></ele><time>2024-6-8T5:44:30Z</time></trkpt>
<trkpt lat="48.459158" lon="2.641196"><ele></ele><time>2024-6-8T5:44:33Z</time></trkpt>
<trkpt lat="48.459049" lon="2.64117"><ele></ele><time>2024-6-8T5:44:36Z</time></trkpt>
<trkpt lat="48.45895" lon="2.641165"><ele></ele><time>2024-6-8T5:44:39Z</time></trkpt>
<trkpt lat="48.458849" lon="2.64115"><ele></ele><time>2024-6-8T5:44:42Z</time></trkpt>
<trkpt lat="48.458752" lon="2.641152"><ele></ele><time>2024-6-8T5:44:45Z</time></trkpt>
<trkpt lat="48.458656" lon="2.641145"><ele></ele><time>2024-6-8T5:44:48Z</time></trkpt>
<trkpt lat="48.458561" lon="2.641141"><ele></ele><time>2024-6-8T5:44:51Z</time></trkpt>
<trkpt lat="48.458446" lon="2.641141"><ele></ele><time>2024-6-8T5:44:54Z</time></trkpt>
<trkpt lat="48.458348" lon="2.641156"><ele></ele><time>2024-6-8T5:44:57Z</time></trkpt>
<trkpt lat="48.458235" lon="2.641165"><ele></ele><time>2024-6-8T5:45:0Z</time></trkpt>
<trkpt lat="48.458142" lon="2.641158"><ele></ele><time>2024-6-8T5:45:3Z</time></trkpt>
<trkpt lat="48.458047" lon="2.641112"><ele></ele><time>2024-6-8T5:45:6Z</time></trkpt>
<trkpt lat="48.457973" lon="2.64103"><ele></ele><time>2024-6-8T5:45:9Z</time></trkpt>
<trkpt lat="48.457907" lon="2.640891"><ele></ele><time>2024-6-8T5:45:12Z</time></trkpt>
<trkpt lat="48.457841" lon="2.640788"><ele></ele><time>2024-6-8T5:45:15Z</time></trkpt>
<trkpt lat="48.457781" lon="2.640631"><ele></ele><time>2024-6-8T5:45:18Z</time></trkpt>
<trkpt lat="48.457731" lon="2.640499"><ele></ele><time>2024-6-8T5:45:21Z</time></trkpt>
<trkpt lat="48.457673" lon="2.640364"><ele></ele><time>2024-6-8T5:45:24Z</time></trkpt>
<trkpt lat="48.457627" lon="2.640222"><ele></ele><time>2024-6-8T5:45:27Z</time></trkpt>
<trkpt lat="48.457588" lon="2.640088"><ele></ele><time>2024-6-8T5:45:30Z</time></trkpt>
<trkpt lat="48.457562" lon="2.639946"><ele></ele><time>2024-6-8T5:45:33Z</time></trkpt>
<trkpt lat="48.457546" lon="2.639807"><ele></ele><time>2024-6-8T5:45:36Z</time></trkpt>
<trkpt lat="48.457544" lon="2.639657"><ele></ele><time>2024-6-8T5:45:39Z</time></trkpt>
<trkpt lat="48.457572" lon="2.639514"><ele></ele><time>2024-6-8T5:45:42Z</time></trkpt>
<trkpt lat="48.457599" lon="2.639376"><ele></ele><time>2024-6-8T5:45:45Z</time></trkpt>
<trkpt lat="48.457609" lon="2.639215"><ele></ele><time>2024-6-8T5:45:48Z</time></trkpt>
<trkpt lat="48.457601" lon="2.639061"><ele></ele><time>2024-6-8T5:45:51Z</time></trkpt>
<trkpt lat="48.457641" lon="2.638843"><ele></ele><time>2024-6-8T5:45:54Z</time></trkpt>
<trkpt lat="48.457651" lon="2.6387"><ele></ele><time>2024-6-8T5:45:57Z</time></trkpt>
<trkpt lat="48.457646" lon="2.638526"><ele></ele><time>2024-6-8T5:46:0Z</time></trkpt>
<trkpt lat="48.457602" lon="2.638358"><ele></ele><time>2024-6-8T5:46:3Z</time></trkpt>
<trkpt lat="48.457528" lon="2.638279"><ele></ele><time>2024-6-8T5:46:6Z</time></trkpt>
<trkpt lat="48.457435" lon="2.638285"><ele></ele><time>2024-6-8T5:46:9Z</time></trkpt>
<trkpt lat="48.457355" lon="2.638347"><ele></ele><time>2024-6-8T5:46:12Z</time></trkpt>
<trkpt lat="48.457299" lon="2.638502"><ele></ele><time>2024-6-8T5:46:15Z</time></trkpt>
<trkpt lat="48.45725" lon="2.638664"><ele></ele><time>2024-6-8T5:46:18Z</time></trkpt>
<trkpt lat="48.457201" lon="2.638796"><ele></ele><time>2024-6-8T5:46:21Z</time></trkpt>
<trkpt lat="48.457172" lon="2.638933"><ele></ele><time>2024-6-8T5:46:24Z</time></trkpt>
<trkpt lat="48.457112" lon="2.639061"><ele></ele><time>2024-6-8T5:46:27Z</time></trkpt>
<trkpt lat="48.457034" lon="2.639176"><ele></ele><time>2024-6-8T5:46:30Z</time></trkpt>
<trkpt lat="48.456949" lon="2.639235"><ele></ele><time>2024-6-8T5:46:33Z</time></trkpt>
<trkpt lat="48.456841" lon="2.639258"><ele></ele><time>2024-6-8T5:46:36Z</time></trkpt>
<trkpt lat="48.45672" lon="2.639283"><ele></ele><time>2024-6-8T5:46:39Z</time></trkpt>
<trkpt lat="48.456628" lon="2.639302"><ele></ele><time>2024-6-8T5:46:42Z</time></trkpt>
<trkpt lat="48.456521" lon="2.639311"><ele></ele><time>2024-6-8T5:46:45Z</time></trkpt>
<trkpt lat="48.456406" lon="2.639257"><ele></ele><time>2024-6-8T5:46:48Z</time></trkpt>
<trkpt lat="48.45632" lon="2.639157"><ele></ele><time>2024-6-8T5:46:51Z</time></trkpt>
<trkpt lat="48.456243" lon="2.638994"><ele></ele><time>2024-6-8T5:46:54Z</time></trkpt>
<trkpt lat="48.456178" lon="2.638827"><ele></ele><time>2024-6-8T5:46:57Z</time></trkpt>
<trkpt lat="48.456083" lon="2.638688"><ele></ele><time>2024-6-8T5:47:0Z</time></trkpt>
<trkpt lat="48.455972" lon="2.638726"><ele></ele><time>2024-6-8T5:47:3Z</time></trkpt>
<trkpt lat="48.455853" lon="2.638783"><ele></ele><time>2024-6-8T5:47:6Z</time></trkpt>
<trkpt lat="48.455746" lon="2.638823"><ele></ele><time>2024-6-8T5:47:9Z</time></trkpt>
<trkpt lat="48.455646" lon="2.638784"><ele></ele><time>2024-6-8T5:47:12Z</time></trkpt>
<trkpt lat="48.45555" lon="2.638683"><ele></ele><time>2024-6-8T5:47:15Z</time></trkpt>
<trkpt lat="48.455462" lon="2.638581"><ele></ele><time>2024-6-8T5:47:18Z</time></trkpt>
<trkpt lat="48.455367" lon="2.638522"><ele></ele><time>2024-6-8T5:47:21Z</time></trkpt>
<trkpt lat="48.455261" lon="2.638524"><ele></ele><time>2024-6-8T5:47:24Z</time></trkpt>
<trkpt lat="48.455135" lon="2.638533"><ele></ele><time>2024-6-8T5:47:27Z</time></trkpt>
<trkpt lat="48.455017" lon="2.638526"><ele></ele><time>2024-6-8T5:47:30Z</time></trkpt>
<trkpt lat="48.454905" lon="2.638491"><ele></ele><time>2024-6-8T5:47:33Z</time></trkpt>
<trkpt lat="48.454826" lon="2.63841"><ele></ele><time>2024-6-8T5:47:36Z</time></trkpt>
<trkpt lat="48.454774" lon="2.638283"><ele></ele><time>2024-6-8T5:47:39Z</time></trkpt>
<trkpt lat="48.454696" lon="2.638175"><ele></ele><time>2024-6-8T5:47:42Z</time></trkpt>
<trkpt lat="48.454608" lon="2.638052"><ele></ele><time>2024-6-8T5:47:45Z</time></trkpt>
<trkpt lat="48.454521" lon="2.637923"><ele></ele><time>2024-6-8T5:47:48Z</time></trkpt>
<trkpt lat="48.454424" lon="2.637792"><ele></ele><time>2024-6-8T5:47:51Z</time></trkpt>
<trkpt lat="48.454366" lon="2.637688"><ele></ele><time>2024-6-8T5:47:54Z</time></trkpt>
<trkpt lat="48.454336" lon="2.637469"><ele></ele><time>2024-6-8T5:47:57Z</time></trkpt>
<trkpt lat="48.454332" lon="2.63731"><ele></ele><time>2024-6-8T5:48:0Z</time></trkpt>
<trkpt lat="48.454332" lon="2.637154"><ele></ele><time>2024-6-8T5:48:3Z</time></trkpt>
<trkpt lat="48.454308" lon="2.636993"><ele></ele><time>2024-6-8T5:48:6Z</time></trkpt>
<trkpt lat="48.45427" lon="2.636856"><ele></ele><time>2024-6-8T5:48:9Z</time></trkpt>
<trkpt lat="48.45422" lon="2.636683"><ele></ele><time>2024-6-8T5:48:12Z</time></trkpt>
<trkpt lat="48.454159" lon="2.636569"><ele></ele><time>2024-6-8T5:48:15Z</time></trkpt>
<trkpt lat="48.454063" lon="2.636438"><ele></ele><time>2024-6-8T5:48:18Z</time></trkpt>
<trkpt lat="48.453983" lon="2.636365"><ele></ele><time>2024-6-8T5:48:21Z</time></trkpt>
<trkpt lat="48.453869" lon="2.636304"><ele></ele><time>2024-6-8T5:48:24Z</time></trkpt>
<trkpt lat="48.453738" lon="2.636337"><ele></ele><time>2024-6-8T5:48:27Z</time></trkpt>
<trkpt lat="48.45361" lon="2.636396"><ele></ele><time>2024-6-8T5:48:30Z</time></trkpt>
<trkpt lat="48.453523" lon="2.636449"><ele></ele><time>2024-6-8T5:48:33Z</time></trkpt>
<trkpt lat="48.453399" lon="2.636519"><ele></ele><time>2024-6-8T5:48:36Z</time></trkpt>
<trkpt lat="48.453272" lon="2.636588"><ele></ele><time>2024-6-8T5:48:39Z</time></trkpt>
<trkpt lat="48.453149" lon="2.636656"><ele></ele><time>2024-6-8T5:48:42Z</time></trkpt>
<trkpt lat="48.453026" lon="2.636676"><ele></ele><time>2024-6-8T5:48:45Z</time></trkpt>
<trkpt lat="48.452926" lon="2.636588"><ele></ele><time>2024-6-8T5:48:48Z</time></trkpt>
<trkpt lat="48.45283" lon="2.636449"><ele></ele><time>2024-6-8T5:48:51Z</time></trkpt>
<trkpt lat="48.452748" lon="2.636308"><ele></ele><time>2024-6-8T5:48:54Z</time></trkpt>
<trkpt lat="48.452683" lon="2.636179"><ele></ele><time>2024-6-8T5:48:57Z</time></trkpt>
<trkpt lat="48.452603" lon="2.636038"><ele></ele><time>2024-6-8T5:49:0Z</time></trkpt>
<trkpt lat="48.452495" lon="2.636002"><ele></ele><time>2024-6-8T5:49:3Z</time></trkpt>
<trkpt lat="48.45238" lon="2.63602"><ele></ele><time>2024-6-8T5:49:6Z</time></trkpt>
<trkpt lat="48.452268" lon="2.636067"><ele></ele><time>2024-6-8T5:49:9Z</time></trkpt>
<trkpt lat="48.452176" lon="2.636089"><ele></ele><time>2024-6-8T5:49:12Z</time></trkpt>
<trkpt lat="48.452072" lon="2.636041"><ele></ele><time>2024-6-8T5:49:15Z</time></trkpt>
<trkpt lat="48.451995" lon="2.635904"><ele></ele><time>2024-6-8T5:49:18Z</time></trkpt>
<trkpt lat="48.451949" lon="2.635744"><ele></ele><time>2024-6-8T5:49:21Z</time></trkpt>
<trkpt lat="48.451942" lon="2.635568"><ele></ele><time>2024-6-8T5:49:24Z</time></trkpt>
<trkpt lat="48.451942" lon="2.635373"><ele></ele><time>2024-6-8T5:49:27Z</time></trkpt>
<trkpt lat="48.451957" lon="2.635191"><ele></ele><time>2024-6-8T5:49:30Z</time></trkpt>
<trkpt lat="48.45196" lon="2.635004"><ele></ele><time>2024-6-8T5:49:33Z</time></trkpt>
<trkpt lat="48.451984" lon="2.634843"><ele></ele><time>2024-6-8T5:49:36Z</time></trkpt>
<trkpt lat="48.452007" lon="2.634684"><ele></ele><time>2024-6-8T5:49:39Z</time></trkpt>
<trkpt lat="48.452032" lon="2.634508"><ele></ele><time>2024-6-8T5:49:42Z</time></trkpt>
<trkpt lat="48.45204" lon="2.634361"><ele></ele><time>2024-6-8T5:49:45Z</time></trkpt>
<trkpt lat="48.45203" lon="2.63421"><ele></ele><time>2024-6-8T5:49:48Z</time></trkpt>
<trkpt lat="48.452032" lon="2.634052"><ele></ele><time>2024-6-8T5:49:51Z</time></trkpt>
<trkpt lat="48.452034" lon="2.633908"><ele></ele><time>2024-6-8T5:49:54Z</time></trkpt>
<trkpt lat="48.452066" lon="2.633764"><ele></ele><time>2024-6-8T5:49:57Z</time></trkpt>
<trkpt lat="48.452133" lon="2.633641"><ele></ele><time>2024-6-8T5:50:0Z</time></trkpt>
<trkpt lat="48.452153" lon="2.633621"><ele></ele><time>2024-6-8T5:50:3Z</time></trkpt>
<trkpt lat="48.452149" lon="2.633622"><ele></ele><time>2024-6-8T5:50:6Z</time></trkpt>
<trkpt lat="48.452144" lon="2.633623"><ele></ele><time>2024-6-8T5:50:9Z</time></trkpt>
<trkpt lat="48.452141" lon="2.633623"><ele></ele><time>2024-6-8T5:50:12Z</time></trkpt>
<trkpt lat="48.45212" lon="2.633623"><ele></ele><time>2024-6-8T5:50:15Z</time></trkpt>
<trkpt lat="48.452119" lon="2.633614"><ele></ele><time>2024-6-8T5:50:18Z</time></trkpt>
<trkpt lat="48.452123" lon="2.633608"><ele></ele><time>2024-6-8T5:50:21Z</time></trkpt>
<trkpt lat="48.452113" lon="2.633654"><ele></ele><time>2024-6-8T5:50:24Z</time></trkpt>
<trkpt lat="48.452113" lon="2.63366"><ele></ele><time>2024-6-8T5:50:27Z</time></trkpt>
<trkpt lat="48.452113" lon="2.633662"><ele></ele><time>2024-6-8T5:50:30Z</time></trkpt>
<trkpt lat="48.452113" lon="2.633662"><ele></ele><time>2024-6-8T5:50:33Z</time></trkpt>
<trkpt lat="48.45212" lon="2.633662"><ele></ele><time>2024-6-8T5:50:36Z</time></trkpt>
<trkpt lat="48.452116" lon="2.633665"><ele></ele><time>2024-6-8T5:50:39Z</time></trkpt>
<trkpt lat="48.452115" lon="2.633665"><ele></ele><time>2024-6-8T5:50:42Z</time></trkpt>
<trkpt lat="48.452119" lon="2.633665"><ele></ele><time>2024-6-8T5:50:45Z</time></trkpt>
<trkpt lat="48.452123" lon="2.633627"><ele></ele><time>2024-6-8T5:50:48Z</time></trkpt>
<trkpt lat="48.452124" lon="2.633626"><ele></ele><time>2024-6-8T5:50:51Z</time></trkpt>
<trkpt lat="48.452106" lon="2.633613"><ele></ele><time>2024-6-8T5:50:54Z</time></trkpt>
<trkpt lat="48.452104" lon="2.633611"><ele></ele><time>2024-6-8T5:50:57Z</time></trkpt>
<trkpt lat="48.452103" lon="2.633613"><ele></ele><time>2024-6-8T5:51:0Z</time></trkpt>
<trkpt lat="48.452046" lon="2.633752"><ele></ele><time>2024-6-8T5:51:3Z</time></trkpt>
<trkpt lat="48.45201" lon="2.633886"><ele></ele><time>2024-6-8T5:51:6Z</time></trkpt>
<trkpt lat="48.45199" lon="2.634038"><ele></ele><time>2024-6-8T5:51:9Z</time></trkpt>
<trkpt lat="48.451998" lon="2.634202"><ele></ele><time>2024-6-8T5:51:12Z</time></trkpt>
<trkpt lat="48.452008" lon="2.634371"><ele></ele><time>2024-6-8T5:51:15Z</time></trkpt>
<trkpt lat="48.452012" lon="2.634543"><ele></ele><time>2024-6-8T5:51:18Z</time></trkpt>
<trkpt lat="48.451994" lon="2.634718"><ele></ele><time>2024-6-8T5:51:21Z</time></trkpt>
<trkpt lat="48.45198" lon="2.63489"><ele></ele><time>2024-6-8T5:51:24Z</time></trkpt>
<trkpt lat="48.451955" lon="2.635072"><ele></ele><time>2024-6-8T5:51:27Z</time></trkpt>
<trkpt lat="48.451901" lon="2.635234"><ele></ele><time>2024-6-8T5:51:30Z</time></trkpt>
<trkpt lat="48.451825" lon="2.635361"><ele></ele><time>2024-6-8T5:51:33Z</time></trkpt>
<trkpt lat="48.451755" lon="2.635469"><ele></ele><time>2024-6-8T5:51:36Z</time></trkpt>
<trkpt lat="48.451705" lon="2.635614"><ele></ele><time>2024-6-8T5:51:39Z</time></trkpt>
<trkpt lat="48.451724" lon="2.635757"><ele></ele><time>2024-6-8T5:51:42Z</time></trkpt>
<trkpt lat="48.451751" lon="2.635901"><ele></ele><time>2024-6-8T5:51:45Z</time></trkpt>
<trkpt lat="48.451783" lon="2.636051"><ele></ele><time>2024-6-8T5:51:48Z</time></trkpt>
<trkpt lat="48.451751" lon="2.636209"><ele></ele><time>2024-6-8T5:51:51Z</time></trkpt>
<trkpt lat="48.451662" lon="2.636284"><ele></ele><time>2024-6-8T5:51:54Z</time></trkpt>
<trkpt lat="48.451562" lon="2.636349"><ele></ele><time>2024-6-8T5:51:57Z</time></trkpt>
<trkpt lat="48.45148" lon="2.636418"><ele></ele><time>2024-6-8T5:52:0Z</time></trkpt>
<trkpt lat="48.451401" lon="2.636493"><ele></ele><time>2024-6-8T5:52:3Z</time></trkpt>
<trkpt lat="48.451322" lon="2.63657"><ele></ele><time>2024-6-8T5:52:6Z</time></trkpt>
<trkpt lat="48.451243" lon="2.636676"><ele></ele><time>2024-6-8T5:52:9Z</time></trkpt>
<trkpt lat="48.4512" lon="2.636811"><ele></ele><time>2024-6-8T5:52:12Z</time></trkpt>
<trkpt lat="48.451151" lon="2.636939"><ele></ele><time>2024-6-8T5:52:15Z</time></trkpt>
<trkpt lat="48.451077" lon="2.637038"><ele></ele><time>2024-6-8T5:52:18Z</time></trkpt>
<trkpt lat="48.451012" lon="2.637166"><ele></ele><time>2024-6-8T5:52:21Z</time></trkpt>
<trkpt lat="48.450954" lon="2.637306"><ele></ele><time>2024-6-8T5:52:24Z</time></trkpt>
<trkpt lat="48.450916" lon="2.637475"><ele></ele><time>2024-6-8T5:52:27Z</time></trkpt>
<trkpt lat="48.450892" lon="2.637655"><ele></ele><time>2024-6-8T5:52:30Z</time></trkpt>
<trkpt lat="48.45088" lon="2.637827"><ele></ele><time>2024-6-8T5:52:33Z</time></trkpt>
<trkpt lat="48.450868" lon="2.637993"><ele></ele><time>2024-6-8T5:52:36Z</time></trkpt>
<trkpt lat="48.450859" lon="2.638183"><ele></ele><time>2024-6-8T5:52:39Z</time></trkpt>
<trkpt lat="48.450859" lon="2.638368"><ele></ele><time>2024-6-8T5:52:42Z</time></trkpt>
<trkpt lat="48.450858" lon="2.638504"><ele></ele><time>2024-6-8T5:52:45Z</time></trkpt>
<trkpt lat="48.450854" lon="2.638686"><ele></ele><time>2024-6-8T5:52:48Z</time></trkpt>
<trkpt lat="48.450864" lon="2.638869"><ele></ele><time>2024-6-8T5:52:51Z</time></trkpt>
<trkpt lat="48.450886" lon="2.639056"><ele></ele><time>2024-6-8T5:52:54Z</time></trkpt>
<trkpt lat="48.450893" lon="2.639251"><ele></ele><time>2024-6-8T5:52:57Z</time></trkpt>
<trkpt lat="48.450886" lon="2.639389"><ele></ele><time>2024-6-8T5:53:0Z</time></trkpt>
<trkpt lat="48.45089" lon="2.63958"><ele></ele><time>2024-6-8T5:53:3Z</time></trkpt>
<trkpt lat="48.450949" lon="2.639743"><ele></ele><time>2024-6-8T5:53:6Z</time></trkpt>
<trkpt lat="48.451014" lon="2.639899"><ele></ele><time>2024-6-8T5:53:9Z</time></trkpt>
<trkpt lat="48.451063" lon="2.640051"><ele></ele><time>2024-6-8T5:53:12Z</time></trkpt>
<trkpt lat="48.451043" lon="2.640216"><ele></ele><time>2024-6-8T5:53:15Z</time></trkpt>
<trkpt lat="48.450984" lon="2.640407"><ele></ele><time>2024-6-8T5:53:18Z</time></trkpt>
<trkpt lat="48.45092" lon="2.640569"><ele></ele><time>2024-6-8T5:53:21Z</time></trkpt>
<trkpt lat="48.450865" lon="2.640701"><ele></ele><time>2024-6-8T5:53:24Z</time></trkpt>
<trkpt lat="48.450794" lon="2.640875"><ele></ele><time>2024-6-8T5:53:27Z</time></trkpt>
<trkpt lat="48.450723" lon="2.641018"><ele></ele><time>2024-6-8T5:53:30Z</time></trkpt>
<trkpt lat="48.450655" lon="2.641121"><ele></ele><time>2024-6-8T5:53:33Z</time></trkpt>
<trkpt lat="48.450595" lon="2.641228"><ele></ele><time>2024-6-8T5:53:36Z</time></trkpt>
<trkpt lat="48.450516" lon="2.641343"><ele></ele><time>2024-6-8T5:53:39Z</time></trkpt>
<trkpt lat="48.450424" lon="2.641449"><ele></ele><time>2024-6-8T5:53:42Z</time></trkpt>
<trkpt lat="48.450323" lon="2.641561"><ele></ele><time>2024-6-8T5:53:45Z</time></trkpt>
<trkpt lat="48.450261" lon="2.641673"><ele></ele><time>2024-6-8T5:53:48Z</time></trkpt>
<trkpt lat="48.45018" lon="2.641798"><ele></ele><time>2024-6-8T5:53:51Z</time></trkpt>
<trkpt lat="48.450108" lon="2.641913"><ele></ele><time>2024-6-8T5:53:54Z</time></trkpt>
<trkpt lat="48.450047" lon="2.642027"><ele></ele><time>2024-6-8T5:53:57Z</time></trkpt>
<trkpt lat="48.449968" lon="2.642137"><ele></ele><time>2024-6-8T5:54:0Z</time></trkpt>
<trkpt lat="48.449881" lon="2.642237"><ele></ele><time>2024-6-8T5:54:3Z</time></trkpt>
<trkpt lat="48.449802" lon="2.642324"><ele></ele><time>2024-6-8T5:54:6Z</time></trkpt>
<trkpt lat="48.449735" lon="2.642424"><ele></ele><time>2024-6-8T5:54:9Z</time></trkpt>
<trkpt lat="48.449661" lon="2.642554"><ele></ele><time>2024-6-8T5:54:12Z</time></trkpt>
<trkpt lat="48.449582" lon="2.642689"><ele></ele><time>2024-6-8T5:54:15Z</time></trkpt>
<trkpt lat="48.4495" lon="2.642796"><ele></ele><time>2024-6-8T5:54:18Z</time></trkpt>
<trkpt lat="48.449418" lon="2.642921"><ele></ele><time>2024-6-8T5:54:21Z</time></trkpt>
<trkpt lat="48.449346" lon="2.643073"><ele></ele><time>2024-6-8T5:54:24Z</time></trkpt>
<trkpt lat="48.449313" lon="2.643236"><ele></ele><time>2024-6-8T5:54:27Z</time></trkpt>
<trkpt lat="48.449324" lon="2.643399"><ele></ele><time>2024-6-8T5:54:30Z</time></trkpt>
<trkpt lat="48.449349" lon="2.643563"><ele></ele><time>2024-6-8T5:54:33Z</time></trkpt>
<trkpt lat="48.449424" lon="2.643715"><ele></ele><time>2024-6-8T5:54:36Z</time></trkpt>
<trkpt lat="48.449524" lon="2.643841"><ele></ele><time>2024-6-8T5:54:39Z</time></trkpt>
<trkpt lat="48.449597" lon="2.643986"><ele></ele><time>2024-6-8T5:54:42Z</time></trkpt>
<trkpt lat="48.449636" lon="2.644152"><ele></ele><time>2024-6-8T5:54:45Z</time></trkpt>
<trkpt lat="48.449616" lon="2.644311"><ele></ele><time>2024-6-8T5:54:48Z</time></trkpt>
<trkpt lat="48.449587" lon="2.644477"><ele></ele><time>2024-6-8T5:54:51Z</time></trkpt>
<trkpt lat="48.449576" lon="2.644666"><ele></ele><time>2024-6-8T5:54:54Z</time></trkpt>
<trkpt lat="48.449569" lon="2.644812"><ele></ele><time>2024-6-8T5:54:57Z</time></trkpt>
<trkpt lat="48.449572" lon="2.644949"><ele></ele><time>2024-6-8T5:55:0Z</time></trkpt>
<trkpt lat="48.44958" lon="2.64509"><ele></ele><time>2024-6-8T5:55:3Z</time></trkpt>
<trkpt lat="48.449595" lon="2.645287"><ele></ele><time>2024-6-8T5:55:6Z</time></trkpt>
<trkpt lat="48.449606" lon="2.645516"><ele></ele><time>2024-6-8T5:55:9Z</time></trkpt>
<trkpt lat="48.449602" lon="2.645652"><ele></ele><time>2024-6-8T5:55:12Z</time></trkpt>
<trkpt lat="48.449611" lon="2.645793"><ele></ele><time>2024-6-8T5:55:15Z</time></trkpt>
<trkpt lat="48.449605" lon="2.645979"><ele></ele><time>2024-6-8T5:55:18Z</time></trkpt>
<trkpt lat="48.44959" lon="2.646124"><ele></ele><time>2024-6-8T5:55:21Z</time></trkpt>
<trkpt lat="48.449593" lon="2.646262"><ele></ele><time>2024-6-8T5:55:24Z</time></trkpt>
<trkpt lat="48.449586" lon="2.646464"><ele></ele><time>2024-6-8T5:55:27Z</time></trkpt>
<trkpt lat="48.449588" lon="2.646604"><ele></ele><time>2024-6-8T5:55:30Z</time></trkpt>
<trkpt lat="48.449597" lon="2.646806"><ele></ele><time>2024-6-8T5:55:33Z</time></trkpt>
<trkpt lat="48.449598" lon="2.646958"><ele></ele><time>2024-6-8T5:55:36Z</time></trkpt>
<trkpt lat="48.449512" lon="2.647088"><ele></ele><time>2024-6-8T5:55:39Z</time></trkpt>
<trkpt lat="48.449407" lon="2.647091"><ele></ele><time>2024-6-8T5:55:42Z</time></trkpt>
<trkpt lat="48.449291" lon="2.647101"><ele></ele><time>2024-6-8T5:55:45Z</time></trkpt>
<trkpt lat="48.449179" lon="2.647178"><ele></ele><time>2024-6-8T5:55:48Z</time></trkpt>
<trkpt lat="48.449073" lon="2.647307"><ele></ele><time>2024-6-8T5:55:51Z</time></trkpt>
<trkpt lat="48.448982" lon="2.647439"><ele></ele><time>2024-6-8T5:55:54Z</time></trkpt>
<trkpt lat="48.448923" lon="2.647583"><ele></ele><time>2024-6-8T5:55:57Z</time></trkpt>
<trkpt lat="48.448879" lon="2.647739"><ele></ele><time>2024-6-8T5:56:0Z</time></trkpt>
<trkpt lat="48.44883" lon="2.647895"><ele></ele><time>2024-6-8T5:56:3Z</time></trkpt>
<trkpt lat="48.448767" lon="2.648059"><ele></ele><time>2024-6-8T5:56:6Z</time></trkpt>
<trkpt lat="48.448707" lon="2.648221"><ele></ele><time>2024-6-8T5:56:9Z</time></trkpt>
<trkpt lat="48.448656" lon="2.648386"><ele></ele><time>2024-6-8T5:56:12Z</time></trkpt>
<trkpt lat="48.448598" lon="2.648554"><ele></ele><time>2024-6-8T5:56:15Z</time></trkpt>
<trkpt lat="48.448515" lon="2.648732"><ele></ele><time>2024-6-8T5:56:18Z</time></trkpt>
<trkpt lat="48.448473" lon="2.648852"><ele></ele><time>2024-6-8T5:56:21Z</time></trkpt>
<trkpt lat="48.448425" lon="2.649031"><ele></ele><time>2024-6-8T5:56:24Z</time></trkpt>
<trkpt lat="48.448376" lon="2.649157"><ele></ele><time>2024-6-8T5:56:27Z</time></trkpt>
<trkpt lat="48.448328" lon="2.649281"><ele></ele><time>2024-6-8T5:56:30Z</time></trkpt>
<trkpt lat="48.448279" lon="2.649407"><ele></ele><time>2024-6-8T5:56:33Z</time></trkpt>
<trkpt lat="48.44823" lon="2.64959"><ele></ele><time>2024-6-8T5:56:36Z</time></trkpt>
<trkpt lat="48.448187" lon="2.649712"><ele></ele><time>2024-6-8T5:56:39Z</time></trkpt>
<trkpt lat="48.448134" lon="2.64983"><ele></ele><time>2024-6-8T5:56:42Z</time></trkpt>
<trkpt lat="48.448085" lon="2.649945"><ele></ele><time>2024-6-8T5:56:45Z</time></trkpt>
<trkpt lat="48.448014" lon="2.650112"><ele></ele><time>2024-6-8T5:56:48Z</time></trkpt>
<trkpt lat="48.447963" lon="2.650231"><ele></ele><time>2024-6-8T5:56:51Z</time></trkpt>
<trkpt lat="48.447918" lon="2.65035"><ele></ele><time>2024-6-8T5:56:54Z</time></trkpt>
<trkpt lat="48.447856" lon="2.650527"><ele></ele><time>2024-6-8T5:56:57Z</time></trkpt>
<trkpt lat="48.447809" lon="2.650695"><ele></ele><time>2024-6-8T5:57:0Z</time></trkpt>
<trkpt lat="48.447794" lon="2.650851"><ele></ele><time>2024-6-8T5:57:3Z</time></trkpt>
<trkpt lat="48.447816" lon="2.651047"><ele></ele><time>2024-6-8T5:57:6Z</time></trkpt>
<trkpt lat="48.447851" lon="2.651172"><ele></ele><time>2024-6-8T5:57:9Z</time></trkpt>
<trkpt lat="48.447887" lon="2.651308"><ele></ele><time>2024-6-8T5:57:12Z</time></trkpt>
<trkpt lat="48.447935" lon="2.651435"><ele></ele><time>2024-6-8T5:57:15Z</time></trkpt>
<trkpt lat="48.447988" lon="2.651552"><ele></ele><time>2024-6-8T5:57:18Z</time></trkpt>
<trkpt lat="48.448029" lon="2.651719"><ele></ele><time>2024-6-8T5:57:21Z</time></trkpt>
<trkpt lat="48.448099" lon="2.65189"><ele></ele><time>2024-6-8T5:57:24Z</time></trkpt>
<trkpt lat="48.448148" lon="2.652016"><ele></ele><time>2024-6-8T5:57:27Z</time></trkpt>
<trkpt lat="48.448192" lon="2.652143"><ele></ele><time>2024-6-8T5:57:30Z</time></trkpt>
<trkpt lat="48.448249" lon="2.652262"><ele></ele><time>2024-6-8T5:57:33Z</time></trkpt>
<trkpt lat="48.448309" lon="2.652398"><ele></ele><time>2024-6-8T5:57:36Z</time></trkpt>
<trkpt lat="48.448373" lon="2.652542"><ele></ele><time>2024-6-8T5:57:39Z</time></trkpt>
<trkpt lat="48.448414" lon="2.652669"><ele></ele><time>2024-6-8T5:57:42Z</time></trkpt>
<trkpt lat="48.448479" lon="2.65278"><ele></ele><time>2024-6-8T5:57:45Z</time></trkpt>
<trkpt lat="48.448555" lon="2.652862"><ele></ele><time>2024-6-8T5:57:48Z</time></trkpt>
<trkpt lat="48.448658" lon="2.652982"><ele></ele><time>2024-6-8T5:57:51Z</time></trkpt>
<trkpt lat="48.448715" lon="2.653096"><ele></ele><time>2024-6-8T5:57:54Z</time></trkpt>
<trkpt lat="48.448792" lon="2.653256"><ele></ele><time>2024-6-8T5:57:57Z</time></trkpt>
<trkpt lat="48.448888" lon="2.653386"><ele></ele><time>2024-6-8T5:58:0Z</time></trkpt>
<trkpt lat="48.44896" lon="2.653565"><ele></ele><time>2024-6-8T5:58:3Z</time></trkpt>
<trkpt lat="48.448988" lon="2.653707"><ele></ele><time>2024-6-8T5:58:6Z</time></trkpt>
<trkpt lat="48.449032" lon="2.653835"><ele></ele><time>2024-6-8T5:58:9Z</time></trkpt>
<trkpt lat="48.449037" lon="2.653989"><ele></ele><time>2024-6-8T5:58:12Z</time></trkpt>
<trkpt lat="48.449005" lon="2.654166"><ele></ele><time>2024-6-8T5:58:15Z</time></trkpt>
<trkpt lat="48.448984" lon="2.654364"><ele></ele><time>2024-6-8T5:58:18Z</time></trkpt>
<trkpt lat="48.448933" lon="2.654528"><ele></ele><time>2024-6-8T5:58:21Z</time></trkpt>
<trkpt lat="48.448899" lon="2.654676"><ele></ele><time>2024-6-8T5:58:24Z</time></trkpt>
<trkpt lat="48.448853" lon="2.654814"><ele></ele><time>2024-6-8T5:58:27Z</time></trkpt>
<trkpt lat="48.448804" lon="2.654963"><ele></ele><time>2024-6-8T5:58:30Z</time></trkpt>
<trkpt lat="48.448777" lon="2.655095"><ele></ele><time>2024-6-8T5:58:33Z</time></trkpt>
<trkpt lat="48.44876" lon="2.655237"><ele></ele><time>2024-6-8T5:58:36Z</time></trkpt>
<trkpt lat="48.448721" lon="2.655411"><ele></ele><time>2024-6-8T5:58:39Z</time></trkpt>
<trkpt lat="48.448666" lon="2.655591"><ele></ele><time>2024-6-8T5:58:42Z</time></trkpt>
<trkpt lat="48.448597" lon="2.655755"><ele></ele><time>2024-6-8T5:58:45Z</time></trkpt>
<trkpt lat="48.44855" lon="2.655875"><ele></ele><time>2024-6-8T5:58:48Z</time></trkpt>
<trkpt lat="48.448515" lon="2.656001"><ele></ele><time>2024-6-8T5:58:51Z</time></trkpt>
<trkpt lat="48.448464" lon="2.656178"><ele></ele><time>2024-6-8T5:58:54Z</time></trkpt>
<trkpt lat="48.448424" lon="2.656369"><ele></ele><time>2024-6-8T5:58:57Z</time></trkpt>
<trkpt lat="48.448388" lon="2.656494"><ele></ele><time>2024-6-8T5:59:0Z</time></trkpt>
<trkpt lat="48.448331" lon="2.656676"><ele></ele><time>2024-6-8T5:59:3Z</time></trkpt>
<trkpt lat="48.448302" lon="2.65682"><ele></ele><time>2024-6-8T5:59:6Z</time></trkpt>
<trkpt lat="48.448263" lon="2.656948"><ele></ele><time>2024-6-8T5:59:9Z</time></trkpt>
<trkpt lat="48.44822" lon="2.657089"><ele></ele><time>2024-6-8T5:59:12Z</time></trkpt>
<trkpt lat="48.448172" lon="2.657261"><ele></ele><time>2024-6-8T5:59:15Z</time></trkpt>
<trkpt lat="48.448129" lon="2.65744"><ele></ele><time>2024-6-8T5:59:18Z</time></trkpt>
<trkpt lat="48.448108" lon="2.657575"><ele></ele><time>2024-6-8T5:59:21Z</time></trkpt>
<trkpt lat="48.448067" lon="2.657745"><ele></ele><time>2024-6-8T5:59:24Z</time></trkpt>
<trkpt lat="48.447996" lon="2.657916"><ele></ele><time>2024-6-8T5:59:27Z</time></trkpt>
<trkpt lat="48.447965" lon="2.658052"><ele></ele><time>2024-6-8T5:59:30Z</time></trkpt>
<trkpt lat="48.447929" lon="2.65821"><ele></ele><time>2024-6-8T5:59:33Z</time></trkpt>
<trkpt lat="48.447888" lon="2.658367"><ele></ele><time>2024-6-8T5:59:36Z</time></trkpt>
<trkpt lat="48.447842" lon="2.658516"><ele></ele><time>2024-6-8T5:59:39Z</time></trkpt>
<trkpt lat="48.447829" lon="2.65865"><ele></ele><time>2024-6-8T5:59:42Z</time></trkpt>
<trkpt lat="48.447777" lon="2.65882"><ele></ele><time>2024-6-8T5:59:45Z</time></trkpt>
<trkpt lat="48.447744" lon="2.658964"><ele></ele><time>2024-6-8T5:59:48Z</time></trkpt>
<trkpt lat="48.447704" lon="2.659089"><ele></ele><time>2024-6-8T5:59:51Z</time></trkpt>
<trkpt lat="48.447663" lon="2.659219"><ele></ele><time>2024-6-8T5:59:54Z</time></trkpt>
<trkpt lat="48.447603" lon="2.659349"><ele></ele><time>2024-6-8T5:59:57Z</time></trkpt>
<trkpt lat="48.447572" lon="2.659488"><ele></ele><time>2024-6-8T6:0:0Z</time></trkpt>
<trkpt lat="48.447522" lon="2.65967"><ele></ele><time>2024-6-8T6:0:3Z</time></trkpt>
<trkpt lat="48.44748" lon="2.659821"><ele></ele><time>2024-6-8T6:0:6Z</time></trkpt>
<trkpt lat="48.447434" lon="2.659964"><ele></ele><time>2024-6-8T6:0:9Z</time></trkpt>
<trkpt lat="48.447387" lon="2.660114"><ele></ele><time>2024-6-8T6:0:12Z</time></trkpt>
<trkpt lat="48.447347" lon="2.660248"><ele></ele><time>2024-6-8T6:0:15Z</time></trkpt>
<trkpt lat="48.447301" lon="2.660378"><ele></ele><time>2024-6-8T6:0:18Z</time></trkpt>
<trkpt lat="48.447224" lon="2.660487"><ele></ele><time>2024-6-8T6:0:21Z</time></trkpt>
<trkpt lat="48.44712" lon="2.660563"><ele></ele><time>2024-6-8T6:0:24Z</time></trkpt>
<trkpt lat="48.447009" lon="2.660623"><ele></ele><time>2024-6-8T6:0:27Z</time></trkpt>
<trkpt lat="48.446897" lon="2.660689"><ele></ele><time>2024-6-8T6:0:30Z</time></trkpt>
<trkpt lat="48.446793" lon="2.66075"><ele></ele><time>2024-6-8T6:0:33Z</time></trkpt>
<trkpt lat="48.44671" lon="2.66081"><ele></ele><time>2024-6-8T6:0:36Z</time></trkpt>
<trkpt lat="48.446629" lon="2.660881"><ele></ele><time>2024-6-8T6:0:39Z</time></trkpt>
<trkpt lat="48.446531" lon="2.660936"><ele></ele><time>2024-6-8T6:0:42Z</time></trkpt>
<trkpt lat="48.446417" lon="2.660979"><ele></ele><time>2024-6-8T6:0:45Z</time></trkpt>
<trkpt lat="48.4463" lon="2.661021"><ele></ele><time>2024-6-8T6:0:48Z</time></trkpt>
<trkpt lat="48.446187" lon="2.661093"><ele></ele><time>2024-6-8T6:0:51Z</time></trkpt>
<trkpt lat="48.446097" lon="2.661151"><ele></ele><time>2024-6-8T6:0:54Z</time></trkpt>
<trkpt lat="48.445981" lon="2.661238"><ele></ele><time>2024-6-8T6:0:57Z</time></trkpt>
<trkpt lat="48.44589" lon="2.661317"><ele></ele><time>2024-6-8T6:1:0Z</time></trkpt>
<trkpt lat="48.445803" lon="2.661368"><ele></ele><time>2024-6-8T6:1:3Z</time></trkpt>
<trkpt lat="48.445684" lon="2.661418"><ele></ele><time>2024-6-8T6:1:6Z</time></trkpt>
<trkpt lat="48.445577" lon="2.66147"><ele></ele><time>2024-6-8T6:1:9Z</time></trkpt>
<trkpt lat="48.445472" lon="2.661546"><ele></ele><time>2024-6-8T6:1:12Z</time></trkpt>
<trkpt lat="48.445348" lon="2.66161"><ele></ele><time>2024-6-8T6:1:15Z</time></trkpt>
<trkpt lat="48.445254" lon="2.661672"><ele></ele><time>2024-6-8T6:1:18Z</time></trkpt>
<trkpt lat="48.445158" lon="2.66176"><ele></ele><time>2024-6-8T6:1:21Z</time></trkpt>
<trkpt lat="48.445059" lon="2.661793"><ele></ele><time>2024-6-8T6:1:24Z</time></trkpt>
<trkpt lat="48.44496" lon="2.661825"><ele></ele><time>2024-6-8T6:1:27Z</time></trkpt>
<trkpt lat="48.444865" lon="2.661869"><ele></ele><time>2024-6-8T6:1:30Z</time></trkpt>
<trkpt lat="48.444771" lon="2.661952"><ele></ele><time>2024-6-8T6:1:33Z</time></trkpt>
<trkpt lat="48.444697" lon="2.662031"><ele></ele><time>2024-6-8T6:1:36Z</time></trkpt>
<trkpt lat="48.444609" lon="2.662129"><ele></ele><time>2024-6-8T6:1:39Z</time></trkpt>
<trkpt lat="48.444546" lon="2.662275"><ele></ele><time>2024-6-8T6:1:42Z</time></trkpt>
<trkpt lat="48.444496" lon="2.662393"><ele></ele><time>2024-6-8T6:1:45Z</time></trkpt>
<trkpt lat="48.444437" lon="2.662537"><ele></ele><time>2024-6-8T6:1:48Z</time></trkpt>
<trkpt lat="48.444388" lon="2.662652"><ele></ele><time>2024-6-8T6:1:51Z</time></trkpt>
<trkpt lat="48.444309" lon="2.662768"><ele></ele><time>2024-6-8T6:1:54Z</time></trkpt>
<trkpt lat="48.444236" lon="2.662889"><ele></ele><time>2024-6-8T6:1:57Z</time></trkpt>
<trkpt lat="48.444179" lon="2.663017"><ele></ele><time>2024-6-8T6:2:0Z</time></trkpt>
<trkpt lat="48.444106" lon="2.663146"><ele></ele><time>2024-6-8T6:2:3Z</time></trkpt>
<trkpt lat="48.444037" lon="2.663249"><ele></ele><time>2024-6-8T6:2:6Z</time></trkpt>
<trkpt lat="48.443996" lon="2.663377"><ele></ele><time>2024-6-8T6:2:9Z</time></trkpt>
<trkpt lat="48.443982" lon="2.663549"><ele></ele><time>2024-6-8T6:2:12Z</time></trkpt>
<trkpt lat="48.443987" lon="2.663648"><ele></ele><time>2024-6-8T6:2:15Z</time></trkpt>
<trkpt lat="48.443986" lon="2.663649"><ele></ele><time>2024-6-8T6:2:18Z</time></trkpt>
<trkpt lat="48.44399" lon="2.663664"><ele></ele><time>2024-6-8T6:2:21Z</time></trkpt>
<trkpt lat="48.443985" lon="2.663675"><ele></ele><time>2024-6-8T6:2:24Z</time></trkpt>
<trkpt lat="48.443982" lon="2.663686"><ele></ele><time>2024-6-8T6:2:27Z</time></trkpt>
<trkpt lat="48.443972" lon="2.663843"><ele></ele><time>2024-6-8T6:2:30Z</time></trkpt>
<trkpt lat="48.444009" lon="2.663996"><ele></ele><time>2024-6-8T6:2:33Z</time></trkpt>
<trkpt lat="48.444085" lon="2.664072"><ele></ele><time>2024-6-8T6:2:36Z</time></trkpt>
<trkpt lat="48.44415" lon="2.664177"><ele></ele><time>2024-6-8T6:2:39Z</time></trkpt>
<trkpt lat="48.444219" lon="2.664082"><ele></ele><time>2024-6-8T6:2:42Z</time></trkpt>
<trkpt lat="48.444295" lon="2.663972"><ele></ele><time>2024-6-8T6:2:45Z</time></trkpt>
<trkpt lat="48.444365" lon="2.663843"><ele></ele><time>2024-6-8T6:2:48Z</time></trkpt>
<trkpt lat="48.444418" lon="2.663703"><ele></ele><time>2024-6-8T6:2:51Z</time></trkpt>
<trkpt lat="48.444449" lon="2.663554"><ele></ele><time>2024-6-8T6:2:54Z</time></trkpt>
<trkpt lat="48.444501" lon="2.66344"><ele></ele><time>2024-6-8T6:2:57Z</time></trkpt>
<trkpt lat="48.444553" lon="2.663314"><ele></ele><time>2024-6-8T6:3:0Z</time></trkpt>
<trkpt lat="48.444595" lon="2.663183"><ele></ele><time>2024-6-8T6:3:3Z</time></trkpt>
<trkpt lat="48.444663" lon="2.663037"><ele></ele><time>2024-6-8T6:3:6Z</time></trkpt>
<trkpt lat="48.44472" lon="2.66291"><ele></ele><time>2024-6-8T6:3:9Z</time></trkpt>
<trkpt lat="48.444773" lon="2.662777"><ele></ele><time>2024-6-8T6:3:12Z</time></trkpt>
<trkpt lat="48.444826" lon="2.662642"><ele></ele><time>2024-6-8T6:3:15Z</time></trkpt>
<trkpt lat="48.444887" lon="2.662515"><ele></ele><time>2024-6-8T6:3:18Z</time></trkpt>
<trkpt lat="48.444949" lon="2.662375"><ele></ele><time>2024-6-8T6:3:21Z</time></trkpt>
<trkpt lat="48.445003" lon="2.662229"><ele></ele><time>2024-6-8T6:3:24Z</time></trkpt>
<trkpt lat="48.445064" lon="2.662099"><ele></ele><time>2024-6-8T6:3:27Z</time></trkpt>
<trkpt lat="48.445127" lon="2.661969"><ele></ele><time>2024-6-8T6:3:30Z</time></trkpt>
<trkpt lat="48.445183" lon="2.661826"><ele></ele><time>2024-6-8T6:3:33Z</time></trkpt>
<trkpt lat="48.445224" lon="2.661688"><ele></ele><time>2024-6-8T6:3:36Z</time></trkpt>
<trkpt lat="48.445272" lon="2.661549"><ele></ele><time>2024-6-8T6:3:39Z</time></trkpt>
<trkpt lat="48.445328" lon="2.661379"><ele></ele><time>2024-6-8T6:3:42Z</time></trkpt>
<trkpt lat="48.445393" lon="2.661205"><ele></ele><time>2024-6-8T6:3:45Z</time></trkpt>
<trkpt lat="48.445462" lon="2.661057"><ele></ele><time>2024-6-8T6:3:48Z</time></trkpt>
<trkpt lat="48.445526" lon="2.660897"><ele></ele><time>2024-6-8T6:3:51Z</time></trkpt>
<trkpt lat="48.445596" lon="2.660761"><ele></ele><time>2024-6-8T6:3:54Z</time></trkpt>
<trkpt lat="48.445662" lon="2.6606"><ele></ele><time>2024-6-8T6:3:57Z</time></trkpt>
<trkpt lat="48.44572" lon="2.660419"><ele></ele><time>2024-6-8T6:4:0Z</time></trkpt>
<trkpt lat="48.445763" lon="2.660299"><ele></ele><time>2024-6-8T6:4:3Z</time></trkpt>
<trkpt lat="48.445818" lon="2.66017"><ele></ele><time>2024-6-8T6:4:6Z</time></trkpt>
<trkpt lat="48.445893" lon="2.659998"><ele></ele><time>2024-6-8T6:4:9Z</time></trkpt>
<trkpt lat="48.445978" lon="2.659852"><ele></ele><time>2024-6-8T6:4:12Z</time></trkpt>
<trkpt lat="48.446044" lon="2.659694"><ele></ele><time>2024-6-8T6:4:15Z</time></trkpt>
<trkpt lat="48.446118" lon="2.659559"><ele></ele><time>2024-6-8T6:4:18Z</time></trkpt>
<trkpt lat="48.446194" lon="2.659439"><ele></ele><time>2024-6-8T6:4:21Z</time></trkpt>
<trkpt lat="48.446261" lon="2.659289"><ele></ele><time>2024-6-8T6:4:24Z</time></trkpt>
<trkpt lat="48.446303" lon="2.659147"><ele></ele><time>2024-6-8T6:4:27Z</time></trkpt>
<trkpt lat="48.446355" lon="2.659022"><ele></ele><time>2024-6-8T6:4:30Z</time></trkpt>
<trkpt lat="48.446405" lon="2.658883"><ele></ele><time>2024-6-8T6:4:33Z</time></trkpt>
<trkpt lat="48.446471" lon="2.658715"><ele></ele><time>2024-6-8T6:4:36Z</time></trkpt>
<trkpt lat="48.44652" lon="2.658568"><ele></ele><time>2024-6-8T6:4:39Z</time></trkpt>
<trkpt lat="48.446584" lon="2.658437"><ele></ele><time>2024-6-8T6:4:42Z</time></trkpt>
<trkpt lat="48.446633" lon="2.65826"><ele></ele><time>2024-6-8T6:4:45Z</time></trkpt>
<trkpt lat="48.446667" lon="2.658066"><ele></ele><time>2024-6-8T6:4:48Z</time></trkpt>
<trkpt lat="48.446715" lon="2.657866"><ele></ele><time>2024-6-8T6:4:51Z</time></trkpt>
<trkpt lat="48.446751" lon="2.657675"><ele></ele><time>2024-6-8T6:4:54Z</time></trkpt>
<trkpt lat="48.446778" lon="2.657471"><ele></ele><time>2024-6-8T6:4:57Z</time></trkpt>
<trkpt lat="48.446804" lon="2.657281"><ele></ele><time>2024-6-8T6:5:0Z</time></trkpt>
<trkpt lat="48.446817" lon="2.65709"><ele></ele><time>2024-6-8T6:5:3Z</time></trkpt>
<trkpt lat="48.446873" lon="2.656926"><ele></ele><time>2024-6-8T6:5:6Z</time></trkpt>
<trkpt lat="48.446893" lon="2.656762"><ele></ele><time>2024-6-8T6:5:9Z</time></trkpt>
<trkpt lat="48.446922" lon="2.656592"><ele></ele><time>2024-6-8T6:5:12Z</time></trkpt>
<trkpt lat="48.446955" lon="2.656453"><ele></ele><time>2024-6-8T6:5:15Z</time></trkpt>
<trkpt lat="48.44699" lon="2.656295"><ele></ele><time>2024-6-8T6:5:18Z</time></trkpt>
<trkpt lat="48.44703" lon="2.656094"><ele></ele><time>2024-6-8T6:5:21Z</time></trkpt>
<trkpt lat="48.447052" lon="2.655938"><ele></ele><time>2024-6-8T6:5:24Z</time></trkpt>
<trkpt lat="48.447098" lon="2.655741"><ele></ele><time>2024-6-8T6:5:27Z</time></trkpt>
<trkpt lat="48.447132" lon="2.655582"><ele></ele><time>2024-6-8T6:5:30Z</time></trkpt>
<trkpt lat="48.447176" lon="2.655385"><ele></ele><time>2024-6-8T6:5:33Z</time></trkpt>
<trkpt lat="48.447212" lon="2.655215"><ele></ele><time>2024-6-8T6:5:36Z</time></trkpt>
<trkpt lat="48.447239" lon="2.655066"><ele></ele><time>2024-6-8T6:5:39Z</time></trkpt>
<trkpt lat="48.447247" lon="2.654911"><ele></ele><time>2024-6-8T6:5:42Z</time></trkpt>
<trkpt lat="48.447261" lon="2.654772"><ele></ele><time>2024-6-8T6:5:45Z</time></trkpt>
<trkpt lat="48.44729" lon="2.654627"><ele></ele><time>2024-6-8T6:5:48Z</time></trkpt>
<trkpt lat="48.44733" lon="2.654502"><ele></ele><time>2024-6-8T6:5:51Z</time></trkpt>
<trkpt lat="48.447317" lon="2.654367"><ele></ele><time>2024-6-8T6:5:54Z</time></trkpt>
<trkpt lat="48.447233" lon="2.654279"><ele></ele><time>2024-6-8T6:5:57Z</time></trkpt>
<trkpt lat="48.447137" lon="2.65417"><ele></ele><time>2024-6-8T6:6:0Z</time></trkpt>
<trkpt lat="48.447029" lon="2.654063"><ele></ele><time>2024-6-8T6:6:3Z</time></trkpt>
<trkpt lat="48.446942" lon="2.653963"><ele></ele><time>2024-6-8T6:6:6Z</time></trkpt>
<trkpt lat="48.446843" lon="2.653844"><ele></ele><time>2024-6-8T6:6:9Z</time></trkpt>
<trkpt lat="48.4467" lon="2.653727"><ele></ele><time>2024-6-8T6:6:12Z</time></trkpt>
<trkpt lat="48.446585" lon="2.65362"><ele></ele><time>2024-6-8T6:6:15Z</time></trkpt>
<trkpt lat="48.446496" lon="2.653524"><ele></ele><time>2024-6-8T6:6:18Z</time></trkpt>
<trkpt lat="48.446388" lon="2.653452"><ele></ele><time>2024-6-8T6:6:21Z</time></trkpt>
<trkpt lat="48.446274" lon="2.653357"><ele></ele><time>2024-6-8T6:6:24Z</time></trkpt>
<trkpt lat="48.44619" lon="2.653301"><ele></ele><time>2024-6-8T6:6:27Z</time></trkpt>
<trkpt lat="48.446097" lon="2.653217"><ele></ele><time>2024-6-8T6:6:30Z</time></trkpt>
<trkpt lat="48.446007" lon="2.65319"><ele></ele><time>2024-6-8T6:6:33Z</time></trkpt>
<trkpt lat="48.445915" lon="2.653168"><ele></ele><time>2024-6-8T6:6:36Z</time></trkpt>
<trkpt lat="48.445844" lon="2.653057"><ele></ele><time>2024-6-8T6:6:39Z</time></trkpt>
<trkpt lat="48.445754" lon="2.653007"><ele></ele><time>2024-6-8T6:6:42Z</time></trkpt>
<trkpt lat="48.445668" lon="2.653053"><ele></ele><time>2024-6-8T6:6:45Z</time></trkpt>
<trkpt lat="48.445579" lon="2.653077"><ele></ele><time>2024-6-8T6:6:48Z</time></trkpt>
<trkpt lat="48.445488" lon="2.653044"><ele></ele><time>2024-6-8T6:6:51Z</time></trkpt>
<trkpt lat="48.445392" lon="2.653004"><ele></ele><time>2024-6-8T6:6:54Z</time></trkpt>
<trkpt lat="48.445288" lon="2.652999"><ele></ele><time>2024-6-8T6:6:57Z</time></trkpt>
<trkpt lat="48.445183" lon="2.652994"><ele></ele><time>2024-6-8T6:7:0Z</time></trkpt>
<trkpt lat="48.445089" lon="2.653023"><ele></ele><time>2024-6-8T6:7:3Z</time></trkpt>
<trkpt lat="48.445001" lon="2.653054"><ele></ele><time>2024-6-8T6:7:6Z</time></trkpt>
<trkpt lat="48.444903" lon="2.653049"><ele></ele><time>2024-6-8T6:7:9Z</time></trkpt>
<trkpt lat="48.444807" lon="2.652977"><ele></ele><time>2024-6-8T6:7:12Z</time></trkpt>
<trkpt lat="48.444713" lon="2.652884"><ele></ele><time>2024-6-8T6:7:15Z</time></trkpt>
<trkpt lat="48.444671" lon="2.652706"><ele></ele><time>2024-6-8T6:7:18Z</time></trkpt>
<trkpt lat="48.444604" lon="2.652553"><ele></ele><time>2024-6-8T6:7:21Z</time></trkpt>
<trkpt lat="48.444518" lon="2.652437"><ele></ele><time>2024-6-8T6:7:24Z</time></trkpt>
<trkpt lat="48.444404" lon="2.652353"><ele></ele><time>2024-6-8T6:7:27Z</time></trkpt>
<trkpt lat="48.444334" lon="2.652247"><ele></ele><time>2024-6-8T6:7:30Z</time></trkpt>
<trkpt lat="48.444268" lon="2.652135"><ele></ele><time>2024-6-8T6:7:33Z</time></trkpt>
<trkpt lat="48.444157" lon="2.652048"><ele></ele><time>2024-6-8T6:7:36Z</time></trkpt>
<trkpt lat="48.444055" lon="2.651988"><ele></ele><time>2024-6-8T6:7:39Z</time></trkpt>
<trkpt lat="48.443973" lon="2.651922"><ele></ele><time>2024-6-8T6:7:42Z</time></trkpt>
<trkpt lat="48.443862" lon="2.651862"><ele></ele><time>2024-6-8T6:7:45Z</time></trkpt>
<trkpt lat="48.443764" lon="2.651839"><ele></ele><time>2024-6-8T6:7:48Z</time></trkpt>
<trkpt lat="48.443709" lon="2.651989"><ele></ele><time>2024-6-8T6:7:51Z</time></trkpt>
<trkpt lat="48.443665" lon="2.65215"><ele></ele><time>2024-6-8T6:7:54Z</time></trkpt>
<trkpt lat="48.443634" lon="2.652305"><ele></ele><time>2024-6-8T6:7:57Z</time></trkpt>
<trkpt lat="48.443613" lon="2.652438"><ele></ele><time>2024-6-8T6:8:0Z</time></trkpt>
<trkpt lat="48.443593" lon="2.652598"><ele></ele><time>2024-6-8T6:8:3Z</time></trkpt>
<trkpt lat="48.443544" lon="2.652758"><ele></ele><time>2024-6-8T6:8:6Z</time></trkpt>
<trkpt lat="48.443492" lon="2.652886"><ele></ele><time>2024-6-8T6:8:9Z</time></trkpt>
<trkpt lat="48.443453" lon="2.653017"><ele></ele><time>2024-6-8T6:8:12Z</time></trkpt>
<trkpt lat="48.443462" lon="2.653188"><ele></ele><time>2024-6-8T6:8:15Z</time></trkpt>
<trkpt lat="48.443451" lon="2.653371"><ele></ele><time>2024-6-8T6:8:18Z</time></trkpt>
<trkpt lat="48.443427" lon="2.653508"><ele></ele><time>2024-6-8T6:8:21Z</time></trkpt>
<trkpt lat="48.44339" lon="2.653661"><ele></ele><time>2024-6-8T6:8:24Z</time></trkpt>
<trkpt lat="48.443376" lon="2.6538"><ele></ele><time>2024-6-8T6:8:27Z</time></trkpt>
<trkpt lat="48.443358" lon="2.653943"><ele></ele><time>2024-6-8T6:8:30Z</time></trkpt>
<trkpt lat="48.443341" lon="2.65408"><ele></ele><time>2024-6-8T6:8:33Z</time></trkpt>
<trkpt lat="48.443314" lon="2.654216"><ele></ele><time>2024-6-8T6:8:36Z</time></trkpt>
<trkpt lat="48.443287" lon="2.654353"><ele></ele><time>2024-6-8T6:8:39Z</time></trkpt>
<trkpt lat="48.443279" lon="2.65449"><ele></ele><time>2024-6-8T6:8:42Z</time></trkpt>
<trkpt lat="48.443264" lon="2.654636"><ele></ele><time>2024-6-8T6:8:45Z</time></trkpt>
<trkpt lat="48.443228" lon="2.654791"><ele></ele><time>2024-6-8T6:8:48Z</time></trkpt>
<trkpt lat="48.443198" lon="2.654952"><ele></ele><time>2024-6-8T6:8:51Z</time></trkpt>
<trkpt lat="48.443165" lon="2.655094"><ele></ele><time>2024-6-8T6:8:54Z</time></trkpt>
<trkpt lat="48.443134" lon="2.655249"><ele></ele><time>2024-6-8T6:8:57Z</time></trkpt>
<trkpt lat="48.443098" lon="2.655413"><ele></ele><time>2024-6-8T6:9:0Z</time></trkpt>
<trkpt lat="48.443061" lon="2.655543"><ele></ele><time>2024-6-8T6:9:3Z</time></trkpt>
<trkpt lat="48.442994" lon="2.655641"><ele></ele><time>2024-6-8T6:9:6Z</time></trkpt>
<trkpt lat="48.443003" lon="2.655785"><ele></ele><time>2024-6-8T6:9:9Z</time></trkpt>
<trkpt lat="48.442989" lon="2.655932"><ele></ele><time>2024-6-8T6:9:12Z</time></trkpt>
<trkpt lat="48.442941" lon="2.656049"><ele></ele><time>2024-6-8T6:9:15Z</time></trkpt>
<trkpt lat="48.442919" lon="2.656201"><ele></ele><time>2024-6-8T6:9:18Z</time></trkpt>
<trkpt lat="48.442902" lon="2.656356"><ele></ele><time>2024-6-8T6:9:21Z</time></trkpt>
<trkpt lat="48.442864" lon="2.656491"><ele></ele><time>2024-6-8T6:9:24Z</time></trkpt>
<trkpt lat="48.442823" lon="2.656626"><ele></ele><time>2024-6-8T6:9:27Z</time></trkpt>
<trkpt lat="48.442787" lon="2.656796"><ele></ele><time>2024-6-8T6:9:30Z</time></trkpt>
<trkpt lat="48.442758" lon="2.656939"><ele></ele><time>2024-6-8T6:9:33Z</time></trkpt>
<trkpt lat="48.442703" lon="2.657094"><ele></ele><time>2024-6-8T6:9:36Z</time></trkpt>
<trkpt lat="48.442663" lon="2.657257"><ele></ele><time>2024-6-8T6:9:39Z</time></trkpt>
<trkpt lat="48.44262" lon="2.657389"><ele></ele><time>2024-6-8T6:9:42Z</time></trkpt>
<trkpt lat="48.442582" lon="2.657518"><ele></ele><time>2024-6-8T6:9:45Z</time></trkpt>
<trkpt lat="48.442533" lon="2.65766"><ele></ele><time>2024-6-8T6:9:48Z</time></trkpt>
<trkpt lat="48.442498" lon="2.657823"><ele></ele><time>2024-6-8T6:9:51Z</time></trkpt>
<trkpt lat="48.442467" lon="2.657973"><ele></ele><time>2024-6-8T6:9:54Z</time></trkpt>
<trkpt lat="48.442447" lon="2.658108"><ele></ele><time>2024-6-8T6:9:57Z</time></trkpt>
<trkpt lat="48.442407" lon="2.658266"><ele></ele><time>2024-6-8T6:10:0Z</time></trkpt>
<trkpt lat="48.442366" lon="2.658419"><ele></ele><time>2024-6-8T6:10:3Z</time></trkpt>
<trkpt lat="48.442313" lon="2.658539"><ele></ele><time>2024-6-8T6:10:6Z</time></trkpt>
<trkpt lat="48.442269" lon="2.658666"><ele></ele><time>2024-6-8T6:10:9Z</time></trkpt>
<trkpt lat="48.442215" lon="2.658808"><ele></ele><time>2024-6-8T6:10:12Z</time></trkpt>
<trkpt lat="48.442179" lon="2.658937"><ele></ele><time>2024-6-8T6:10:15Z</time></trkpt>
<trkpt lat="48.442152" lon="2.659085"><ele></ele><time>2024-6-8T6:10:18Z</time></trkpt>
<trkpt lat="48.442124" lon="2.659216"><ele></ele><time>2024-6-8T6:10:21Z</time></trkpt>
<trkpt lat="48.44209" lon="2.659375"><ele></ele><time>2024-6-8T6:10:24Z</time></trkpt>
<trkpt lat="48.442065" lon="2.659549"><ele></ele><time>2024-6-8T6:10:27Z</time></trkpt>
<trkpt lat="48.44205" lon="2.659682"><ele></ele><time>2024-6-8T6:10:30Z</time></trkpt>
<trkpt lat="48.442064" lon="2.659832"><ele></ele><time>2024-6-8T6:10:33Z</time></trkpt>
<trkpt lat="48.442066" lon="2.659973"><ele></ele><time>2024-6-8T6:10:36Z</time></trkpt>
<trkpt lat="48.442075" lon="2.660145"><ele></ele><time>2024-6-8T6:10:39Z</time></trkpt>
<trkpt lat="48.442072" lon="2.660298"><ele></ele><time>2024-6-8T6:10:42Z</time></trkpt>
<trkpt lat="48.442062" lon="2.660458"><ele></ele><time>2024-6-8T6:10:45Z</time></trkpt>
<trkpt lat="48.442034" lon="2.660605"><ele></ele><time>2024-6-8T6:10:48Z</time></trkpt>
<trkpt lat="48.441998" lon="2.660745"><ele></ele><time>2024-6-8T6:10:51Z</time></trkpt>
<trkpt lat="48.441987" lon="2.66088"><ele></ele><time>2024-6-8T6:10:54Z</time></trkpt>
<trkpt lat="48.441977" lon="2.66102"><ele></ele><time>2024-6-8T6:10:57Z</time></trkpt>
<trkpt lat="48.44195" lon="2.661168"><ele></ele><time>2024-6-8T6:11:0Z</time></trkpt>
<trkpt lat="48.441924" lon="2.661324"><ele></ele><time>2024-6-8T6:11:3Z</time></trkpt>
<trkpt lat="48.441897" lon="2.661455"><ele></ele><time>2024-6-8T6:11:6Z</time></trkpt>
<trkpt lat="48.441879" lon="2.6616"><ele></ele><time>2024-6-8T6:11:9Z</time></trkpt>
<trkpt lat="48.441874" lon="2.66174"><ele></ele><time>2024-6-8T6:11:12Z</time></trkpt>
<trkpt lat="48.441871" lon="2.661886"><ele></ele><time>2024-6-8T6:11:15Z</time></trkpt>
<trkpt lat="48.441864" lon="2.662044"><ele></ele><time>2024-6-8T6:11:18Z</time></trkpt>
<trkpt lat="48.441857" lon="2.66219"><ele></ele><time>2024-6-8T6:11:21Z</time></trkpt>
<trkpt lat="48.441835" lon="2.662322"><ele></ele><time>2024-6-8T6:11:24Z</time></trkpt>
<trkpt lat="48.441801" lon="2.662457"><ele></ele><time>2024-6-8T6:11:27Z</time></trkpt>
<trkpt lat="48.441781" lon="2.662614"><ele></ele><time>2024-6-8T6:11:30Z</time></trkpt>
<trkpt lat="48.441771" lon="2.662787"><ele></ele><time>2024-6-8T6:11:33Z</time></trkpt>
<trkpt lat="48.441758" lon="2.662944"><ele></ele><time>2024-6-8T6:11:36Z</time></trkpt>
<trkpt lat="48.441731" lon="2.663111"><ele></ele><time>2024-6-8T6:11:39Z</time></trkpt>
<trkpt lat="48.441714" lon="2.663279"><ele></ele><time>2024-6-8T6:11:42Z</time></trkpt>
<trkpt lat="48.441696" lon="2.66342"><ele></ele><time>2024-6-8T6:11:45Z</time></trkpt>
<trkpt lat="48.441692" lon="2.66358"><ele></ele><time>2024-6-8T6:11:48Z</time></trkpt>
<trkpt lat="48.441694" lon="2.663716"><ele></ele><time>2024-6-8T6:11:51Z</time></trkpt>
<trkpt lat="48.441688" lon="2.663861"><ele></ele><time>2024-6-8T6:11:54Z</time></trkpt>
<trkpt lat="48.441665" lon="2.664017"><ele></ele><time>2024-6-8T6:11:57Z</time></trkpt>
<trkpt lat="48.441655" lon="2.664175"><ele></ele><time>2024-6-8T6:12:0Z</time></trkpt>
<trkpt lat="48.441629" lon="2.664309"><ele></ele><time>2024-6-8T6:12:3Z</time></trkpt>
<trkpt lat="48.441589" lon="2.66444"><ele></ele><time>2024-6-8T6:12:6Z</time></trkpt>
<trkpt lat="48.441566" lon="2.664584"><ele></ele><time>2024-6-8T6:12:9Z</time></trkpt>
<trkpt lat="48.441585" lon="2.66472"><ele></ele><time>2024-6-8T6:12:12Z</time></trkpt>
<trkpt lat="48.441566" lon="2.664862"><ele></ele><time>2024-6-8T6:12:15Z</time></trkpt>
<trkpt lat="48.441522" lon="2.664987"><ele></ele><time>2024-6-8T6:12:18Z</time></trkpt>
<trkpt lat="48.441501" lon="2.665129"><ele></ele><time>2024-6-8T6:12:21Z</time></trkpt>
<trkpt lat="48.441496" lon="2.665281"><ele></ele><time>2024-6-8T6:12:24Z</time></trkpt>
<trkpt lat="48.441511" lon="2.665432"><ele></ele><time>2024-6-8T6:12:27Z</time></trkpt>
<trkpt lat="48.441516" lon="2.665576"><ele></ele><time>2024-6-8T6:12:30Z</time></trkpt>
<trkpt lat="48.441523" lon="2.665733"><ele></ele><time>2024-6-8T6:12:33Z</time></trkpt>
<trkpt lat="48.441561" lon="2.665857"><ele></ele><time>2024-6-8T6:12:36Z</time></trkpt>
<trkpt lat="48.441566" lon="2.665996"><ele></ele><time>2024-6-8T6:12:39Z</time></trkpt>
<trkpt lat="48.441555" lon="2.666149"><ele></ele><time>2024-6-8T6:12:42Z</time></trkpt>
<trkpt lat="48.441566" lon="2.666296"><ele></ele><time>2024-6-8T6:12:45Z</time></trkpt>
<trkpt lat="48.441554" lon="2.666438"><ele></ele><time>2024-6-8T6:12:48Z</time></trkpt>
<trkpt lat="48.441564" lon="2.666583"><ele></ele><time>2024-6-8T6:12:51Z</time></trkpt>
<trkpt lat="48.441558" lon="2.666743"><ele></ele><time>2024-6-8T6:12:54Z</time></trkpt>
<trkpt lat="48.441564" lon="2.666897"><ele></ele><time>2024-6-8T6:12:57Z</time></trkpt>
<trkpt lat="48.441559" lon="2.667074"><ele></ele><time>2024-6-8T6:13:0Z</time></trkpt>
<trkpt lat="48.44157" lon="2.667253"><ele></ele><time>2024-6-8T6:13:3Z</time></trkpt>
<trkpt lat="48.441556" lon="2.667431"><ele></ele><time>2024-6-8T6:13:6Z</time></trkpt>
<trkpt lat="48.441541" lon="2.667577"><ele></ele><time>2024-6-8T6:13:9Z</time></trkpt>
<trkpt lat="48.441555" lon="2.667715"><ele></ele><time>2024-6-8T6:13:12Z</time></trkpt>
<trkpt lat="48.441567" lon="2.66785"><ele></ele><time>2024-6-8T6:13:15Z</time></trkpt>
<trkpt lat="48.441557" lon="2.668022"><ele></ele><time>2024-6-8T6:13:18Z</time></trkpt>
<trkpt lat="48.441549" lon="2.668178"><ele></ele><time>2024-6-8T6:13:21Z</time></trkpt>
<trkpt lat="48.441558" lon="2.668317"><ele></ele><time>2024-6-8T6:13:24Z</time></trkpt>
<trkpt lat="48.441589" lon="2.668473"><ele></ele><time>2024-6-8T6:13:27Z</time></trkpt>
<trkpt lat="48.441619" lon="2.668609"><ele></ele><time>2024-6-8T6:13:30Z</time></trkpt>
<trkpt lat="48.441698" lon="2.668711"><ele></ele><time>2024-6-8T6:13:33Z</time></trkpt>
<trkpt lat="48.441803" lon="2.668782"><ele></ele><time>2024-6-8T6:13:36Z</time></trkpt>
<trkpt lat="48.441891" lon="2.668825"><ele></ele><time>2024-6-8T6:13:39Z</time></trkpt>
<trkpt lat="48.441979" lon="2.668867"><ele></ele><time>2024-6-8T6:13:42Z</time></trkpt>
<trkpt lat="48.442073" lon="2.668907"><ele></ele><time>2024-6-8T6:13:45Z</time></trkpt>
<trkpt lat="48.442183" lon="2.668941"><ele></ele><time>2024-6-8T6:13:48Z</time></trkpt>
<trkpt lat="48.442286" lon="2.668979"><ele></ele><time>2024-6-8T6:13:51Z</time></trkpt>
<trkpt lat="48.4424" lon="2.669006"><ele></ele><time>2024-6-8T6:13:54Z</time></trkpt>
<trkpt lat="48.442504" lon="2.669037"><ele></ele><time>2024-6-8T6:13:57Z</time></trkpt>
<trkpt lat="48.442621" lon="2.669074"><ele></ele><time>2024-6-8T6:14:0Z</time></trkpt>
<trkpt lat="48.442752" lon="2.669087"><ele></ele><time>2024-6-8T6:14:3Z</time></trkpt>
<trkpt lat="48.442876" lon="2.669104"><ele></ele><time>2024-6-8T6:14:6Z</time></trkpt>
<trkpt lat="48.442988" lon="2.669135"><ele></ele><time>2024-6-8T6:14:9Z</time></trkpt>
<trkpt lat="48.443111" lon="2.66914"><ele></ele><time>2024-6-8T6:14:12Z</time></trkpt>
<trkpt lat="48.443225" lon="2.66916"><ele></ele><time>2024-6-8T6:14:15Z</time></trkpt>
<trkpt lat="48.443333" lon="2.669183"><ele></ele><time>2024-6-8T6:14:18Z</time></trkpt>
<trkpt lat="48.443429" lon="2.66921"><ele></ele><time>2024-6-8T6:14:21Z</time></trkpt>
<trkpt lat="48.443537" lon="2.66924"><ele></ele><time>2024-6-8T6:14:24Z</time></trkpt>
<trkpt lat="48.443656" lon="2.669273"><ele></ele><time>2024-6-8T6:14:27Z</time></trkpt>
<trkpt lat="48.443758" lon="2.669252"><ele></ele><time>2024-6-8T6:14:30Z</time></trkpt>
<trkpt lat="48.443767" lon="2.669251"><ele></ele><time>2024-6-8T6:14:33Z</time></trkpt>
<trkpt lat="48.443768" lon="2.669252"><ele></ele><time>2024-6-8T6:14:36Z</time></trkpt>
<trkpt lat="48.443772" lon="2.669254"><ele></ele><time>2024-6-8T6:14:39Z</time></trkpt>
<trkpt lat="48.443776" lon="2.669253"><ele></ele><time>2024-6-8T6:14:42Z</time></trkpt>
<trkpt lat="48.443779" lon="2.669253"><ele></ele><time>2024-6-8T6:14:45Z</time></trkpt>
<trkpt lat="48.443763" lon="2.669387"><ele></ele><time>2024-6-8T6:14:48Z</time></trkpt>
<trkpt lat="48.443761" lon="2.669544"><ele></ele><time>2024-6-8T6:14:51Z</time></trkpt>
<trkpt lat="48.443774" lon="2.669724"><ele></ele><time>2024-6-8T6:14:54Z</time></trkpt>
<trkpt lat="48.443807" lon="2.669877"><ele></ele><time>2024-6-8T6:14:57Z</time></trkpt>
<trkpt lat="48.44384" lon="2.670029"><ele></ele><time>2024-6-8T6:15:0Z</time></trkpt>
<trkpt lat="48.443851" lon="2.670186"><ele></ele><time>2024-6-8T6:15:3Z</time></trkpt>
<trkpt lat="48.443829" lon="2.670345"><ele></ele><time>2024-6-8T6:15:6Z</time></trkpt>
<trkpt lat="48.443847" lon="2.670518"><ele></ele><time>2024-6-8T6:15:9Z</time></trkpt>
<trkpt lat="48.443852" lon="2.6707"><ele></ele><time>2024-6-8T6:15:12Z</time></trkpt>
<trkpt lat="48.443854" lon="2.670875"><ele></ele><time>2024-6-8T6:15:15Z</time></trkpt>
<trkpt lat="48.443863" lon="2.671047"><ele></ele><time>2024-6-8T6:15:18Z</time></trkpt>
<trkpt lat="48.44387" lon="2.671207"><ele></ele><time>2024-6-8T6:15:21Z</time></trkpt>
<trkpt lat="48.44388" lon="2.671385"><ele></ele><time>2024-6-8T6:15:24Z</time></trkpt>
<trkpt lat="48.443884" lon="2.671548"><ele></ele><time>2024-6-8T6:15:27Z</time></trkpt>
<trkpt lat="48.443879" lon="2.671719"><ele></ele><time>2024-6-8T6:15:30Z</time></trkpt>
<trkpt lat="48.443877" lon="2.671862"><ele></ele><time>2024-6-8T6:15:33Z</time></trkpt>
<trkpt lat="48.443815" lon="2.671965"><ele></ele><time>2024-6-8T6:15:36Z</time></trkpt>
<trkpt lat="48.443738" lon="2.672059"><ele></ele><time>2024-6-8T6:15:39Z</time></trkpt>
<trkpt lat="48.443661" lon="2.672186"><ele></ele><time>2024-6-8T6:15:42Z</time></trkpt>
<trkpt lat="48.443605" lon="2.672297"><ele></ele><time>2024-6-8T6:15:45Z</time></trkpt>
<trkpt lat="48.443564" lon="2.672433"><ele></ele><time>2024-6-8T6:15:48Z</time></trkpt>
<trkpt lat="48.443514" lon="2.672573"><ele></ele><time>2024-6-8T6:15:51Z</time></trkpt>
<trkpt lat="48.443451" lon="2.672709"><ele></ele><time>2024-6-8T6:15:54Z</time></trkpt>
<trkpt lat="48.443397" lon="2.672845"><ele></ele><time>2024-6-8T6:15:57Z</time></trkpt>
<trkpt lat="48.443292" lon="2.672947"><ele></ele><time>2024-6-8T6:16:0Z</time></trkpt>
<trkpt lat="48.443215" lon="2.673053"><ele></ele><time>2024-6-8T6:16:3Z</time></trkpt>
<trkpt lat="48.443138" lon="2.673197"><ele></ele><time>2024-6-8T6:16:6Z</time></trkpt>
<trkpt lat="48.443105" lon="2.673352"><ele></ele><time>2024-6-8T6:16:9Z</time></trkpt>
<trkpt lat="48.443039" lon="2.673515"><ele></ele><time>2024-6-8T6:16:12Z</time></trkpt>
<trkpt lat="48.442941" lon="2.673666"><ele></ele><time>2024-6-8T6:16:15Z</time></trkpt>
<trkpt lat="48.442864" lon="2.673775"><ele></ele><time>2024-6-8T6:16:18Z</time></trkpt>
<trkpt lat="48.44281" lon="2.673888"><ele></ele><time>2024-6-8T6:16:21Z</time></trkpt>
<trkpt lat="48.442701" lon="2.673854"><ele></ele><time>2024-6-8T6:16:24Z</time></trkpt>
<trkpt lat="48.442603" lon="2.673863"><ele></ele><time>2024-6-8T6:16:27Z</time></trkpt>
<trkpt lat="48.442517" lon="2.673973"><ele></ele><time>2024-6-8T6:16:30Z</time></trkpt>
<trkpt lat="48.442436" lon="2.674101"><ele></ele><time>2024-6-8T6:16:33Z</time></trkpt>
<trkpt lat="48.442353" lon="2.674238"><ele></ele><time>2024-6-8T6:16:36Z</time></trkpt>
<trkpt lat="48.442294" lon="2.674451"><ele></ele><time>2024-6-8T6:16:39Z</time></trkpt>
<trkpt lat="48.442272" lon="2.674586"><ele></ele><time>2024-6-8T6:16:42Z</time></trkpt>
<trkpt lat="48.442242" lon="2.674773"><ele></ele><time>2024-6-8T6:16:45Z</time></trkpt>
<trkpt lat="48.442258" lon="2.674977"><ele></ele><time>2024-6-8T6:16:48Z</time></trkpt>
<trkpt lat="48.442286" lon="2.675132"><ele></ele><time>2024-6-8T6:16:51Z</time></trkpt>
<trkpt lat="48.442302" lon="2.675266"><ele></ele><time>2024-6-8T6:16:54Z</time></trkpt>
<trkpt lat="48.442289" lon="2.675412"><ele></ele><time>2024-6-8T6:16:57Z</time></trkpt>
<trkpt lat="48.442265" lon="2.675577"><ele></ele><time>2024-6-8T6:17:0Z</time></trkpt>
<trkpt lat="48.442188" lon="2.675704"><ele></ele><time>2024-6-8T6:17:3Z</time></trkpt>
<trkpt lat="48.442126" lon="2.675815"><ele></ele><time>2024-6-8T6:17:6Z</time></trkpt>
<trkpt lat="48.442028" lon="2.675925"><ele></ele><time>2024-6-8T6:17:9Z</time></trkpt>
<trkpt lat="48.441936" lon="2.676021"><ele></ele><time>2024-6-8T6:17:12Z</time></trkpt>
<trkpt lat="48.441839" lon="2.676086"><ele></ele><time>2024-6-8T6:17:15Z</time></trkpt>
<trkpt lat="48.441758" lon="2.676151"><ele></ele><time>2024-6-8T6:17:18Z</time></trkpt>
<trkpt lat="48.441678" lon="2.676283"><ele></ele><time>2024-6-8T6:17:21Z</time></trkpt>
<trkpt lat="48.441626" lon="2.676399"><ele></ele><time>2024-6-8T6:17:24Z</time></trkpt>
<trkpt lat="48.441533" lon="2.676549"><ele></ele><time>2024-6-8T6:17:27Z</time></trkpt>
<trkpt lat="48.441475" lon="2.676677"><ele></ele><time>2024-6-8T6:17:30Z</time></trkpt>
<trkpt lat="48.441406" lon="2.676806"><ele></ele><time>2024-6-8T6:17:33Z</time></trkpt>
<trkpt lat="48.441303" lon="2.676918"><ele></ele><time>2024-6-8T6:17:36Z</time></trkpt>
<trkpt lat="48.441225" lon="2.676994"><ele></ele><time>2024-6-8T6:17:39Z</time></trkpt>
<trkpt lat="48.441134" lon="2.676975"><ele></ele><time>2024-6-8T6:17:42Z</time></trkpt>
<trkpt lat="48.441027" lon="2.676917"><ele></ele><time>2024-6-8T6:17:45Z</time></trkpt>
<trkpt lat="48.440931" lon="2.676874"><ele></ele><time>2024-6-8T6:17:48Z</time></trkpt>
<trkpt lat="48.440838" lon="2.676849"><ele></ele><time>2024-6-8T6:17:51Z</time></trkpt>
<trkpt lat="48.440739" lon="2.676863"><ele></ele><time>2024-6-8T6:17:54Z</time></trkpt>
<trkpt lat="48.440655" lon="2.676807"><ele></ele><time>2024-6-8T6:17:57Z</time></trkpt>
<trkpt lat="48.440558" lon="2.676793"><ele></ele><time>2024-6-8T6:18:0Z</time></trkpt>
<trkpt lat="48.440536" lon="2.676657"><ele></ele><time>2024-6-8T6:18:3Z</time></trkpt>
<trkpt lat="48.440461" lon="2.676565"><ele></ele><time>2024-6-8T6:18:6Z</time></trkpt>
<trkpt lat="48.440364" lon="2.676524"><ele></ele><time>2024-6-8T6:18:9Z</time></trkpt>
<trkpt lat="48.440264" lon="2.676494"><ele></ele><time>2024-6-8T6:18:12Z</time></trkpt>
<trkpt lat="48.440178" lon="2.676439"><ele></ele><time>2024-6-8T6:18:15Z</time></trkpt>
<trkpt lat="48.440067" lon="2.676429"><ele></ele><time>2024-6-8T6:18:18Z</time></trkpt>
<trkpt lat="48.439969" lon="2.676489"><ele></ele><time>2024-6-8T6:18:21Z</time></trkpt>
<trkpt lat="48.439878" lon="2.676569"><ele></ele><time>2024-6-8T6:18:24Z</time></trkpt>
<trkpt lat="48.439799" lon="2.676641"><ele></ele><time>2024-6-8T6:18:27Z</time></trkpt>
<trkpt lat="48.439697" lon="2.676639"><ele></ele><time>2024-6-8T6:18:30Z</time></trkpt>
<trkpt lat="48.439614" lon="2.676566"><ele></ele><time>2024-6-8T6:18:33Z</time></trkpt>
<trkpt lat="48.439515" lon="2.676475"><ele></ele><time>2024-6-8T6:18:36Z</time></trkpt>
<trkpt lat="48.439396" lon="2.676455"><ele></ele><time>2024-6-8T6:18:39Z</time></trkpt>
<trkpt lat="48.439276" lon="2.676453"><ele></ele><time>2024-6-8T6:18:42Z</time></trkpt>
<trkpt lat="48.439208" lon="2.676339"><ele></ele><time>2024-6-8T6:18:45Z</time></trkpt>
<trkpt lat="48.439144" lon="2.676241"><ele></ele><time>2024-6-8T6:18:48Z</time></trkpt>
<trkpt lat="48.439103" lon="2.676099"><ele></ele><time>2024-6-8T6:18:51Z</time></trkpt>
<trkpt lat="48.439076" lon="2.67593"><ele></ele><time>2024-6-8T6:18:54Z</time></trkpt>
<trkpt lat="48.439075" lon="2.675777"><ele></ele><time>2024-6-8T6:18:57Z</time></trkpt>
<trkpt lat="48.43905" lon="2.675623"><ele></ele><time>2024-6-8T6:19:0Z</time></trkpt>
<trkpt lat="48.439029" lon="2.675448"><ele></ele><time>2024-6-8T6:19:3Z</time></trkpt>
<trkpt lat="48.438997" lon="2.675315"><ele></ele><time>2024-6-8T6:19:6Z</time></trkpt>
<trkpt lat="48.438949" lon="2.675155"><ele></ele><time>2024-6-8T6:19:9Z</time></trkpt>
<trkpt lat="48.438938" lon="2.674989"><ele></ele><time>2024-6-8T6:19:12Z</time></trkpt>
<trkpt lat="48.438908" lon="2.674827"><ele></ele><time>2024-6-8T6:19:15Z</time></trkpt>
<trkpt lat="48.438849" lon="2.674682"><ele></ele><time>2024-6-8T6:19:18Z</time></trkpt>
<trkpt lat="48.438801" lon="2.674558"><ele></ele><time>2024-6-8T6:19:21Z</time></trkpt>
<trkpt lat="48.438783" lon="2.674417"><ele></ele><time>2024-6-8T6:19:24Z</time></trkpt>
<trkpt lat="48.438766" lon="2.674244"><ele></ele><time>2024-6-8T6:19:27Z</time></trkpt>
<trkpt lat="48.438735" lon="2.67408"><ele></ele><time>2024-6-8T6:19:30Z</time></trkpt>
<trkpt lat="48.438704" lon="2.673925"><ele></ele><time>2024-6-8T6:19:33Z</time></trkpt>
<trkpt lat="48.438692" lon="2.673788"><ele></ele><time>2024-6-8T6:19:36Z</time></trkpt>
<trkpt lat="48.438645" lon="2.673657"><ele></ele><time>2024-6-8T6:19:39Z</time></trkpt>
<trkpt lat="48.438605" lon="2.673505"><ele></ele><time>2024-6-8T6:19:42Z</time></trkpt>
<trkpt lat="48.438563" lon="2.673353"><ele></ele><time>2024-6-8T6:19:45Z</time></trkpt>
<trkpt lat="48.438533" lon="2.673209"><ele></ele><time>2024-6-8T6:19:48Z</time></trkpt>
<trkpt lat="48.438485" lon="2.673073"><ele></ele><time>2024-6-8T6:19:51Z</time></trkpt>
<trkpt lat="48.438461" lon="2.672927"><ele></ele><time>2024-6-8T6:19:54Z</time></trkpt>
<trkpt lat="48.438423" lon="2.672788"><ele></ele><time>2024-6-8T6:19:57Z</time></trkpt>
<trkpt lat="48.4384" lon="2.672618"><ele></ele><time>2024-6-8T6:20:0Z</time></trkpt>
<trkpt lat="48.438379" lon="2.672476"><ele></ele><time>2024-6-8T6:20:3Z</time></trkpt>
<trkpt lat="48.438345" lon="2.672319"><ele></ele><time>2024-6-8T6:20:6Z</time></trkpt>
<trkpt lat="48.43831" lon="2.672179"><ele></ele><time>2024-6-8T6:20:9Z</time></trkpt>
<trkpt lat="48.43828" lon="2.672015"><ele></ele><time>2024-6-8T6:20:12Z</time></trkpt>
<trkpt lat="48.438227" lon="2.67188"><ele></ele><time>2024-6-8T6:20:15Z</time></trkpt>
<trkpt lat="48.438181" lon="2.671762"><ele></ele><time>2024-6-8T6:20:18Z</time></trkpt>
<trkpt lat="48.438142" lon="2.671624"><ele></ele><time>2024-6-8T6:20:21Z</time></trkpt>
<trkpt lat="48.438117" lon="2.671458"><ele></ele><time>2024-6-8T6:20:24Z</time></trkpt>
<trkpt lat="48.438096" lon="2.671315"><ele></ele><time>2024-6-8T6:20:27Z</time></trkpt>
<trkpt lat="48.438057" lon="2.671184"><ele></ele><time>2024-6-8T6:20:30Z</time></trkpt>
<trkpt lat="48.437989" lon="2.671078"><ele></ele><time>2024-6-8T6:20:33Z</time></trkpt>
<trkpt lat="48.437883" lon="2.67102"><ele></ele><time>2024-6-8T6:20:36Z</time></trkpt>
<trkpt lat="48.437769" lon="2.670996"><ele></ele><time>2024-6-8T6:20:39Z</time></trkpt>
<trkpt lat="48.437653" lon="2.670962"><ele></ele><time>2024-6-8T6:20:42Z</time></trkpt>
<trkpt lat="48.437525" lon="2.670978"><ele></ele><time>2024-6-8T6:20:45Z</time></trkpt>
<trkpt lat="48.437403" lon="2.670967"><ele></ele><time>2024-6-8T6:20:48Z</time></trkpt>
<trkpt lat="48.437298" lon="2.670961"><ele></ele><time>2024-6-8T6:20:51Z</time></trkpt>
<trkpt lat="48.4372" lon="2.670962"><ele></ele><time>2024-6-8T6:20:54Z</time></trkpt>
<trkpt lat="48.437062" lon="2.670968"><ele></ele><time>2024-6-8T6:20:57Z</time></trkpt>
<trkpt lat="48.436968" lon="2.670982"><ele></ele><time>2024-6-8T6:21:0Z</time></trkpt>
<trkpt lat="48.436859" lon="2.670942"><ele></ele><time>2024-6-8T6:21:3Z</time></trkpt>
<trkpt lat="48.436754" lon="2.67093"><ele></ele><time>2024-6-8T6:21:6Z</time></trkpt>
<trkpt lat="48.436632" lon="2.670907"><ele></ele><time>2024-6-8T6:21:9Z</time></trkpt>
<trkpt lat="48.436491" lon="2.670907"><ele></ele><time>2024-6-8T6:21:12Z</time></trkpt>
<trkpt lat="48.436394" lon="2.670921"><ele></ele><time>2024-6-8T6:21:15Z</time></trkpt>
<trkpt lat="48.43629" lon="2.670911"><ele></ele><time>2024-6-8T6:21:18Z</time></trkpt>
<trkpt lat="48.436185" lon="2.670899"><ele></ele><time>2024-6-8T6:21:21Z</time></trkpt>
<trkpt lat="48.436076" lon="2.670908"><ele></ele><time>2024-6-8T6:21:24Z</time></trkpt>
<trkpt lat="48.43597" lon="2.6709"><ele></ele><time>2024-6-8T6:21:27Z</time></trkpt>
<trkpt lat="48.435867" lon="2.670907"><ele></ele><time>2024-6-8T6:21:30Z</time></trkpt>
<trkpt lat="48.435777" lon="2.67089"><ele></ele><time>2024-6-8T6:21:33Z</time></trkpt>
<trkpt lat="48.435642" lon="2.670907"><ele></ele><time>2024-6-8T6:21:36Z</time></trkpt>
<trkpt lat="48.435549" lon="2.670928"><ele></ele><time>2024-6-8T6:21:39Z</time></trkpt>
<trkpt lat="48.435449" lon="2.670973"><ele></ele><time>2024-6-8T6:21:42Z</time></trkpt>
<trkpt lat="48.435362" lon="2.671012"><ele></ele><time>2024-6-8T6:21:45Z</time></trkpt>
<trkpt lat="48.435269" lon="2.67105"><ele></ele><time>2024-6-8T6:21:48Z</time></trkpt>
<trkpt lat="48.435174" lon="2.671089"><ele></ele><time>2024-6-8T6:21:51Z</time></trkpt>
<trkpt lat="48.435055" lon="2.671127"><ele></ele><time>2024-6-8T6:21:54Z</time></trkpt>
<trkpt lat="48.434945" lon="2.67117"><ele></ele><time>2024-6-8T6:21:57Z</time></trkpt>
<trkpt lat="48.434851" lon="2.671217"><ele></ele><time>2024-6-8T6:22:0Z</time></trkpt>
<trkpt lat="48.434718" lon="2.671245"><ele></ele><time>2024-6-8T6:22:3Z</time></trkpt>
<trkpt lat="48.43463" lon="2.67128"><ele></ele><time>2024-6-8T6:22:6Z</time></trkpt>
<trkpt lat="48.434529" lon="2.671333"><ele></ele><time>2024-6-8T6:22:9Z</time></trkpt>
<trkpt lat="48.434421" lon="2.671376"><ele></ele><time>2024-6-8T6:22:12Z</time></trkpt>
<trkpt lat="48.434322" lon="2.671414"><ele></ele><time>2024-6-8T6:22:15Z</time></trkpt>
<trkpt lat="48.434232" lon="2.671439"><ele></ele><time>2024-6-8T6:22:18Z</time></trkpt>
<trkpt lat="48.434137" lon="2.67147"><ele></ele><time>2024-6-8T6:22:21Z</time></trkpt>
<trkpt lat="48.434038" lon="2.6715"><ele></ele><time>2024-6-8T6:22:24Z</time></trkpt>
<trkpt lat="48.433947" lon="2.671509"><ele></ele><time>2024-6-8T6:22:27Z</time></trkpt>
<trkpt lat="48.433839" lon="2.671529"><ele></ele><time>2024-6-8T6:22:30Z</time></trkpt>
<trkpt lat="48.433724" lon="2.671567"><ele></ele><time>2024-6-8T6:22:33Z</time></trkpt>
<trkpt lat="48.43363" lon="2.671601"><ele></ele><time>2024-6-8T6:22:36Z</time></trkpt>
<trkpt lat="48.433503" lon="2.671639"><ele></ele><time>2024-6-8T6:22:39Z</time></trkpt>
<trkpt lat="48.433383" lon="2.671583"><ele></ele><time>2024-6-8T6:22:42Z</time></trkpt>
<trkpt lat="48.43329" lon="2.671499"><ele></ele><time>2024-6-8T6:22:45Z</time></trkpt>
<trkpt lat="48.43321" lon="2.671421"><ele></ele><time>2024-6-8T6:22:48Z</time></trkpt>
<trkpt lat="48.433129" lon="2.671357"><ele></ele><time>2024-6-8T6:22:51Z</time></trkpt>
<trkpt lat="48.433013" lon="2.671272"><ele></ele><time>2024-6-8T6:22:54Z</time></trkpt>
<trkpt lat="48.432901" lon="2.671185"><ele></ele><time>2024-6-8T6:22:57Z</time></trkpt>
<trkpt lat="48.432787" lon="2.671106"><ele></ele><time>2024-6-8T6:23:0Z</time></trkpt>
<trkpt lat="48.432673" lon="2.67102"><ele></ele><time>2024-6-8T6:23:3Z</time></trkpt>
<trkpt lat="48.432552" lon="2.670972"><ele></ele><time>2024-6-8T6:23:6Z</time></trkpt>
<trkpt lat="48.432458" lon="2.670939"><ele></ele><time>2024-6-8T6:23:9Z</time></trkpt>
<trkpt lat="48.432323" lon="2.670907"><ele></ele><time>2024-6-8T6:23:12Z</time></trkpt>
<trkpt lat="48.432215" lon="2.670857"><ele></ele><time>2024-6-8T6:23:15Z</time></trkpt>
<trkpt lat="48.432114" lon="2.670828"><ele></ele><time>2024-6-8T6:23:18Z</time></trkpt>
<trkpt lat="48.431987" lon="2.670764"><ele></ele><time>2024-6-8T6:23:21Z</time></trkpt>
<trkpt lat="48.431866" lon="2.670743"><ele></ele><time>2024-6-8T6:23:24Z</time></trkpt>
<trkpt lat="48.431783" lon="2.670676"><ele></ele><time>2024-6-8T6:23:27Z</time></trkpt>
<trkpt lat="48.431686" lon="2.670631"><ele></ele><time>2024-6-8T6:23:30Z</time></trkpt>
<trkpt lat="48.431597" lon="2.670592"><ele></ele><time>2024-6-8T6:23:33Z</time></trkpt>
<trkpt lat="48.431476" lon="2.670545"><ele></ele><time>2024-6-8T6:23:36Z</time></trkpt>
<trkpt lat="48.43135" lon="2.670515"><ele></ele><time>2024-6-8T6:23:39Z</time></trkpt>
<trkpt lat="48.431238" lon="2.670464"><ele></ele><time>2024-6-8T6:23:42Z</time></trkpt>
<trkpt lat="48.431121" lon="2.670404"><ele></ele><time>2024-6-8T6:23:45Z</time></trkpt>
<trkpt lat="48.431009" lon="2.670387"><ele></ele><time>2024-6-8T6:23:48Z</time></trkpt>
<trkpt lat="48.430936" lon="2.670541"><ele></ele><time>2024-6-8T6:23:51Z</time></trkpt>
<trkpt lat="48.430894" lon="2.670729"><ele></ele><time>2024-6-8T6:23:54Z</time></trkpt>
<trkpt lat="48.430843" lon="2.670869"><ele></ele><time>2024-6-8T6:23:57Z</time></trkpt>
<trkpt lat="48.430786" lon="2.670978"><ele></ele><time>2024-6-8T6:24:0Z</time></trkpt>
<trkpt lat="48.430706" lon="2.67114"><ele></ele><time>2024-6-8T6:24:3Z</time></trkpt>
<trkpt lat="48.430654" lon="2.671317"><ele></ele><time>2024-6-8T6:24:6Z</time></trkpt>
<trkpt lat="48.430586" lon="2.671467"><ele></ele><time>2024-6-8T6:24:9Z</time></trkpt>
<trkpt lat="48.430555" lon="2.671618"><ele></ele><time>2024-6-8T6:24:12Z</time></trkpt>
<trkpt lat="48.430502" lon="2.67177"><ele></ele><time>2024-6-8T6:24:15Z</time></trkpt>
<trkpt lat="48.430453" lon="2.6719"><ele></ele><time>2024-6-8T6:24:18Z</time></trkpt>
<trkpt lat="48.43041" lon="2.672035"><ele></ele><time>2024-6-8T6:24:21Z</time></trkpt>
<trkpt lat="48.430411" lon="2.672188"><ele></ele><time>2024-6-8T6:24:24Z</time></trkpt>
<trkpt lat="48.430487" lon="2.672311"><ele></ele><time>2024-6-8T6:24:27Z</time></trkpt>
<trkpt lat="48.430571" lon="2.672443"><ele></ele><time>2024-6-8T6:24:30Z</time></trkpt>
<trkpt lat="48.430649" lon="2.672577"><ele></ele><time>2024-6-8T6:24:33Z</time></trkpt>
<trkpt lat="48.430717" lon="2.67271"><ele></ele><time>2024-6-8T6:24:36Z</time></trkpt>
<trkpt lat="48.430783" lon="2.672827"><ele></ele><time>2024-6-8T6:24:39Z</time></trkpt>
<trkpt lat="48.430861" lon="2.672949"><ele></ele><time>2024-6-8T6:24:42Z</time></trkpt>
<trkpt lat="48.430934" lon="2.673065"><ele></ele><time>2024-6-8T6:24:45Z</time></trkpt>
<trkpt lat="48.430997" lon="2.673206"><ele></ele><time>2024-6-8T6:24:48Z</time></trkpt>
<trkpt lat="48.431059" lon="2.673348"><ele></ele><time>2024-6-8T6:24:51Z</time></trkpt>
<trkpt lat="48.431129" lon="2.673495"><ele></ele><time>2024-6-8T6:24:54Z</time></trkpt>
<trkpt lat="48.431218" lon="2.673617"><ele></ele><time>2024-6-8T6:24:57Z</time></trkpt>
<trkpt lat="48.431294" lon="2.673752"><ele></ele><time>2024-6-8T6:25:0Z</time></trkpt>
<trkpt lat="48.431357" lon="2.673903"><ele></ele><time>2024-6-8T6:25:3Z</time></trkpt>
<trkpt lat="48.431422" lon="2.674059"><ele></ele><time>2024-6-8T6:25:6Z</time></trkpt>
<trkpt lat="48.431473" lon="2.674206"><ele></ele><time>2024-6-8T6:25:9Z</time></trkpt>
<trkpt lat="48.431526" lon="2.67437"><ele></ele><time>2024-6-8T6:25:12Z</time></trkpt>
<trkpt lat="48.431602" lon="2.674516"><ele></ele><time>2024-6-8T6:25:15Z</time></trkpt>
<trkpt lat="48.431674" lon="2.674646"><ele></ele><time>2024-6-8T6:25:18Z</time></trkpt>
<trkpt lat="48.431737" lon="2.674772"><ele></ele><time>2024-6-8T6:25:21Z</time></trkpt>
<trkpt lat="48.431775" lon="2.674915"><ele></ele><time>2024-6-8T6:25:24Z</time></trkpt>
<trkpt lat="48.431797" lon="2.675092"><ele></ele><time>2024-6-8T6:25:27Z</time></trkpt>
<trkpt lat="48.431846" lon="2.675265"><ele></ele><time>2024-6-8T6:25:30Z</time></trkpt>
<trkpt lat="48.431884" lon="2.675423"><ele></ele><time>2024-6-8T6:25:33Z</time></trkpt>
<trkpt lat="48.431928" lon="2.675543"><ele></ele><time>2024-6-8T6:25:36Z</time></trkpt>
<trkpt lat="48.431973" lon="2.675664"><ele></ele><time>2024-6-8T6:25:39Z</time></trkpt>
<trkpt lat="48.431953" lon="2.675824"><ele></ele><time>2024-6-8T6:25:42Z</time></trkpt>
<trkpt lat="48.431971" lon="2.67598"><ele></ele><time>2024-6-8T6:25:45Z</time></trkpt>
<trkpt lat="48.431968" lon="2.67614"><ele></ele><time>2024-6-8T6:25:48Z</time></trkpt>
<trkpt lat="48.431936" lon="2.676311"><ele></ele><time>2024-6-8T6:25:51Z</time></trkpt>
<trkpt lat="48.431906" lon="2.676499"><ele></ele><time>2024-6-8T6:25:54Z</time></trkpt>
<trkpt lat="48.431892" lon="2.676688"><ele></ele><time>2024-6-8T6:25:57Z</time></trkpt>
<trkpt lat="48.431877" lon="2.676936"><ele></ele><time>2024-6-8T6:26:0Z</time></trkpt>
<trkpt lat="48.431868" lon="2.677089"><ele></ele><time>2024-6-8T6:26:3Z</time></trkpt>
<trkpt lat="48.431913" lon="2.677255"><ele></ele><time>2024-6-8T6:26:6Z</time></trkpt>
<trkpt lat="48.431882" lon="2.677422"><ele></ele><time>2024-6-8T6:26:9Z</time></trkpt>
<trkpt lat="48.431858" lon="2.677594"><ele></ele><time>2024-6-8T6:26:12Z</time></trkpt>
<trkpt lat="48.431839" lon="2.677786"><ele></ele><time>2024-6-8T6:26:15Z</time></trkpt>
<trkpt lat="48.431836" lon="2.677942"><ele></ele><time>2024-6-8T6:26:18Z</time></trkpt>
<trkpt lat="48.43182" lon="2.678109"><ele></ele><time>2024-6-8T6:26:21Z</time></trkpt>
<trkpt lat="48.431787" lon="2.678241"><ele></ele><time>2024-6-8T6:26:24Z</time></trkpt>
<trkpt lat="48.431774" lon="2.678412"><ele></ele><time>2024-6-8T6:26:27Z</time></trkpt>
<trkpt lat="48.431772" lon="2.678582"><ele></ele><time>2024-6-8T6:26:30Z</time></trkpt>
<trkpt lat="48.431739" lon="2.678723"><ele></ele><time>2024-6-8T6:26:33Z</time></trkpt>
<trkpt lat="48.431698" lon="2.678848"><ele></ele><time>2024-6-8T6:26:36Z</time></trkpt>
<trkpt lat="48.431638" lon="2.678962"><ele></ele><time>2024-6-8T6:26:39Z</time></trkpt>
<trkpt lat="48.43157" lon="2.679068"><ele></ele><time>2024-6-8T6:26:42Z</time></trkpt>
<trkpt lat="48.431488" lon="2.679186"><ele></ele><time>2024-6-8T6:26:45Z</time></trkpt>
<trkpt lat="48.431414" lon="2.679283"><ele></ele><time>2024-6-8T6:26:48Z</time></trkpt>
<trkpt lat="48.431415" lon="2.679431"><ele></ele><time>2024-6-8T6:26:51Z</time></trkpt>
<trkpt lat="48.431472" lon="2.679539"><ele></ele><time>2024-6-8T6:26:54Z</time></trkpt>
<trkpt lat="48.431558" lon="2.679653"><ele></ele><time>2024-6-8T6:26:57Z</time></trkpt>
<trkpt lat="48.43165" lon="2.679724"><ele></ele><time>2024-6-8T6:27:0Z</time></trkpt>
<trkpt lat="48.431743" lon="2.679787"><ele></ele><time>2024-6-8T6:27:3Z</time></trkpt>
<trkpt lat="48.431848" lon="2.679847"><ele></ele><time>2024-6-8T6:27:6Z</time></trkpt>
<trkpt lat="48.431928" lon="2.679915"><ele></ele><time>2024-6-8T6:27:9Z</time></trkpt>
<trkpt lat="48.431992" lon="2.680016"><ele></ele><time>2024-6-8T6:27:12Z</time></trkpt>
<trkpt lat="48.432046" lon="2.680139"><ele></ele><time>2024-6-8T6:27:15Z</time></trkpt>
<trkpt lat="48.432088" lon="2.680297"><ele></ele><time>2024-6-8T6:27:18Z</time></trkpt>
<trkpt lat="48.43215" lon="2.680399"><ele></ele><time>2024-6-8T6:27:21Z</time></trkpt>
<trkpt lat="48.432201" lon="2.680511"><ele></ele><time>2024-6-8T6:27:24Z</time></trkpt>
<trkpt lat="48.432259" lon="2.680649"><ele></ele><time>2024-6-8T6:27:27Z</time></trkpt>
<trkpt lat="48.432312" lon="2.680784"><ele></ele><time>2024-6-8T6:27:30Z</time></trkpt>
<trkpt lat="48.432347" lon="2.680919"><ele></ele><time>2024-6-8T6:27:33Z</time></trkpt>
<trkpt lat="48.432404" lon="2.681031"><ele></ele><time>2024-6-8T6:27:36Z</time></trkpt>
<trkpt lat="48.432501" lon="2.681145"><ele></ele><time>2024-6-8T6:27:39Z</time></trkpt>
<trkpt lat="48.432577" lon="2.681279"><ele></ele><time>2024-6-8T6:27:42Z</time></trkpt>
<trkpt lat="48.432625" lon="2.681444"><ele></ele><time>2024-6-8T6:27:45Z</time></trkpt>
<trkpt lat="48.432676" lon="2.681618"><ele></ele><time>2024-6-8T6:27:48Z</time></trkpt>
<trkpt lat="48.432722" lon="2.681774"><ele></ele><time>2024-6-8T6:27:51Z</time></trkpt>
<trkpt lat="48.432697" lon="2.681941"><ele></ele><time>2024-6-8T6:27:54Z</time></trkpt>
<trkpt lat="48.432663" lon="2.682079"><ele></ele><time>2024-6-8T6:27:57Z</time></trkpt>
<trkpt lat="48.432637" lon="2.682221"><ele></ele><time>2024-6-8T6:28:0Z</time></trkpt>
<trkpt lat="48.432594" lon="2.68238"><ele></ele><time>2024-6-8T6:28:3Z</time></trkpt>
<trkpt lat="48.432562" lon="2.682525"><ele></ele><time>2024-6-8T6:28:6Z</time></trkpt>
<trkpt lat="48.432527" lon="2.682694"><ele></ele><time>2024-6-8T6:28:9Z</time></trkpt>
<trkpt lat="48.432498" lon="2.682854"><ele></ele><time>2024-6-8T6:28:12Z</time></trkpt>
<trkpt lat="48.432456" lon="2.683011"><ele></ele><time>2024-6-8T6:28:15Z</time></trkpt>
<trkpt lat="48.432412" lon="2.683159"><ele></ele><time>2024-6-8T6:28:18Z</time></trkpt>
<trkpt lat="48.432369" lon="2.683314"><ele></ele><time>2024-6-8T6:28:21Z</time></trkpt>
<trkpt lat="48.432332" lon="2.68346"><ele></ele><time>2024-6-8T6:28:24Z</time></trkpt>
<trkpt lat="48.432303" lon="2.683591"><ele></ele><time>2024-6-8T6:28:27Z</time></trkpt>
<trkpt lat="48.432243" lon="2.683707"><ele></ele><time>2024-6-8T6:28:30Z</time></trkpt>
<trkpt lat="48.43216" lon="2.683774"><ele></ele><time>2024-6-8T6:28:33Z</time></trkpt>
<trkpt lat="48.432095" lon="2.683883"><ele></ele><time>2024-6-8T6:28:36Z</time></trkpt>
<trkpt lat="48.432014" lon="2.684"><ele></ele><time>2024-6-8T6:28:39Z</time></trkpt>
<trkpt lat="48.43193" lon="2.684075"><ele></ele><time>2024-6-8T6:28:42Z</time></trkpt>
<trkpt lat="48.431857" lon="2.684162"><ele></ele><time>2024-6-8T6:28:45Z</time></trkpt>
<trkpt lat="48.431799" lon="2.684284"><ele></ele><time>2024-6-8T6:28:48Z</time></trkpt>
<trkpt lat="48.431737" lon="2.684393"><ele></ele><time>2024-6-8T6:28:51Z</time></trkpt>
<trkpt lat="48.431744" lon="2.684551"><ele></ele><time>2024-6-8T6:28:54Z</time></trkpt>
<trkpt lat="48.431719" lon="2.684682"><ele></ele><time>2024-6-8T6:28:57Z</time></trkpt>
<trkpt lat="48.431677" lon="2.684826"><ele></ele><time>2024-6-8T6:29:0Z</time></trkpt>
<trkpt lat="48.431622" lon="2.684955"><ele></ele><time>2024-6-8T6:29:3Z</time></trkpt>
<trkpt lat="48.431572" lon="2.685084"><ele></ele><time>2024-6-8T6:29:6Z</time></trkpt>
<trkpt lat="48.431542" lon="2.68524"><ele></ele><time>2024-6-8T6:29:9Z</time></trkpt>
<trkpt lat="48.431507" lon="2.685392"><ele></ele><time>2024-6-8T6:29:12Z</time></trkpt>
<trkpt lat="48.431445" lon="2.685508"><ele></ele><time>2024-6-8T6:29:15Z</time></trkpt>
<trkpt lat="48.431366" lon="2.685577"><ele></ele><time>2024-6-8T6:29:18Z</time></trkpt>
<trkpt lat="48.431351" lon="2.685714"><ele></ele><time>2024-6-8T6:29:21Z</time></trkpt>
<trkpt lat="48.43132" lon="2.685854"><ele></ele><time>2024-6-8T6:29:24Z</time></trkpt>
<trkpt lat="48.431237" lon="2.68591"><ele></ele><time>2024-6-8T6:29:27Z</time></trkpt>
<trkpt lat="48.431157" lon="2.686035"><ele></ele><time>2024-6-8T6:29:30Z</time></trkpt>
<trkpt lat="48.431108" lon="2.686169"><ele></ele><time>2024-6-8T6:29:33Z</time></trkpt>
<trkpt lat="48.431069" lon="2.68633"><ele></ele><time>2024-6-8T6:29:36Z</time></trkpt>
<trkpt lat="48.431017" lon="2.686458"><ele></ele><time>2024-6-8T6:29:39Z</time></trkpt>
<trkpt lat="48.430941" lon="2.686562"><ele></ele><time>2024-6-8T6:29:42Z</time></trkpt>
<trkpt lat="48.430888" lon="2.686698"><ele></ele><time>2024-6-8T6:29:45Z</time></trkpt>
<trkpt lat="48.430888" lon="2.686861"><ele></ele><time>2024-6-8T6:29:48Z</time></trkpt>
<trkpt lat="48.430853" lon="2.687031"><ele></ele><time>2024-6-8T6:29:51Z</time></trkpt>
<trkpt lat="48.430825" lon="2.687194"><ele></ele><time>2024-6-8T6:29:54Z</time></trkpt>
<trkpt lat="48.430822" lon="2.687332"><ele></ele><time>2024-6-8T6:29:57Z</time></trkpt>
<trkpt lat="48.430812" lon="2.687469"><ele></ele><time>2024-6-8T6:30:0Z</time></trkpt>
<trkpt lat="48.430833" lon="2.687634"><ele></ele><time>2024-6-8T6:30:3Z</time></trkpt>
<trkpt lat="48.430892" lon="2.687778"><ele></ele><time>2024-6-8T6:30:6Z</time></trkpt>
<trkpt lat="48.43094" lon="2.687902"><ele></ele><time>2024-6-8T6:30:9Z</time></trkpt>
<trkpt lat="48.430999" lon="2.688007"><ele></ele><time>2024-6-8T6:30:12Z</time></trkpt>
<trkpt lat="48.431085" lon="2.688129"><ele></ele><time>2024-6-8T6:30:15Z</time></trkpt>
<trkpt lat="48.431157" lon="2.688224"><ele></ele><time>2024-6-8T6:30:18Z</time></trkpt>
<trkpt lat="48.431187" lon="2.688369"><ele></ele><time>2024-6-8T6:30:21Z</time></trkpt>
<trkpt lat="48.431264" lon="2.688481"><ele></ele><time>2024-6-8T6:30:24Z</time></trkpt>
<trkpt lat="48.431276" lon="2.688645"><ele></ele><time>2024-6-8T6:30:27Z</time></trkpt>
<trkpt lat="48.43125" lon="2.688803"><ele></ele><time>2024-6-8T6:30:30Z</time></trkpt>
<trkpt lat="48.431214" lon="2.68895"><ele></ele><time>2024-6-8T6:30:33Z</time></trkpt>
<trkpt lat="48.4312" lon="2.689086"><ele></ele><time>2024-6-8T6:30:36Z</time></trkpt>
<trkpt lat="48.431189" lon="2.68923"><ele></ele><time>2024-6-8T6:30:39Z</time></trkpt>
<trkpt lat="48.431181" lon="2.68939"><ele></ele><time>2024-6-8T6:30:42Z</time></trkpt>
<trkpt lat="48.431192" lon="2.689552"><ele></ele><time>2024-6-8T6:30:45Z</time></trkpt>
<trkpt lat="48.431235" lon="2.689697"><ele></ele><time>2024-6-8T6:30:48Z</time></trkpt>
<trkpt lat="48.431255" lon="2.689829"><ele></ele><time>2024-6-8T6:30:51Z</time></trkpt>
<trkpt lat="48.431249" lon="2.689967"><ele></ele><time>2024-6-8T6:30:54Z</time></trkpt>
<trkpt lat="48.431293" lon="2.69013"><ele></ele><time>2024-6-8T6:30:57Z</time></trkpt>
<trkpt lat="48.431303" lon="2.690297"><ele></ele><time>2024-6-8T6:31:0Z</time></trkpt>
<trkpt lat="48.431344" lon="2.690452"><ele></ele><time>2024-6-8T6:31:3Z</time></trkpt>
<trkpt lat="48.431417" lon="2.690604"><ele></ele><time>2024-6-8T6:31:6Z</time></trkpt>
<trkpt lat="48.431481" lon="2.690729"><ele></ele><time>2024-6-8T6:31:9Z</time></trkpt>
<trkpt lat="48.431533" lon="2.690862"><ele></ele><time>2024-6-8T6:31:12Z</time></trkpt>
<trkpt lat="48.43159" lon="2.690983"><ele></ele><time>2024-6-8T6:31:15Z</time></trkpt>
<trkpt lat="48.431689" lon="2.691112"><ele></ele><time>2024-6-8T6:31:18Z</time></trkpt>
<trkpt lat="48.431761" lon="2.691227"><ele></ele><time>2024-6-8T6:31:21Z</time></trkpt>
<trkpt lat="48.431825" lon="2.69136"><ele></ele><time>2024-6-8T6:31:24Z</time></trkpt>
<trkpt lat="48.431906" lon="2.691505"><ele></ele><time>2024-6-8T6:31:27Z</time></trkpt>
<trkpt lat="48.431984" lon="2.69164"><ele></ele><time>2024-6-8T6:31:30Z</time></trkpt>
<trkpt lat="48.432038" lon="2.691756"><ele></ele><time>2024-6-8T6:31:33Z</time></trkpt>
<trkpt lat="48.432095" lon="2.691879"><ele></ele><time>2024-6-8T6:31:36Z</time></trkpt>
<trkpt lat="48.432177" lon="2.692026"><ele></ele><time>2024-6-8T6:31:39Z</time></trkpt>
<trkpt lat="48.432244" lon="2.69215"><ele></ele><time>2024-6-8T6:31:42Z</time></trkpt>
<trkpt lat="48.432307" lon="2.692299"><ele></ele><time>2024-6-8T6:31:45Z</time></trkpt>
<trkpt lat="48.432381" lon="2.692442"><ele></ele><time>2024-6-8T6:31:48Z</time></trkpt>
<trkpt lat="48.432448" lon="2.692573"><ele></ele><time>2024-6-8T6:31:51Z</time></trkpt>
<trkpt lat="48.43253" lon="2.692718"><ele></ele><time>2024-6-8T6:31:54Z</time></trkpt>
<trkpt lat="48.4326" lon="2.692867"><ele></ele><time>2024-6-8T6:31:57Z</time></trkpt>
<trkpt lat="48.432688" lon="2.693007"><ele></ele><time>2024-6-8T6:32:0Z</time></trkpt>
<trkpt lat="48.432768" lon="2.693153"><ele></ele><time>2024-6-8T6:32:3Z</time></trkpt>
<trkpt lat="48.432831" lon="2.693273"><ele></ele><time>2024-6-8T6:32:6Z</time></trkpt>
<trkpt lat="48.432917" lon="2.693407"><ele></ele><time>2024-6-8T6:32:9Z</time></trkpt>
<trkpt lat="48.433" lon="2.693548"><ele></ele><time>2024-6-8T6:32:12Z</time></trkpt>
<trkpt lat="48.433089" lon="2.69369"><ele></ele><time>2024-6-8T6:32:15Z</time></trkpt>
<trkpt lat="48.433169" lon="2.693836"><ele></ele><time>2024-6-8T6:32:18Z</time></trkpt>
<trkpt lat="48.433238" lon="2.693986"><ele></ele><time>2024-6-8T6:32:21Z</time></trkpt>
<trkpt lat="48.433324" lon="2.69412"><ele></ele><time>2024-6-8T6:32:24Z</time></trkpt>
<trkpt lat="48.433407" lon="2.694248"><ele></ele><time>2024-6-8T6:32:27Z</time></trkpt>
<trkpt lat="48.433475" lon="2.694387"><ele></ele><time>2024-6-8T6:32:30Z</time></trkpt>
<trkpt lat="48.433543" lon="2.694521"><ele></ele><time>2024-6-8T6:32:33Z</time></trkpt>
<trkpt lat="48.43362" lon="2.694651"><ele></ele><time>2024-6-8T6:32:36Z</time></trkpt>
<trkpt lat="48.433698" lon="2.694793"><ele></ele><time>2024-6-8T6:32:39Z</time></trkpt>
<trkpt lat="48.433773" lon="2.694924"><ele></ele><time>2024-6-8T6:32:42Z</time></trkpt>
<trkpt lat="48.43384" lon="2.695053"><ele></ele><time>2024-6-8T6:32:45Z</time></trkpt>
<trkpt lat="48.4339" lon="2.695166"><ele></ele><time>2024-6-8T6:32:48Z</time></trkpt>
<trkpt lat="48.433972" lon="2.695284"><ele></ele><time>2024-6-8T6:32:51Z</time></trkpt>
<trkpt lat="48.434036" lon="2.695413"><ele></ele><time>2024-6-8T6:32:54Z</time></trkpt>
<trkpt lat="48.434099" lon="2.695555"><ele></ele><time>2024-6-8T6:32:57Z</time></trkpt>
<trkpt lat="48.434176" lon="2.695677"><ele></ele><time>2024-6-8T6:33:0Z</time></trkpt>
<trkpt lat="48.434249" lon="2.695811"><ele></ele><time>2024-6-8T6:33:3Z</time></trkpt>
<trkpt lat="48.434321" lon="2.695946"><ele></ele><time>2024-6-8T6:33:6Z</time></trkpt>
<trkpt lat="48.43439" lon="2.69606"><ele></ele><time>2024-6-8T6:33:9Z</time></trkpt>
<trkpt lat="48.434444" lon="2.696171"><ele></ele><time>2024-6-8T6:33:12Z</time></trkpt>
<trkpt lat="48.434508" lon="2.696307"><ele></ele><time>2024-6-8T6:33:15Z</time></trkpt>
<trkpt lat="48.43458" lon="2.696406"><ele></ele><time>2024-6-8T6:33:18Z</time></trkpt>
<trkpt lat="48.434692" lon="2.696448"><ele></ele><time>2024-6-8T6:33:21Z</time></trkpt>
<trkpt lat="48.434779" lon="2.696491"><ele></ele><time>2024-6-8T6:33:24Z</time></trkpt>
<trkpt lat="48.434863" lon="2.696546"><ele></ele><time>2024-6-8T6:33:27Z</time></trkpt>
<trkpt lat="48.43496" lon="2.696581"><ele></ele><time>2024-6-8T6:33:30Z</time></trkpt>
<trkpt lat="48.435058" lon="2.696612"><ele></ele><time>2024-6-8T6:33:33Z</time></trkpt>
<trkpt lat="48.435176" lon="2.696662"><ele></ele><time>2024-6-8T6:33:36Z</time></trkpt>
<trkpt lat="48.435266" lon="2.696741"><ele></ele><time>2024-6-8T6:33:39Z</time></trkpt>
<trkpt lat="48.43536" lon="2.696803"><ele></ele><time>2024-6-8T6:33:42Z</time></trkpt>
<trkpt lat="48.435453" lon="2.696825"><ele></ele><time>2024-6-8T6:33:45Z</time></trkpt>
<trkpt lat="48.435551" lon="2.696864"><ele></ele><time>2024-6-8T6:33:48Z</time></trkpt>
<trkpt lat="48.435646" lon="2.696926"><ele></ele><time>2024-6-8T6:33:51Z</time></trkpt>
<trkpt lat="48.435739" lon="2.696967"><ele></ele><time>2024-6-8T6:33:54Z</time></trkpt>
<trkpt lat="48.435828" lon="2.697006"><ele></ele><time>2024-6-8T6:33:57Z</time></trkpt>
<trkpt lat="48.435925" lon="2.697028"><ele></ele><time>2024-6-8T6:34:0Z</time></trkpt>
<trkpt lat="48.436022" lon="2.69706"><ele></ele><time>2024-6-8T6:34:3Z</time></trkpt>
<trkpt lat="48.436126" lon="2.697102"><ele></ele><time>2024-6-8T6:34:6Z</time></trkpt>
<trkpt lat="48.436216" lon="2.697161"><ele></ele><time>2024-6-8T6:34:9Z</time></trkpt>
<trkpt lat="48.436315" lon="2.697199"><ele></ele><time>2024-6-8T6:34:12Z</time></trkpt>
<trkpt lat="48.43641" lon="2.697216"><ele></ele><time>2024-6-8T6:34:15Z</time></trkpt>
<trkpt lat="48.436504" lon="2.697256"><ele></ele><time>2024-6-8T6:34:18Z</time></trkpt>
<trkpt lat="48.436601" lon="2.697321"><ele></ele><time>2024-6-8T6:34:21Z</time></trkpt>
<trkpt lat="48.436689" lon="2.697359"><ele></ele><time>2024-6-8T6:34:24Z</time></trkpt>
<trkpt lat="48.436792" lon="2.697392"><ele></ele><time>2024-6-8T6:34:27Z</time></trkpt>
<trkpt lat="48.436876" lon="2.697448"><ele></ele><time>2024-6-8T6:34:30Z</time></trkpt>
<trkpt lat="48.436963" lon="2.697515"><ele></ele><time>2024-6-8T6:34:33Z</time></trkpt>
<trkpt lat="48.437052" lon="2.697544"><ele></ele><time>2024-6-8T6:34:36Z</time></trkpt>
<trkpt lat="48.43716" lon="2.69759"><ele></ele><time>2024-6-8T6:34:39Z</time></trkpt>
<trkpt lat="48.437255" lon="2.697674"><ele></ele><time>2024-6-8T6:34:42Z</time></trkpt>
<trkpt lat="48.43736" lon="2.697694"><ele></ele><time>2024-6-8T6:34:45Z</time></trkpt>
<trkpt lat="48.437452" lon="2.697729"><ele></ele><time>2024-6-8T6:34:48Z</time></trkpt>
<trkpt lat="48.437548" lon="2.697801"><ele></ele><time>2024-6-8T6:34:51Z</time></trkpt>
<trkpt lat="48.437642" lon="2.697881"><ele></ele><time>2024-6-8T6:34:54Z</time></trkpt>
<trkpt lat="48.437727" lon="2.697948"><ele></ele><time>2024-6-8T6:34:57Z</time></trkpt>
<trkpt lat="48.437811" lon="2.69804"><ele></ele><time>2024-6-8T6:35:0Z</time></trkpt>
<trkpt lat="48.437869" lon="2.69815"><ele></ele><time>2024-6-8T6:35:3Z</time></trkpt>
<trkpt lat="48.437963" lon="2.698196"><ele></ele><time>2024-6-8T6:35:6Z</time></trkpt>
<trkpt lat="48.438072" lon="2.698192"><ele></ele><time>2024-6-8T6:35:9Z</time></trkpt>
<trkpt lat="48.438162" lon="2.698171"><ele></ele><time>2024-6-8T6:35:12Z</time></trkpt>
<trkpt lat="48.43825" lon="2.698098"><ele></ele><time>2024-6-8T6:35:15Z</time></trkpt>
<trkpt lat="48.438331" lon="2.69801"><ele></ele><time>2024-6-8T6:35:18Z</time></trkpt>
<trkpt lat="48.438411" lon="2.697913"><ele></ele><time>2024-6-8T6:35:21Z</time></trkpt>
<trkpt lat="48.438504" lon="2.697805"><ele></ele><time>2024-6-8T6:35:24Z</time></trkpt>
<trkpt lat="48.438625" lon="2.697716"><ele></ele><time>2024-6-8T6:35:27Z</time></trkpt>
<trkpt lat="48.438737" lon="2.697645"><ele></ele><time>2024-6-8T6:35:30Z</time></trkpt>
<trkpt lat="48.438862" lon="2.697648"><ele></ele><time>2024-6-8T6:35:33Z</time></trkpt>
<trkpt lat="48.43896" lon="2.697661"><ele></ele><time>2024-6-8T6:35:36Z</time></trkpt>
<trkpt lat="48.439052" lon="2.697638"><ele></ele><time>2024-6-8T6:35:39Z</time></trkpt>
<trkpt lat="48.439159" lon="2.697653"><ele></ele><time>2024-6-8T6:35:42Z</time></trkpt>
<trkpt lat="48.439256" lon="2.697678"><ele></ele><time>2024-6-8T6:35:45Z</time></trkpt>
<trkpt lat="48.439387" lon="2.697668"><ele></ele><time>2024-6-8T6:35:48Z</time></trkpt>
<trkpt lat="48.439549" lon="2.697674"><ele></ele><time>2024-6-8T6:35:51Z</time></trkpt>
<trkpt lat="48.439685" lon="2.697715"><ele></ele><time>2024-6-8T6:35:54Z</time></trkpt>
<trkpt lat="48.439841" lon="2.697747"><ele></ele><time>2024-6-8T6:35:57Z</time></trkpt>
<trkpt lat="48.439993" lon="2.697808"><ele></ele><time>2024-6-8T6:36:0Z</time></trkpt>
<trkpt lat="48.440121" lon="2.697836"><ele></ele><time>2024-6-8T6:36:3Z</time></trkpt>
<trkpt lat="48.440226" lon="2.697853"><ele></ele><time>2024-6-8T6:36:6Z</time></trkpt>
<trkpt lat="48.440343" lon="2.697901"><ele></ele><time>2024-6-8T6:36:9Z</time></trkpt>
<trkpt lat="48.440406" lon="2.698019"><ele></ele><time>2024-6-8T6:36:12Z</time></trkpt>
<trkpt lat="48.44044" lon="2.698167"><ele></ele><time>2024-6-8T6:36:15Z</time></trkpt>
<trkpt lat="48.440402" lon="2.698302"><ele></ele><time>2024-6-8T6:36:18Z</time></trkpt>
<trkpt lat="48.440391" lon="2.698443"><ele></ele><time>2024-6-8T6:36:21Z</time></trkpt>
<trkpt lat="48.440379" lon="2.698592"><ele></ele><time>2024-6-8T6:36:24Z</time></trkpt>
<trkpt lat="48.440351" lon="2.698732"><ele></ele><time>2024-6-8T6:36:27Z</time></trkpt>
<trkpt lat="48.440338" lon="2.698873"><ele></ele><time>2024-6-8T6:36:30Z</time></trkpt>
<trkpt lat="48.440309" lon="2.699039"><ele></ele><time>2024-6-8T6:36:33Z</time></trkpt>
<trkpt lat="48.440315" lon="2.69918"><ele></ele><time>2024-6-8T6:36:36Z</time></trkpt>
<trkpt lat="48.440305" lon="2.699374"><ele></ele><time>2024-6-8T6:36:39Z</time></trkpt>
<trkpt lat="48.440289" lon="2.699527"><ele></ele><time>2024-6-8T6:36:42Z</time></trkpt>
<trkpt lat="48.440266" lon="2.699674"><ele></ele><time>2024-6-8T6:36:45Z</time></trkpt>
<trkpt lat="48.440228" lon="2.699829"><ele></ele><time>2024-6-8T6:36:48Z</time></trkpt>
<trkpt lat="48.440181" lon="2.7"><ele></ele><time>2024-6-8T6:36:51Z</time></trkpt>
<trkpt lat="48.440134" lon="2.700149"><ele></ele><time>2024-6-8T6:36:54Z</time></trkpt>
<trkpt lat="48.440158" lon="2.700314"><ele></ele><time>2024-6-8T6:36:57Z</time></trkpt>
<trkpt lat="48.440128" lon="2.700472"><ele></ele><time>2024-6-8T6:37:0Z</time></trkpt>
<trkpt lat="48.440083" lon="2.700631"><ele></ele><time>2024-6-8T6:37:3Z</time></trkpt>
<trkpt lat="48.440065" lon="2.700781"><ele></ele><time>2024-6-8T6:37:6Z</time></trkpt>
<trkpt lat="48.440079" lon="2.700955"><ele></ele><time>2024-6-8T6:37:9Z</time></trkpt>
<trkpt lat="48.440051" lon="2.70109"><ele></ele><time>2024-6-8T6:37:12Z</time></trkpt>
<trkpt lat="48.440036" lon="2.701237"><ele></ele><time>2024-6-8T6:37:15Z</time></trkpt>
<trkpt lat="48.440071" lon="2.701371"><ele></ele><time>2024-6-8T6:37:18Z</time></trkpt>
<trkpt lat="48.440027" lon="2.701526"><ele></ele><time>2024-6-8T6:37:21Z</time></trkpt>
<trkpt lat="48.439959" lon="2.701665"><ele></ele><time>2024-6-8T6:37:24Z</time></trkpt>
<trkpt lat="48.439921" lon="2.701802"><ele></ele><time>2024-6-8T6:37:27Z</time></trkpt>
<trkpt lat="48.43989" lon="2.701957"><ele></ele><time>2024-6-8T6:37:30Z</time></trkpt>
<trkpt lat="48.439835" lon="2.702085"><ele></ele><time>2024-6-8T6:37:33Z</time></trkpt>
<trkpt lat="48.439843" lon="2.702223"><ele></ele><time>2024-6-8T6:37:36Z</time></trkpt>
<trkpt lat="48.439891" lon="2.702381"><ele></ele><time>2024-6-8T6:37:39Z</time></trkpt>
<trkpt lat="48.439889" lon="2.702523"><ele></ele><time>2024-6-8T6:37:42Z</time></trkpt>
<trkpt lat="48.439838" lon="2.702678"><ele></ele><time>2024-6-8T6:37:45Z</time></trkpt>
<trkpt lat="48.439805" lon="2.702833"><ele></ele><time>2024-6-8T6:37:48Z</time></trkpt>
<trkpt lat="48.43975" lon="2.702969"><ele></ele><time>2024-6-8T6:37:51Z</time></trkpt>
<trkpt lat="48.439672" lon="2.703084"><ele></ele><time>2024-6-8T6:37:54Z</time></trkpt>
<trkpt lat="48.439565" lon="2.70314"><ele></ele><time>2024-6-8T6:37:57Z</time></trkpt>
<trkpt lat="48.439469" lon="2.703198"><ele></ele><time>2024-6-8T6:38:0Z</time></trkpt>
<trkpt lat="48.439387" lon="2.703256"><ele></ele><time>2024-6-8T6:38:3Z</time></trkpt>
<trkpt lat="48.439304" lon="2.703356"><ele></ele><time>2024-6-8T6:38:6Z</time></trkpt>
<trkpt lat="48.439229" lon="2.703489"><ele></ele><time>2024-6-8T6:38:9Z</time></trkpt>
<trkpt lat="48.43921" lon="2.70364"><ele></ele><time>2024-6-8T6:38:12Z</time></trkpt>
<trkpt lat="48.439221" lon="2.703778"><ele></ele><time>2024-6-8T6:38:15Z</time></trkpt>
<trkpt lat="48.439228" lon="2.703948"><ele></ele><time>2024-6-8T6:38:18Z</time></trkpt>
<trkpt lat="48.439227" lon="2.704104"><ele></ele><time>2024-6-8T6:38:21Z</time></trkpt>
<trkpt lat="48.439249" lon="2.704254"><ele></ele><time>2024-6-8T6:38:24Z</time></trkpt>
<trkpt lat="48.439267" lon="2.70439"><ele></ele><time>2024-6-8T6:38:27Z</time></trkpt>
<trkpt lat="48.439287" lon="2.704563"><ele></ele><time>2024-6-8T6:38:30Z</time></trkpt>
<trkpt lat="48.439316" lon="2.704702"><ele></ele><time>2024-6-8T6:38:33Z</time></trkpt>
<trkpt lat="48.439317" lon="2.704851"><ele></ele><time>2024-6-8T6:38:36Z</time></trkpt>
<trkpt lat="48.439308" lon="2.704996"><ele></ele><time>2024-6-8T6:38:39Z</time></trkpt>
<trkpt lat="48.439278" lon="2.705146"><ele></ele><time>2024-6-8T6:38:42Z</time></trkpt>
<trkpt lat="48.439229" lon="2.705269"><ele></ele><time>2024-6-8T6:38:45Z</time></trkpt>
<trkpt lat="48.43922" lon="2.705405"><ele></ele><time>2024-6-8T6:38:48Z</time></trkpt>
<trkpt lat="48.439197" lon="2.705414"><ele></ele><time>2024-6-8T6:38:51Z</time></trkpt>
<trkpt lat="48.439197" lon="2.705418"><ele></ele><time>2024-6-8T6:38:54Z</time></trkpt>
<trkpt lat="48.439196" lon="2.70542"><ele></ele><time>2024-6-8T6:38:57Z</time></trkpt>
<trkpt lat="48.439196" lon="2.70542"><ele></ele><time>2024-6-8T6:39:0Z</time></trkpt>
<trkpt lat="48.439194" lon="2.705419"><ele></ele><time>2024-6-8T6:39:3Z</time></trkpt>
<trkpt lat="48.439194" lon="2.705418"><ele></ele><time>2024-6-8T6:39:6Z</time></trkpt>
<trkpt lat="48.439193" lon="2.705417"><ele></ele><time>2024-6-8T6:39:9Z</time></trkpt>
<trkpt lat="48.439193" lon="2.705416"><ele></ele><time>2024-6-8T6:39:12Z</time></trkpt>
<trkpt lat="48.439202" lon="2.705424"><ele></ele><time>2024-6-8T6:39:15Z</time></trkpt>
<trkpt lat="48.439206" lon="2.705422"><ele></ele><time>2024-6-8T6:39:18Z</time></trkpt>
<trkpt lat="48.439206" lon="2.70542"><ele></ele><time>2024-6-8T6:39:21Z</time></trkpt>
<trkpt lat="48.439206" lon="2.705419"><ele></ele><time>2024-6-8T6:39:24Z</time></trkpt>
<trkpt lat="48.439204" lon="2.705412"><ele></ele><time>2024-6-8T6:39:27Z</time></trkpt>
<trkpt lat="48.439202" lon="2.705408"><ele></ele><time>2024-6-8T6:39:30Z</time></trkpt>
<trkpt lat="48.439201" lon="2.705408"><ele></ele><time>2024-6-8T6:39:33Z</time></trkpt>
<trkpt lat="48.4392" lon="2.705408"><ele></ele><time>2024-6-8T6:39:36Z</time></trkpt>
<trkpt lat="48.439201" lon="2.705409"><ele></ele><time>2024-6-8T6:39:39Z</time></trkpt>
<trkpt lat="48.439215" lon="2.705406"><ele></ele><time>2024-6-8T6:39:42Z</time></trkpt>
<trkpt lat="48.439213" lon="2.705438"><ele></ele><time>2024-6-8T6:39:45Z</time></trkpt>
<trkpt lat="48.439216" lon="2.705433"><ele></ele><time>2024-6-8T6:39:48Z</time></trkpt>
<trkpt lat="48.439217" lon="2.705426"><ele></ele><time>2024-6-8T6:39:51Z</time></trkpt>
<trkpt lat="48.439218" lon="2.705422"><ele></ele><time>2024-6-8T6:39:54Z</time></trkpt>
<trkpt lat="48.43918" lon="2.705369"><ele></ele><time>2024-6-8T6:39:57Z</time></trkpt>
<trkpt lat="48.439181" lon="2.705373"><ele></ele><time>2024-6-8T6:40:0Z</time></trkpt>
<trkpt lat="48.439183" lon="2.705375"><ele></ele><time>2024-6-8T6:40:3Z</time></trkpt>
<trkpt lat="48.439189" lon="2.705368"><ele></ele><time>2024-6-8T6:40:6Z</time></trkpt>
<trkpt lat="48.439191" lon="2.705369"><ele></ele><time>2024-6-8T6:40:9Z</time></trkpt>
<trkpt lat="48.439192" lon="2.70537"><ele></ele><time>2024-6-8T6:40:12Z</time></trkpt>
<trkpt lat="48.439221" lon="2.705422"><ele></ele><time>2024-6-8T6:40:15Z</time></trkpt>
<trkpt lat="48.439222" lon="2.705422"><ele></ele><time>2024-6-8T6:40:18Z</time></trkpt>
<trkpt lat="48.439226" lon="2.705416"><ele></ele><time>2024-6-8T6:40:21Z</time></trkpt>
<trkpt lat="48.439225" lon="2.705415"><ele></ele><time>2024-6-8T6:40:24Z</time></trkpt>
<trkpt lat="48.439226" lon="2.705402"><ele></ele><time>2024-6-8T6:40:27Z</time></trkpt>
<trkpt lat="48.439226" lon="2.705385"><ele></ele><time>2024-6-8T6:40:30Z</time></trkpt>
<trkpt lat="48.439226" lon="2.705382"><ele></ele><time>2024-6-8T6:40:33Z</time></trkpt>
<trkpt lat="48.439225" lon="2.705379"><ele></ele><time>2024-6-8T6:40:36Z</time></trkpt>
<trkpt lat="48.439225" lon="2.705376"><ele></ele><time>2024-6-8T6:40:39Z</time></trkpt>
<trkpt lat="48.439226" lon="2.705374"><ele></ele><time>2024-6-8T6:40:42Z</time></trkpt>
<trkpt lat="48.439228" lon="2.705375"><ele></ele><time>2024-6-8T6:40:45Z</time></trkpt>
<trkpt lat="48.439229" lon="2.705377"><ele></ele><time>2024-6-8T6:40:48Z</time></trkpt>
<trkpt lat="48.439241" lon="2.705451"><ele></ele><time>2024-6-8T6:40:51Z</time></trkpt>
<trkpt lat="48.439239" lon="2.705454"><ele></ele><time>2024-6-8T6:40:54Z</time></trkpt>
<trkpt lat="48.439237" lon="2.705456"><ele></ele><time>2024-6-8T6:40:57Z</time></trkpt>
<trkpt lat="48.439231" lon="2.705464"><ele></ele><time>2024-6-8T6:41:0Z</time></trkpt>
<trkpt lat="48.439219" lon="2.705473"><ele></ele><time>2024-6-8T6:41:3Z</time></trkpt>
<trkpt lat="48.439216" lon="2.705463"><ele></ele><time>2024-6-8T6:41:6Z</time></trkpt>
<trkpt lat="48.439215" lon="2.705458"><ele></ele><time>2024-6-8T6:41:9Z</time></trkpt>
<trkpt lat="48.439243" lon="2.705453"><ele></ele><time>2024-6-8T6:41:12Z</time></trkpt>
<trkpt lat="48.439241" lon="2.70546"><ele></ele><time>2024-6-8T6:41:15Z</time></trkpt>
<trkpt lat="48.43924" lon="2.705463"><ele></ele><time>2024-6-8T6:41:18Z</time></trkpt>
<trkpt lat="48.439235" lon="2.705467"><ele></ele><time>2024-6-8T6:41:21Z</time></trkpt>
<trkpt lat="48.439197" lon="2.705591"><ele></ele><time>2024-6-8T6:41:24Z</time></trkpt>
<trkpt lat="48.439169" lon="2.705721"><ele></ele><time>2024-6-8T6:41:27Z</time></trkpt>
<trkpt lat="48.439135" lon="2.705865"><ele></ele><time>2024-6-8T6:41:30Z</time></trkpt>
<trkpt lat="48.439114" lon="2.70602"><ele></ele><time>2024-6-8T6:41:33Z</time></trkpt>
<trkpt lat="48.439094" lon="2.706159"><ele></ele><time>2024-6-8T6:41:36Z</time></trkpt>
<trkpt lat="48.439082" lon="2.706329"><ele></ele><time>2024-6-8T6:41:39Z</time></trkpt>
<trkpt lat="48.439073" lon="2.706484"><ele></ele><time>2024-6-8T6:41:42Z</time></trkpt>
<trkpt lat="48.439054" lon="2.706638"><ele></ele><time>2024-6-8T6:41:45Z</time></trkpt>
<trkpt lat="48.439006" lon="2.706788"><ele></ele><time>2024-6-8T6:41:48Z</time></trkpt>
<trkpt lat="48.438953" lon="2.706917"><ele></ele><time>2024-6-8T6:41:51Z</time></trkpt>
<trkpt lat="48.438946" lon="2.707053"><ele></ele><time>2024-6-8T6:41:54Z</time></trkpt>
<trkpt lat="48.438901" lon="2.707197"><ele></ele><time>2024-6-8T6:41:57Z</time></trkpt>
<trkpt lat="48.43886" lon="2.707319"><ele></ele><time>2024-6-8T6:42:0Z</time></trkpt>
<trkpt lat="48.43882" lon="2.707461"><ele></ele><time>2024-6-8T6:42:3Z</time></trkpt>
<trkpt lat="48.438815" lon="2.707606"><ele></ele><time>2024-6-8T6:42:6Z</time></trkpt>
<trkpt lat="48.438814" lon="2.707761"><ele></ele><time>2024-6-8T6:42:9Z</time></trkpt>
<trkpt lat="48.438796" lon="2.707919"><ele></ele><time>2024-6-8T6:42:12Z</time></trkpt>
<trkpt lat="48.438764" lon="2.708069"><ele></ele><time>2024-6-8T6:42:15Z</time></trkpt>
<trkpt lat="48.438713" lon="2.708197"><ele></ele><time>2024-6-8T6:42:18Z</time></trkpt>
<trkpt lat="48.438706" lon="2.708353"><ele></ele><time>2024-6-8T6:42:21Z</time></trkpt>
<trkpt lat="48.43866" lon="2.70851"><ele></ele><time>2024-6-8T6:42:24Z</time></trkpt>
<trkpt lat="48.438646" lon="2.708672"><ele></ele><time>2024-6-8T6:42:27Z</time></trkpt>
<trkpt lat="48.438621" lon="2.708806"><ele></ele><time>2024-6-8T6:42:30Z</time></trkpt>
<trkpt lat="48.438603" lon="2.708965"><ele></ele><time>2024-6-8T6:42:33Z</time></trkpt>
<trkpt lat="48.438555" lon="2.709112"><ele></ele><time>2024-6-8T6:42:36Z</time></trkpt>
<trkpt lat="48.438494" lon="2.709264"><ele></ele><time>2024-6-8T6:42:39Z</time></trkpt>
<trkpt lat="48.438458" lon="2.70941"><ele></ele><time>2024-6-8T6:42:42Z</time></trkpt>
<trkpt lat="48.438436" lon="2.709604"><ele></ele><time>2024-6-8T6:42:45Z</time></trkpt>
<trkpt lat="48.438398" lon="2.709782"><ele></ele><time>2024-6-8T6:42:48Z</time></trkpt>
<trkpt lat="48.438354" lon="2.709999"><ele></ele><time>2024-6-8T6:42:51Z</time></trkpt>
<trkpt lat="48.438319" lon="2.710173"><ele></ele><time>2024-6-8T6:42:54Z</time></trkpt>
<trkpt lat="48.438278" lon="2.710344"><ele></ele><time>2024-6-8T6:42:57Z</time></trkpt>
<trkpt lat="48.438259" lon="2.710509"><ele></ele><time>2024-6-8T6:43:0Z</time></trkpt>
<trkpt lat="48.438232" lon="2.710705"><ele></ele><time>2024-6-8T6:43:3Z</time></trkpt>
<trkpt lat="48.438198" lon="2.710904"><ele></ele><time>2024-6-8T6:43:6Z</time></trkpt>
<trkpt lat="48.438166" lon="2.711091"><ele></ele><time>2024-6-8T6:43:9Z</time></trkpt>
<trkpt lat="48.438108" lon="2.711297"><ele></ele><time>2024-6-8T6:43:12Z</time></trkpt>
<trkpt lat="48.438065" lon="2.711535"><ele></ele><time>2024-6-8T6:43:15Z</time></trkpt>
<trkpt lat="48.438047" lon="2.711768"><ele></ele><time>2024-6-8T6:43:18Z</time></trkpt>
<trkpt lat="48.437996" lon="2.711988"><ele></ele><time>2024-6-8T6:43:21Z</time></trkpt>
<trkpt lat="48.437978" lon="2.712212"><ele></ele><time>2024-6-8T6:43:24Z</time></trkpt>
<trkpt lat="48.437968" lon="2.7124"><ele></ele><time>2024-6-8T6:43:27Z</time></trkpt>
<trkpt lat="48.437952" lon="2.712602"><ele></ele><time>2024-6-8T6:43:30Z</time></trkpt>
<trkpt lat="48.437912" lon="2.712787"><ele></ele><time>2024-6-8T6:43:33Z</time></trkpt>
<trkpt lat="48.43788" lon="2.712955"><ele></ele><time>2024-6-8T6:43:36Z</time></trkpt>
<trkpt lat="48.437856" lon="2.713124"><ele></ele><time>2024-6-8T6:43:39Z</time></trkpt>
<trkpt lat="48.437838" lon="2.713267"><ele></ele><time>2024-6-8T6:43:42Z</time></trkpt>
<trkpt lat="48.437808" lon="2.713461"><ele></ele><time>2024-6-8T6:43:45Z</time></trkpt>
<trkpt lat="48.437796" lon="2.713625"><ele></ele><time>2024-6-8T6:43:48Z</time></trkpt>
<trkpt lat="48.437779" lon="2.713845"><ele></ele><time>2024-6-8T6:43:51Z</time></trkpt>
<trkpt lat="48.437757" lon="2.713982"><ele></ele><time>2024-6-8T6:43:54Z</time></trkpt>
<trkpt lat="48.437721" lon="2.71412"><ele></ele><time>2024-6-8T6:43:57Z</time></trkpt>
<trkpt lat="48.437686" lon="2.714293"><ele></ele><time>2024-6-8T6:44:0Z</time></trkpt>
<trkpt lat="48.437655" lon="2.714462"><ele></ele><time>2024-6-8T6:44:3Z</time></trkpt>
<trkpt lat="48.437654" lon="2.714617"><ele></ele><time>2024-6-8T6:44:6Z</time></trkpt>
<trkpt lat="48.437643" lon="2.71479"><ele></ele><time>2024-6-8T6:44:9Z</time></trkpt>
<trkpt lat="48.437641" lon="2.714943"><ele></ele><time>2024-6-8T6:44:12Z</time></trkpt>
<trkpt lat="48.437628" lon="2.715091"><ele></ele><time>2024-6-8T6:44:15Z</time></trkpt>
<trkpt lat="48.437634" lon="2.715249"><ele></ele><time>2024-6-8T6:44:18Z</time></trkpt>
<trkpt lat="48.437603" lon="2.71542"><ele></ele><time>2024-6-8T6:44:21Z</time></trkpt>
<trkpt lat="48.437596" lon="2.715574"><ele></ele><time>2024-6-8T6:44:24Z</time></trkpt>
<trkpt lat="48.43757" lon="2.715716"><ele></ele><time>2024-6-8T6:44:27Z</time></trkpt>
<trkpt lat="48.43754" lon="2.715879"><ele></ele><time>2024-6-8T6:44:30Z</time></trkpt>
<trkpt lat="48.437508" lon="2.716017"><ele></ele><time>2024-6-8T6:44:33Z</time></trkpt>
<trkpt lat="48.437487" lon="2.716197"><ele></ele><time>2024-6-8T6:44:36Z</time></trkpt>
<trkpt lat="48.437484" lon="2.716361"><ele></ele><time>2024-6-8T6:44:39Z</time></trkpt>
<trkpt lat="48.437461" lon="2.71655"><ele></ele><time>2024-6-8T6:44:42Z</time></trkpt>
<trkpt lat="48.437445" lon="2.716706"><ele></ele><time>2024-6-8T6:44:45Z</time></trkpt>
<trkpt lat="48.437399" lon="2.716879"><ele></ele><time>2024-6-8T6:44:48Z</time></trkpt>
<trkpt lat="48.437372" lon="2.717056"><ele></ele><time>2024-6-8T6:44:51Z</time></trkpt>
<trkpt lat="48.437339" lon="2.717223"><ele></ele><time>2024-6-8T6:44:54Z</time></trkpt>
<trkpt lat="48.437334" lon="2.717359"><ele></ele><time>2024-6-8T6:44:57Z</time></trkpt>
<trkpt lat="48.437334" lon="2.71751"><ele></ele><time>2024-6-8T6:45:0Z</time></trkpt>
<trkpt lat="48.437314" lon="2.717689"><ele></ele><time>2024-6-8T6:45:3Z</time></trkpt>
<trkpt lat="48.437301" lon="2.717862"><ele></ele><time>2024-6-8T6:45:6Z</time></trkpt>
<trkpt lat="48.437279" lon="2.718043"><ele></ele><time>2024-6-8T6:45:9Z</time></trkpt>
<trkpt lat="48.437248" lon="2.718208"><ele></ele><time>2024-6-8T6:45:12Z</time></trkpt>
<trkpt lat="48.437227" lon="2.718365"><ele></ele><time>2024-6-8T6:45:15Z</time></trkpt>
<trkpt lat="48.437205" lon="2.718535"><ele></ele><time>2024-6-8T6:45:18Z</time></trkpt>
<trkpt lat="48.437178" lon="2.718698"><ele></ele><time>2024-6-8T6:45:21Z</time></trkpt>
<trkpt lat="48.43709" lon="2.718787"><ele></ele><time>2024-6-8T6:45:24Z</time></trkpt>
<trkpt lat="48.436994" lon="2.718738"><ele></ele><time>2024-6-8T6:45:27Z</time></trkpt>
<trkpt lat="48.436897" lon="2.718706"><ele></ele><time>2024-6-8T6:45:30Z</time></trkpt>
<trkpt lat="48.436795" lon="2.718647"><ele></ele><time>2024-6-8T6:45:33Z</time></trkpt>
<trkpt lat="48.436707" lon="2.718576"><ele></ele><time>2024-6-8T6:45:36Z</time></trkpt>
<trkpt lat="48.436622" lon="2.718491"><ele></ele><time>2024-6-8T6:45:39Z</time></trkpt>
<trkpt lat="48.436527" lon="2.718424"><ele></ele><time>2024-6-8T6:45:42Z</time></trkpt>
<trkpt lat="48.436415" lon="2.718376"><ele></ele><time>2024-6-8T6:45:45Z</time></trkpt>
<trkpt lat="48.436312" lon="2.718345"><ele></ele><time>2024-6-8T6:45:48Z</time></trkpt>
<trkpt lat="48.436221" lon="2.718308"><ele></ele><time>2024-6-8T6:45:51Z</time></trkpt>
<trkpt lat="48.436121" lon="2.718267"><ele></ele><time>2024-6-8T6:45:54Z</time></trkpt>
<trkpt lat="48.436024" lon="2.718238"><ele></ele><time>2024-6-8T6:45:57Z</time></trkpt>
<trkpt lat="48.435935" lon="2.718207"><ele></ele><time>2024-6-8T6:46:0Z</time></trkpt>
<trkpt lat="48.435836" lon="2.718175"><ele></ele><time>2024-6-8T6:46:3Z</time></trkpt>
<trkpt lat="48.435748" lon="2.71811"><ele></ele><time>2024-6-8T6:46:6Z</time></trkpt>
<trkpt lat="48.435664" lon="2.718051"><ele></ele><time>2024-6-8T6:46:9Z</time></trkpt>
<trkpt lat="48.435571" lon="2.718022"><ele></ele><time>2024-6-8T6:46:12Z</time></trkpt>
<trkpt lat="48.435472" lon="2.71795"><ele></ele><time>2024-6-8T6:46:15Z</time></trkpt>
<trkpt lat="48.435377" lon="2.717931"><ele></ele><time>2024-6-8T6:46:18Z</time></trkpt>
<trkpt lat="48.435285" lon="2.717899"><ele></ele><time>2024-6-8T6:46:21Z</time></trkpt>
<trkpt lat="48.435192" lon="2.717832"><ele></ele><time>2024-6-8T6:46:24Z</time></trkpt>
<trkpt lat="48.435106" lon="2.717791"><ele></ele><time>2024-6-8T6:46:27Z</time></trkpt>
<trkpt lat="48.435019" lon="2.717748"><ele></ele><time>2024-6-8T6:46:30Z</time></trkpt>
<trkpt lat="48.434922" lon="2.717686"><ele></ele><time>2024-6-8T6:46:33Z</time></trkpt>
<trkpt lat="48.434842" lon="2.717621"><ele></ele><time>2024-6-8T6:46:36Z</time></trkpt>
<trkpt lat="48.434753" lon="2.717553"><ele></ele><time>2024-6-8T6:46:39Z</time></trkpt>
<trkpt lat="48.434664" lon="2.717576"><ele></ele><time>2024-6-8T6:46:42Z</time></trkpt>
<trkpt lat="48.434571" lon="2.717568"><ele></ele><time>2024-6-8T6:46:45Z</time></trkpt>
<trkpt lat="48.434464" lon="2.717517"><ele></ele><time>2024-6-8T6:46:48Z</time></trkpt>
<trkpt lat="48.434332" lon="2.717434"><ele></ele><time>2024-6-8T6:46:51Z</time></trkpt>
<trkpt lat="48.434214" lon="2.717354"><ele></ele><time>2024-6-8T6:46:54Z</time></trkpt>
<trkpt lat="48.434085" lon="2.717301"><ele></ele><time>2024-6-8T6:46:57Z</time></trkpt>
<trkpt lat="48.433989" lon="2.717252"><ele></ele><time>2024-6-8T6:47:0Z</time></trkpt>
<trkpt lat="48.433882" lon="2.717196"><ele></ele><time>2024-6-8T6:47:3Z</time></trkpt>
<trkpt lat="48.433822" lon="2.717089"><ele></ele><time>2024-6-8T6:47:6Z</time></trkpt>
<trkpt lat="48.433822" lon="2.716937"><ele></ele><time>2024-6-8T6:47:9Z</time></trkpt>
<trkpt lat="48.433842" lon="2.716798"><ele></ele><time>2024-6-8T6:47:12Z</time></trkpt>
<trkpt lat="48.433843" lon="2.716651"><ele></ele><time>2024-6-8T6:47:15Z</time></trkpt>
<trkpt lat="48.433856" lon="2.716489"><ele></ele><time>2024-6-8T6:47:18Z</time></trkpt>
<trkpt lat="48.433887" lon="2.716327"><ele></ele><time>2024-6-8T6:47:21Z</time></trkpt>
<trkpt lat="48.433914" lon="2.716191"><ele></ele><time>2024-6-8T6:47:24Z</time></trkpt>
<trkpt lat="48.43394" lon="2.71602"><ele></ele><time>2024-6-8T6:47:27Z</time></trkpt>
<trkpt lat="48.433951" lon="2.715848"><ele></ele><time>2024-6-8T6:47:30Z</time></trkpt>
<trkpt lat="48.433971" lon="2.715712"><ele></ele><time>2024-6-8T6:47:33Z</time></trkpt>
<trkpt lat="48.433985" lon="2.715549"><ele></ele><time>2024-6-8T6:47:36Z</time></trkpt>
<trkpt lat="48.434013" lon="2.715413"><ele></ele><time>2024-6-8T6:47:39Z</time></trkpt>
<trkpt lat="48.434039" lon="2.715261"><ele></ele><time>2024-6-8T6:47:42Z</time></trkpt>
<trkpt lat="48.434078" lon="2.715121"><ele></ele><time>2024-6-8T6:47:45Z</time></trkpt>
<trkpt lat="48.434105" lon="2.714947"><ele></ele><time>2024-6-8T6:47:48Z</time></trkpt>
<trkpt lat="48.434114" lon="2.714811"><ele></ele><time>2024-6-8T6:47:51Z</time></trkpt>
<trkpt lat="48.434115" lon="2.714663"><ele></ele><time>2024-6-8T6:47:54Z</time></trkpt>
<trkpt lat="48.434123" lon="2.714512"><ele></ele><time>2024-6-8T6:47:57Z</time></trkpt>
<trkpt lat="48.434142" lon="2.714352"><ele></ele><time>2024-6-8T6:48:0Z</time></trkpt>
<trkpt lat="48.434173" lon="2.714202"><ele></ele><time>2024-6-8T6:48:3Z</time></trkpt>
<trkpt lat="48.434214" lon="2.714074"><ele></ele><time>2024-6-8T6:48:6Z</time></trkpt>
<trkpt lat="48.434243" lon="2.713926"><ele></ele><time>2024-6-8T6:48:9Z</time></trkpt>
<trkpt lat="48.434256" lon="2.713791"><ele></ele><time>2024-6-8T6:48:12Z</time></trkpt>
<trkpt lat="48.434259" lon="2.713675"><ele></ele><time>2024-6-8T6:48:15Z</time></trkpt>
<trkpt lat="48.434264" lon="2.713663"><ele></ele><time>2024-6-8T6:48:18Z</time></trkpt>
<trkpt lat="48.434273" lon="2.713641"><ele></ele><time>2024-6-8T6:48:21Z</time></trkpt>
<trkpt lat="48.434282" lon="2.713615"><ele></ele><time>2024-6-8T6:48:24Z</time></trkpt>
<trkpt lat="48.434286" lon="2.713583"><ele></ele><time>2024-6-8T6:48:27Z</time></trkpt>
<trkpt lat="48.43427" lon="2.713429"><ele></ele><time>2024-6-8T6:48:30Z</time></trkpt>
<trkpt lat="48.434321" lon="2.713306"><ele></ele><time>2024-6-8T6:48:33Z</time></trkpt>
<trkpt lat="48.434328" lon="2.713146"><ele></ele><time>2024-6-8T6:48:36Z</time></trkpt>
<trkpt lat="48.434353" lon="2.712984"><ele></ele><time>2024-6-8T6:48:39Z</time></trkpt>
<trkpt lat="48.434385" lon="2.712819"><ele></ele><time>2024-6-8T6:48:42Z</time></trkpt>
<trkpt lat="48.434413" lon="2.712652"><ele></ele><time>2024-6-8T6:48:45Z</time></trkpt>
<trkpt lat="48.434439" lon="2.71252"><ele></ele><time>2024-6-8T6:48:48Z</time></trkpt>
<trkpt lat="48.434462" lon="2.712381"><ele></ele><time>2024-6-8T6:48:51Z</time></trkpt>
<trkpt lat="48.434483" lon="2.712237"><ele></ele><time>2024-6-8T6:48:54Z</time></trkpt>
<trkpt lat="48.43451" lon="2.712048"><ele></ele><time>2024-6-8T6:48:57Z</time></trkpt>
<trkpt lat="48.434535" lon="2.7119"><ele></ele><time>2024-6-8T6:49:0Z</time></trkpt>
<trkpt lat="48.434565" lon="2.711742"><ele></ele><time>2024-6-8T6:49:3Z</time></trkpt>
<trkpt lat="48.43458" lon="2.711599"><ele></ele><time>2024-6-8T6:49:6Z</time></trkpt>
<trkpt lat="48.434599" lon="2.711413"><ele></ele><time>2024-6-8T6:49:9Z</time></trkpt>
<trkpt lat="48.434629" lon="2.71123"><ele></ele><time>2024-6-8T6:49:12Z</time></trkpt>
<trkpt lat="48.434648" lon="2.711081"><ele></ele><time>2024-6-8T6:49:15Z</time></trkpt>
<trkpt lat="48.43468" lon="2.710932"><ele></ele><time>2024-6-8T6:49:18Z</time></trkpt>
<trkpt lat="48.434711" lon="2.710795"><ele></ele><time>2024-6-8T6:49:21Z</time></trkpt>
<trkpt lat="48.434742" lon="2.71065"><ele></ele><time>2024-6-8T6:49:24Z</time></trkpt>
<trkpt lat="48.434766" lon="2.710503"><ele></ele><time>2024-6-8T6:49:27Z</time></trkpt>
<trkpt lat="48.434846" lon="2.710388"><ele></ele><time>2024-6-8T6:49:30Z</time></trkpt>
<trkpt lat="48.434941" lon="2.710466"><ele></ele><time>2024-6-8T6:49:33Z</time></trkpt>
<trkpt lat="48.435011" lon="2.710557"><ele></ele><time>2024-6-8T6:49:36Z</time></trkpt>
<trkpt lat="48.435084" lon="2.710653"><ele></ele><time>2024-6-8T6:49:39Z</time></trkpt>
<trkpt lat="48.435165" lon="2.710755"><ele></ele><time>2024-6-8T6:49:42Z</time></trkpt>
<trkpt lat="48.435256" lon="2.710783"><ele></ele><time>2024-6-8T6:49:45Z</time></trkpt>
<trkpt lat="48.435372" lon="2.710743"><ele></ele><time>2024-6-8T6:49:48Z</time></trkpt>
<trkpt lat="48.435465" lon="2.710681"><ele></ele><time>2024-6-8T6:49:51Z</time></trkpt>
<trkpt lat="48.435553" lon="2.710645"><ele></ele><time>2024-6-8T6:49:54Z</time></trkpt>
<trkpt lat="48.43564" lon="2.710599"><ele></ele><time>2024-6-8T6:49:57Z</time></trkpt>
<trkpt lat="48.435729" lon="2.710546"><ele></ele><time>2024-6-8T6:50:0Z</time></trkpt>
<trkpt lat="48.435821" lon="2.71049"><ele></ele><time>2024-6-8T6:50:3Z</time></trkpt>
<trkpt lat="48.43591" lon="2.710413"><ele></ele><time>2024-6-8T6:50:6Z</time></trkpt>
<trkpt lat="48.435972" lon="2.7103"><ele></ele><time>2024-6-8T6:50:9Z</time></trkpt>
<trkpt lat="48.436018" lon="2.710169"><ele></ele><time>2024-6-8T6:50:12Z</time></trkpt>
<trkpt lat="48.43608" lon="2.710072"><ele></ele><time>2024-6-8T6:50:15Z</time></trkpt>
<trkpt lat="48.436145" lon="2.709966"><ele></ele><time>2024-6-8T6:50:18Z</time></trkpt>
<trkpt lat="48.436202" lon="2.709838"><ele></ele><time>2024-6-8T6:50:21Z</time></trkpt>
<trkpt lat="48.436268" lon="2.709714"><ele></ele><time>2024-6-8T6:50:24Z</time></trkpt>
<trkpt lat="48.436333" lon="2.709606"><ele></ele><time>2024-6-8T6:50:27Z</time></trkpt>
<trkpt lat="48.436396" lon="2.709483"><ele></ele><time>2024-6-8T6:50:30Z</time></trkpt>
<trkpt lat="48.436455" lon="2.709379"><ele></ele><time>2024-6-8T6:50:33Z</time></trkpt>
<trkpt lat="48.436512" lon="2.709254"><ele></ele><time>2024-6-8T6:50:36Z</time></trkpt>
<trkpt lat="48.436575" lon="2.709149"><ele></ele><time>2024-6-8T6:50:39Z</time></trkpt>
<trkpt lat="48.436637" lon="2.709038"><ele></ele><time>2024-6-8T6:50:42Z</time></trkpt>
<trkpt lat="48.436698" lon="2.708926"><ele></ele><time>2024-6-8T6:50:45Z</time></trkpt>
<trkpt lat="48.436749" lon="2.708806"><ele></ele><time>2024-6-8T6:50:48Z</time></trkpt>
<trkpt lat="48.436824" lon="2.708698"><ele></ele><time>2024-6-8T6:50:51Z</time></trkpt>
<trkpt lat="48.436877" lon="2.708581"><ele></ele><time>2024-6-8T6:50:54Z</time></trkpt>
<trkpt lat="48.436934" lon="2.708474"><ele></ele><time>2024-6-8T6:50:57Z</time></trkpt>
<trkpt lat="48.437002" lon="2.708375"><ele></ele><time>2024-6-8T6:51:0Z</time></trkpt>
<trkpt lat="48.437086" lon="2.708314"><ele></ele><time>2024-6-8T6:51:3Z</time></trkpt>
<trkpt lat="48.437186" lon="2.708279"><ele></ele><time>2024-6-8T6:51:6Z</time></trkpt>
<trkpt lat="48.437294" lon="2.708279"><ele></ele><time>2024-6-8T6:51:9Z</time></trkpt>
<trkpt lat="48.437385" lon="2.708284"><ele></ele><time>2024-6-8T6:51:12Z</time></trkpt>
<trkpt lat="48.437477" lon="2.708352"><ele></ele><time>2024-6-8T6:51:15Z</time></trkpt>
<trkpt lat="48.437589" lon="2.708359"><ele></ele><time>2024-6-8T6:51:18Z</time></trkpt>
<trkpt lat="48.437691" lon="2.708292"><ele></ele><time>2024-6-8T6:51:21Z</time></trkpt>
<trkpt lat="48.43776" lon="2.708139"><ele></ele><time>2024-6-8T6:51:24Z</time></trkpt>
<trkpt lat="48.4378" lon="2.708008"><ele></ele><time>2024-6-8T6:51:27Z</time></trkpt>
<trkpt lat="48.437767" lon="2.707862"><ele></ele><time>2024-6-8T6:51:30Z</time></trkpt>
<trkpt lat="48.437701" lon="2.707736"><ele></ele><time>2024-6-8T6:51:33Z</time></trkpt>
<trkpt lat="48.437633" lon="2.707645"><ele></ele><time>2024-6-8T6:51:36Z</time></trkpt>
<trkpt lat="48.43754" lon="2.707589"><ele></ele><time>2024-6-8T6:51:39Z</time></trkpt>
<trkpt lat="48.437427" lon="2.707533"><ele></ele><time>2024-6-8T6:51:42Z</time></trkpt>
<trkpt lat="48.437335" lon="2.707493"><ele></ele><time>2024-6-8T6:51:45Z</time></trkpt>
<trkpt lat="48.437238" lon="2.707417"><ele></ele><time>2024-6-8T6:51:48Z</time></trkpt>
<trkpt lat="48.437156" lon="2.707363"><ele></ele><time>2024-6-8T6:51:51Z</time></trkpt>
<trkpt lat="48.437066" lon="2.707278"><ele></ele><time>2024-6-8T6:51:54Z</time></trkpt>
<trkpt lat="48.436992" lon="2.707188"><ele></ele><time>2024-6-8T6:51:57Z</time></trkpt>
<trkpt lat="48.436929" lon="2.707088"><ele></ele><time>2024-6-8T6:52:0Z</time></trkpt>
<trkpt lat="48.436942" lon="2.706922"><ele></ele><time>2024-6-8T6:52:3Z</time></trkpt>
<trkpt lat="48.436968" lon="2.706772"><ele></ele><time>2024-6-8T6:52:6Z</time></trkpt>
<trkpt lat="48.436997" lon="2.706637"><ele></ele><time>2024-6-8T6:52:9Z</time></trkpt>
<trkpt lat="48.437026" lon="2.706454"><ele></ele><time>2024-6-8T6:52:12Z</time></trkpt>
<trkpt lat="48.437077" lon="2.706302"><ele></ele><time>2024-6-8T6:52:15Z</time></trkpt>
<trkpt lat="48.437137" lon="2.706129"><ele></ele><time>2024-6-8T6:52:18Z</time></trkpt>
<trkpt lat="48.437183" lon="2.705991"><ele></ele><time>2024-6-8T6:52:21Z</time></trkpt>
<trkpt lat="48.437223" lon="2.705853"><ele></ele><time>2024-6-8T6:52:24Z</time></trkpt>
<trkpt lat="48.437316" lon="2.705777"><ele></ele><time>2024-6-8T6:52:27Z</time></trkpt>
<trkpt lat="48.437419" lon="2.705784"><ele></ele><time>2024-6-8T6:52:30Z</time></trkpt>
<trkpt lat="48.437513" lon="2.705821"><ele></ele><time>2024-6-8T6:52:33Z</time></trkpt>
<trkpt lat="48.437625" lon="2.705853"><ele></ele><time>2024-6-8T6:52:36Z</time></trkpt>
<trkpt lat="48.437733" lon="2.705882"><ele></ele><time>2024-6-8T6:52:39Z</time></trkpt>
<trkpt lat="48.437825" lon="2.705866"><ele></ele><time>2024-6-8T6:52:42Z</time></trkpt>
<trkpt lat="48.437752" lon="2.705933"><ele></ele><time>2024-6-8T6:52:45Z</time></trkpt>
<trkpt lat="48.437754" lon="2.70593"><ele></ele><time>2024-6-8T6:52:48Z</time></trkpt>
<trkpt lat="48.437756" lon="2.705928"><ele></ele><time>2024-6-8T6:52:51Z</time></trkpt>
<trkpt lat="48.43776" lon="2.705923"><ele></ele><time>2024-6-8T6:52:54Z</time></trkpt>
<trkpt lat="48.437765" lon="2.705921"><ele></ele><time>2024-6-8T6:52:57Z</time></trkpt>
<trkpt lat="48.437772" lon="2.70592"><ele></ele><time>2024-6-8T6:53:0Z</time></trkpt>
<trkpt lat="48.437705" lon="2.705822"><ele></ele><time>2024-6-8T6:53:3Z</time></trkpt>
<trkpt lat="48.437625" lon="2.705722"><ele></ele><time>2024-6-8T6:53:6Z</time></trkpt>
<trkpt lat="48.437552" lon="2.705621"><ele></ele><time>2024-6-8T6:53:9Z</time></trkpt>
<trkpt lat="48.4375" lon="2.705507"><ele></ele><time>2024-6-8T6:53:12Z</time></trkpt>
<trkpt lat="48.437442" lon="2.7054"><ele></ele><time>2024-6-8T6:53:15Z</time></trkpt>
<trkpt lat="48.437407" lon="2.705273"><ele></ele><time>2024-6-8T6:53:18Z</time></trkpt>
<trkpt lat="48.437346" lon="2.705148"><ele></ele><time>2024-6-8T6:53:21Z</time></trkpt>
<trkpt lat="48.437294" lon="2.705001"><ele></ele><time>2024-6-8T6:53:24Z</time></trkpt>
<trkpt lat="48.437245" lon="2.704851"><ele></ele><time>2024-6-8T6:53:27Z</time></trkpt>
<trkpt lat="48.437196" lon="2.704705"><ele></ele><time>2024-6-8T6:53:30Z</time></trkpt>
<trkpt lat="48.437146" lon="2.704574"><ele></ele><time>2024-6-8T6:53:33Z</time></trkpt>
<trkpt lat="48.437092" lon="2.704426"><ele></ele><time>2024-6-8T6:53:36Z</time></trkpt>
<trkpt lat="48.43703" lon="2.704296"><ele></ele><time>2024-6-8T6:53:39Z</time></trkpt>
<trkpt lat="48.436961" lon="2.704205"><ele></ele><time>2024-6-8T6:53:42Z</time></trkpt>
<trkpt lat="48.436888" lon="2.704105"><ele></ele><time>2024-6-8T6:53:45Z</time></trkpt>
<trkpt lat="48.436847" lon="2.703943"><ele></ele><time>2024-6-8T6:53:48Z</time></trkpt>
<trkpt lat="48.436878" lon="2.703815"><ele></ele><time>2024-6-8T6:53:51Z</time></trkpt>
<trkpt lat="48.436928" lon="2.70365"><ele></ele><time>2024-6-8T6:53:54Z</time></trkpt>
<trkpt lat="48.436981" lon="2.703534"><ele></ele><time>2024-6-8T6:53:57Z</time></trkpt>
<trkpt lat="48.43705" lon="2.703417"><ele></ele><time>2024-6-8T6:54:0Z</time></trkpt>
<trkpt lat="48.437099" lon="2.703304"><ele></ele><time>2024-6-8T6:54:3Z</time></trkpt>
<trkpt lat="48.43712" lon="2.703164"><ele></ele><time>2024-6-8T6:54:6Z</time></trkpt>
<trkpt lat="48.437101" lon="2.702999"><ele></ele><time>2024-6-8T6:54:9Z</time></trkpt>
<trkpt lat="48.437075" lon="2.702827"><ele></ele><time>2024-6-8T6:54:12Z</time></trkpt>
<trkpt lat="48.437021" lon="2.702683"><ele></ele><time>2024-6-8T6:54:15Z</time></trkpt>
<trkpt lat="48.436922" lon="2.702643"><ele></ele><time>2024-6-8T6:54:18Z</time></trkpt>
<trkpt lat="48.436824" lon="2.702681"><ele></ele><time>2024-6-8T6:54:21Z</time></trkpt>
<trkpt lat="48.436752" lon="2.702794"><ele></ele><time>2024-6-8T6:54:24Z</time></trkpt>
<trkpt lat="48.436729" lon="2.702928"><ele></ele><time>2024-6-8T6:54:27Z</time></trkpt>
<trkpt lat="48.43672" lon="2.703069"><ele></ele><time>2024-6-8T6:54:30Z</time></trkpt>
<trkpt lat="48.436708" lon="2.70323"><ele></ele><time>2024-6-8T6:54:33Z</time></trkpt>
<trkpt lat="48.436686" lon="2.703377"><ele></ele><time>2024-6-8T6:54:36Z</time></trkpt>
<trkpt lat="48.436662" lon="2.703529"><ele></ele><time>2024-6-8T6:54:39Z</time></trkpt>
<trkpt lat="48.436651" lon="2.703699"><ele></ele><time>2024-6-8T6:54:42Z</time></trkpt>
<trkpt lat="48.436619" lon="2.703841"><ele></ele><time>2024-6-8T6:54:45Z</time></trkpt>
<trkpt lat="48.436521" lon="2.703928"><ele></ele><time>2024-6-8T6:54:48Z</time></trkpt>
<trkpt lat="48.436415" lon="2.703995"><ele></ele><time>2024-6-8T6:54:51Z</time></trkpt>
<trkpt lat="48.436313" lon="2.704074"><ele></ele><time>2024-6-8T6:54:54Z</time></trkpt>
<trkpt lat="48.436224" lon="2.704161"><ele></ele><time>2024-6-8T6:54:57Z</time></trkpt>
<trkpt lat="48.436153" lon="2.704277"><ele></ele><time>2024-6-8T6:55:0Z</time></trkpt>
<trkpt lat="48.4361" lon="2.70441"><ele></ele><time>2024-6-8T6:55:3Z</time></trkpt>
<trkpt lat="48.436061" lon="2.704604"><ele></ele><time>2024-6-8T6:55:6Z</time></trkpt>
<trkpt lat="48.436023" lon="2.704774"><ele></ele><time>2024-6-8T6:55:9Z</time></trkpt>
<trkpt lat="48.435967" lon="2.704956"><ele></ele><time>2024-6-8T6:55:12Z</time></trkpt>
<trkpt lat="48.435872" lon="2.705127"><ele></ele><time>2024-6-8T6:55:15Z</time></trkpt>
<trkpt lat="48.435783" lon="2.705273"><ele></ele><time>2024-6-8T6:55:18Z</time></trkpt>
<trkpt lat="48.435705" lon="2.705398"><ele></ele><time>2024-6-8T6:55:21Z</time></trkpt>
<trkpt lat="48.435631" lon="2.705518"><ele></ele><time>2024-6-8T6:55:24Z</time></trkpt>
<trkpt lat="48.43556" lon="2.70565"><ele></ele><time>2024-6-8T6:55:27Z</time></trkpt>
<trkpt lat="48.435515" lon="2.705488"><ele></ele><time>2024-6-8T6:55:30Z</time></trkpt>
<trkpt lat="48.435544" lon="2.705346"><ele></ele><time>2024-6-8T6:55:33Z</time></trkpt>
<trkpt lat="48.435571" lon="2.705184"><ele></ele><time>2024-6-8T6:55:36Z</time></trkpt>
<trkpt lat="48.435617" lon="2.704955"><ele></ele><time>2024-6-8T6:55:39Z</time></trkpt>
<trkpt lat="48.435628" lon="2.704707"><ele></ele><time>2024-6-8T6:55:42Z</time></trkpt>
<trkpt lat="48.43563" lon="2.704449"><ele></ele><time>2024-6-8T6:55:45Z</time></trkpt>
<trkpt lat="48.435639" lon="2.704305"><ele></ele><time>2024-6-8T6:55:48Z</time></trkpt>
<trkpt lat="48.435645" lon="2.704161"><ele></ele><time>2024-6-8T6:55:51Z</time></trkpt>
<trkpt lat="48.435647" lon="2.704021"><ele></ele><time>2024-6-8T6:55:54Z</time></trkpt>
<trkpt lat="48.435651" lon="2.703884"><ele></ele><time>2024-6-8T6:55:57Z</time></trkpt>
<trkpt lat="48.435647" lon="2.703745"><ele></ele><time>2024-6-8T6:56:0Z</time></trkpt>
<trkpt lat="48.435644" lon="2.703597"><ele></ele><time>2024-6-8T6:56:3Z</time></trkpt>
<trkpt lat="48.435639" lon="2.703458"><ele></ele><time>2024-6-8T6:56:6Z</time></trkpt>
<trkpt lat="48.435628" lon="2.703319"><ele></ele><time>2024-6-8T6:56:9Z</time></trkpt>
<trkpt lat="48.43564" lon="2.703178"><ele></ele><time>2024-6-8T6:56:12Z</time></trkpt>
<trkpt lat="48.435642" lon="2.703036"><ele></ele><time>2024-6-8T6:56:15Z</time></trkpt>
<trkpt lat="48.435637" lon="2.70289"><ele></ele><time>2024-6-8T6:56:18Z</time></trkpt>
<trkpt lat="48.435631" lon="2.702739"><ele></ele><time>2024-6-8T6:56:21Z</time></trkpt>
<trkpt lat="48.435634" lon="2.702601"><ele></ele><time>2024-6-8T6:56:24Z</time></trkpt>
<trkpt lat="48.435632" lon="2.702337"><ele></ele><time>2024-6-8T6:56:27Z</time></trkpt>
<trkpt lat="48.435652" lon="2.702074"><ele></ele><time>2024-6-8T6:56:30Z</time></trkpt>
<trkpt lat="48.435662" lon="2.701826"><ele></ele><time>2024-6-8T6:56:33Z</time></trkpt>
<trkpt lat="48.435666" lon="2.701596"><ele></ele><time>2024-6-8T6:56:36Z</time></trkpt>
<trkpt lat="48.435684" lon="2.701381"><ele></ele><time>2024-6-8T6:56:39Z</time></trkpt>
<trkpt lat="48.435676" lon="2.701171"><ele></ele><time>2024-6-8T6:56:42Z</time></trkpt>
<trkpt lat="48.435705" lon="2.700967"><ele></ele><time>2024-6-8T6:56:45Z</time></trkpt>
<trkpt lat="48.435725" lon="2.70077"><ele></ele><time>2024-6-8T6:56:48Z</time></trkpt>
<trkpt lat="48.435707" lon="2.70059"><ele></ele><time>2024-6-8T6:56:51Z</time></trkpt>
<trkpt lat="48.435692" lon="2.700412"><ele></ele><time>2024-6-8T6:56:54Z</time></trkpt>
<trkpt lat="48.435706" lon="2.700244"><ele></ele><time>2024-6-8T6:56:57Z</time></trkpt>
<trkpt lat="48.435732" lon="2.700096"><ele></ele><time>2024-6-8T6:57:0Z</time></trkpt>
<trkpt lat="48.435722" lon="2.699921"><ele></ele><time>2024-6-8T6:57:3Z</time></trkpt>
<trkpt lat="48.435742" lon="2.69974"><ele></ele><time>2024-6-8T6:57:6Z</time></trkpt>
<trkpt lat="48.435758" lon="2.699586"><ele></ele><time>2024-6-8T6:57:9Z</time></trkpt>
<trkpt lat="48.435763" lon="2.699394"><ele></ele><time>2024-6-8T6:57:12Z</time></trkpt>
<trkpt lat="48.435771" lon="2.699222"><ele></ele><time>2024-6-8T6:57:15Z</time></trkpt>
<trkpt lat="48.43577" lon="2.699056"><ele></ele><time>2024-6-8T6:57:18Z</time></trkpt>
<trkpt lat="48.43576" lon="2.698817"><ele></ele><time>2024-6-8T6:57:21Z</time></trkpt>
<trkpt lat="48.435756" lon="2.698626"><ele></ele><time>2024-6-8T6:57:24Z</time></trkpt>
<trkpt lat="48.43576" lon="2.698461"><ele></ele><time>2024-6-8T6:57:27Z</time></trkpt>
<trkpt lat="48.435779" lon="2.6983"><ele></ele><time>2024-6-8T6:57:30Z</time></trkpt>
<trkpt lat="48.435757" lon="2.698144"><ele></ele><time>2024-6-8T6:57:33Z</time></trkpt>
<trkpt lat="48.435763" lon="2.698008"><ele></ele><time>2024-6-8T6:57:36Z</time></trkpt>
<trkpt lat="48.435781" lon="2.697865"><ele></ele><time>2024-6-8T6:57:39Z</time></trkpt>
<trkpt lat="48.435784" lon="2.697719"><ele></ele><time>2024-6-8T6:57:42Z</time></trkpt>
<trkpt lat="48.435775" lon="2.697579"><ele></ele><time>2024-6-8T6:57:45Z</time></trkpt>
<trkpt lat="48.435782" lon="2.697393"><ele></ele><time>2024-6-8T6:57:48Z</time></trkpt>
<trkpt lat="48.435782" lon="2.697219"><ele></ele><time>2024-6-8T6:57:51Z</time></trkpt>
<trkpt lat="48.435802" lon="2.697054"><ele></ele><time>2024-6-8T6:57:54Z</time></trkpt>
<trkpt lat="48.435889" lon="2.697017"><ele></ele><time>2024-6-8T6:57:57Z</time></trkpt>
<trkpt lat="48.435979" lon="2.697049"><ele></ele><time>2024-6-8T6:58:0Z</time></trkpt>
<trkpt lat="48.436084" lon="2.697081"><ele></ele><time>2024-6-8T6:58:3Z</time></trkpt>
<trkpt lat="48.436173" lon="2.697113"><ele></ele><time>2024-6-8T6:58:6Z</time></trkpt>
<trkpt lat="48.43628" lon="2.697136"><ele></ele><time>2024-6-8T6:58:9Z</time></trkpt>
<trkpt lat="48.436364" lon="2.697197"><ele></ele><time>2024-6-8T6:58:12Z</time></trkpt>
<trkpt lat="48.436449" lon="2.697084"><ele></ele><time>2024-6-8T6:58:15Z</time></trkpt>
<trkpt lat="48.436488" lon="2.696935"><ele></ele><time>2024-6-8T6:58:18Z</time></trkpt>
<trkpt lat="48.43652" lon="2.69676"><ele></ele><time>2024-6-8T6:58:21Z</time></trkpt>
<trkpt lat="48.436549" lon="2.696577"><ele></ele><time>2024-6-8T6:58:24Z</time></trkpt>
<trkpt lat="48.436583" lon="2.696393"><ele></ele><time>2024-6-8T6:58:27Z</time></trkpt>
<trkpt lat="48.436601" lon="2.696252"><ele></ele><time>2024-6-8T6:58:30Z</time></trkpt>
<trkpt lat="48.436601" lon="2.696084"><ele></ele><time>2024-6-8T6:58:33Z</time></trkpt>
<trkpt lat="48.436621" lon="2.695898"><ele></ele><time>2024-6-8T6:58:36Z</time></trkpt>
<trkpt lat="48.43665" lon="2.695766"><ele></ele><time>2024-6-8T6:58:39Z</time></trkpt>
<trkpt lat="48.4367" lon="2.695592"><ele></ele><time>2024-6-8T6:58:42Z</time></trkpt>
<trkpt lat="48.436713" lon="2.695444"><ele></ele><time>2024-6-8T6:58:45Z</time></trkpt>
<trkpt lat="48.436745" lon="2.695255"><ele></ele><time>2024-6-8T6:58:48Z</time></trkpt>
<trkpt lat="48.436781" lon="2.695081"><ele></ele><time>2024-6-8T6:58:51Z</time></trkpt>
<trkpt lat="48.436816" lon="2.694901"><ele></ele><time>2024-6-8T6:58:54Z</time></trkpt>
<trkpt lat="48.436838" lon="2.694751"><ele></ele><time>2024-6-8T6:58:57Z</time></trkpt>
<trkpt lat="48.43688" lon="2.694557"><ele></ele><time>2024-6-8T6:59:0Z</time></trkpt>
<trkpt lat="48.436897" lon="2.694392"><ele></ele><time>2024-6-8T6:59:3Z</time></trkpt>
<trkpt lat="48.436928" lon="2.694248"><ele></ele><time>2024-6-8T6:59:6Z</time></trkpt>
<trkpt lat="48.436978" lon="2.69411"><ele></ele><time>2024-6-8T6:59:9Z</time></trkpt>
<trkpt lat="48.437005" lon="2.693937"><ele></ele><time>2024-6-8T6:59:12Z</time></trkpt>
<trkpt lat="48.437024" lon="2.693765"><ele></ele><time>2024-6-8T6:59:15Z</time></trkpt>
<trkpt lat="48.437053" lon="2.693602"><ele></ele><time>2024-6-8T6:59:18Z</time></trkpt>
<trkpt lat="48.43709" lon="2.693422"><ele></ele><time>2024-6-8T6:59:21Z</time></trkpt>
<trkpt lat="48.437116" lon="2.693283"><ele></ele><time>2024-6-8T6:59:24Z</time></trkpt>
<trkpt lat="48.437131" lon="2.693136"><ele></ele><time>2024-6-8T6:59:27Z</time></trkpt>
<trkpt lat="48.437174" lon="2.693008"><ele></ele><time>2024-6-8T6:59:30Z</time></trkpt>
<trkpt lat="48.437187" lon="2.692863"><ele></ele><time>2024-6-8T6:59:33Z</time></trkpt>
<trkpt lat="48.437217" lon="2.692736"><ele></ele><time>2024-6-8T6:59:36Z</time></trkpt>
<trkpt lat="48.437266" lon="2.692621"><ele></ele><time>2024-6-8T6:59:39Z</time></trkpt>
<trkpt lat="48.437325" lon="2.692515"><ele></ele><time>2024-6-8T6:59:42Z</time></trkpt>
<trkpt lat="48.437409" lon="2.692377"><ele></ele><time>2024-6-8T6:59:45Z</time></trkpt>
<trkpt lat="48.437506" lon="2.692177"><ele></ele><time>2024-6-8T6:59:48Z</time></trkpt>
<trkpt lat="48.437585" lon="2.692061"><ele></ele><time>2024-6-8T6:59:51Z</time></trkpt>
<trkpt lat="48.437657" lon="2.691968"><ele></ele><time>2024-6-8T6:59:54Z</time></trkpt>
<trkpt lat="48.437757" lon="2.69187"><ele></ele><time>2024-6-8T6:59:57Z</time></trkpt>
<trkpt lat="48.437844" lon="2.691789"><ele></ele><time>2024-6-8T7:0:0Z</time></trkpt>
<trkpt lat="48.437933" lon="2.691692"><ele></ele><time>2024-6-8T7:0:3Z</time></trkpt>
<trkpt lat="48.438016" lon="2.691595"><ele></ele><time>2024-6-8T7:0:6Z</time></trkpt>
<trkpt lat="48.438125" lon="2.691481"><ele></ele><time>2024-6-8T7:0:9Z</time></trkpt>
<trkpt lat="48.438205" lon="2.691418"><ele></ele><time>2024-6-8T7:0:12Z</time></trkpt>
<trkpt lat="48.438333" lon="2.691337"><ele></ele><time>2024-6-8T7:0:15Z</time></trkpt>
<trkpt lat="48.438449" lon="2.691287"><ele></ele><time>2024-6-8T7:0:18Z</time></trkpt>
<trkpt lat="48.438548" lon="2.691246"><ele></ele><time>2024-6-8T7:0:21Z</time></trkpt>
<trkpt lat="48.438647" lon="2.691183"><ele></ele><time>2024-6-8T7:0:24Z</time></trkpt>
<trkpt lat="48.43874" lon="2.691135"><ele></ele><time>2024-6-8T7:0:27Z</time></trkpt>
<trkpt lat="48.438844" lon="2.691085"><ele></ele><time>2024-6-8T7:0:30Z</time></trkpt>
<trkpt lat="48.438951" lon="2.691013"><ele></ele><time>2024-6-8T7:0:33Z</time></trkpt>
<trkpt lat="48.439049" lon="2.690892"><ele></ele><time>2024-6-8T7:0:36Z</time></trkpt>
<trkpt lat="48.43915" lon="2.69087"><ele></ele><time>2024-6-8T7:0:39Z</time></trkpt>
<trkpt lat="48.439271" lon="2.690814"><ele></ele><time>2024-6-8T7:0:42Z</time></trkpt>
<trkpt lat="48.439393" lon="2.690761"><ele></ele><time>2024-6-8T7:0:45Z</time></trkpt>
<trkpt lat="48.439515" lon="2.690687"><ele></ele><time>2024-6-8T7:0:48Z</time></trkpt>
<trkpt lat="48.439606" lon="2.690637"><ele></ele><time>2024-6-8T7:0:51Z</time></trkpt>
<trkpt lat="48.439713" lon="2.690604"><ele></ele><time>2024-6-8T7:0:54Z</time></trkpt>
<trkpt lat="48.43971" lon="2.690463"><ele></ele><time>2024-6-8T7:0:57Z</time></trkpt>
<trkpt lat="48.439716" lon="2.690309"><ele></ele><time>2024-6-8T7:1:0Z</time></trkpt>
<trkpt lat="48.439658" lon="2.690197"><ele></ele><time>2024-6-8T7:1:3Z</time></trkpt>
<trkpt lat="48.439556" lon="2.690112"><ele></ele><time>2024-6-8T7:1:6Z</time></trkpt>
<trkpt lat="48.439473" lon="2.690055"><ele></ele><time>2024-6-8T7:1:9Z</time></trkpt>
<trkpt lat="48.439409" lon="2.689934"><ele></ele><time>2024-6-8T7:1:12Z</time></trkpt>
<trkpt lat="48.439444" lon="2.689793"><ele></ele><time>2024-6-8T7:1:15Z</time></trkpt>
<trkpt lat="48.439555" lon="2.689707"><ele></ele><time>2024-6-8T7:1:18Z</time></trkpt>
<trkpt lat="48.439647" lon="2.689741"><ele></ele><time>2024-6-8T7:1:21Z</time></trkpt>
<trkpt lat="48.439764" lon="2.689793"><ele></ele><time>2024-6-8T7:1:24Z</time></trkpt>
<trkpt lat="48.439882" lon="2.689784"><ele></ele><time>2024-6-8T7:1:27Z</time></trkpt>
<trkpt lat="48.439978" lon="2.689765"><ele></ele><time>2024-6-8T7:1:30Z</time></trkpt>
<trkpt lat="48.440098" lon="2.689738"><ele></ele><time>2024-6-8T7:1:33Z</time></trkpt>
<trkpt lat="48.44022" lon="2.68972"><ele></ele><time>2024-6-8T7:1:36Z</time></trkpt>
<trkpt lat="48.440341" lon="2.689703"><ele></ele><time>2024-6-8T7:1:39Z</time></trkpt>
<trkpt lat="48.440466" lon="2.689687"><ele></ele><time>2024-6-8T7:1:42Z</time></trkpt>
<trkpt lat="48.440556" lon="2.689667"><ele></ele><time>2024-6-8T7:1:45Z</time></trkpt>
<trkpt lat="48.440647" lon="2.689647"><ele></ele><time>2024-6-8T7:1:48Z</time></trkpt>
<trkpt lat="48.440737" lon="2.689628"><ele></ele><time>2024-6-8T7:1:51Z</time></trkpt>
<trkpt lat="48.440827" lon="2.689621"><ele></ele><time>2024-6-8T7:1:54Z</time></trkpt>
<trkpt lat="48.440924" lon="2.689621"><ele></ele><time>2024-6-8T7:1:57Z</time></trkpt>
<trkpt lat="48.441054" lon="2.689607"><ele></ele><time>2024-6-8T7:2:0Z</time></trkpt>
<trkpt lat="48.441152" lon="2.689579"><ele></ele><time>2024-6-8T7:2:3Z</time></trkpt>
<trkpt lat="48.44124" lon="2.689553"><ele></ele><time>2024-6-8T7:2:6Z</time></trkpt>
<trkpt lat="48.441317" lon="2.689396"><ele></ele><time>2024-6-8T7:2:9Z</time></trkpt>
<trkpt lat="48.441282" lon="2.68924"><ele></ele><time>2024-6-8T7:2:12Z</time></trkpt>
<trkpt lat="48.441251" lon="2.689109"><ele></ele><time>2024-6-8T7:2:15Z</time></trkpt>
<trkpt lat="48.44127" lon="2.688943"><ele></ele><time>2024-6-8T7:2:18Z</time></trkpt>
<trkpt lat="48.441268" lon="2.688779"><ele></ele><time>2024-6-8T7:2:21Z</time></trkpt>
<trkpt lat="48.441369" lon="2.688665"><ele></ele><time>2024-6-8T7:2:24Z</time></trkpt>
<trkpt lat="48.441474" lon="2.688622"><ele></ele><time>2024-6-8T7:2:27Z</time></trkpt>
<trkpt lat="48.441562" lon="2.688581"><ele></ele><time>2024-6-8T7:2:30Z</time></trkpt>
<trkpt lat="48.441656" lon="2.688536"><ele></ele><time>2024-6-8T7:2:33Z</time></trkpt>
<trkpt lat="48.441758" lon="2.688458"><ele></ele><time>2024-6-8T7:2:36Z</time></trkpt>
<trkpt lat="48.441829" lon="2.688338"><ele></ele><time>2024-6-8T7:2:39Z</time></trkpt>
<trkpt lat="48.441879" lon="2.688193"><ele></ele><time>2024-6-8T7:2:42Z</time></trkpt>
<trkpt lat="48.441914" lon="2.688021"><ele></ele><time>2024-6-8T7:2:45Z</time></trkpt>
<trkpt lat="48.441929" lon="2.687856"><ele></ele><time>2024-6-8T7:2:48Z</time></trkpt>
<trkpt lat="48.441941" lon="2.687668"><ele></ele><time>2024-6-8T7:2:51Z</time></trkpt>
<trkpt lat="48.441983" lon="2.687501"><ele></ele><time>2024-6-8T7:2:54Z</time></trkpt>
<trkpt lat="48.44205" lon="2.687359"><ele></ele><time>2024-6-8T7:2:57Z</time></trkpt>
<trkpt lat="48.442077" lon="2.687196"><ele></ele><time>2024-6-8T7:3:0Z</time></trkpt>
<trkpt lat="48.442109" lon="2.687059"><ele></ele><time>2024-6-8T7:3:3Z</time></trkpt>
<trkpt lat="48.442137" lon="2.686907"><ele></ele><time>2024-6-8T7:3:6Z</time></trkpt>
<trkpt lat="48.442159" lon="2.686753"><ele></ele><time>2024-6-8T7:3:9Z</time></trkpt>
<trkpt lat="48.442164" lon="2.686578"><ele></ele><time>2024-6-8T7:3:12Z</time></trkpt>
<trkpt lat="48.442174" lon="2.686406"><ele></ele><time>2024-6-8T7:3:15Z</time></trkpt>
<trkpt lat="48.4422" lon="2.686251"><ele></ele><time>2024-6-8T7:3:18Z</time></trkpt>
<trkpt lat="48.442222" lon="2.686109"><ele></ele><time>2024-6-8T7:3:21Z</time></trkpt>
<trkpt lat="48.442298" lon="2.68596"><ele></ele><time>2024-6-8T7:3:24Z</time></trkpt>
<trkpt lat="48.442391" lon="2.685864"><ele></ele><time>2024-6-8T7:3:27Z</time></trkpt>
<trkpt lat="48.442488" lon="2.685788"><ele></ele><time>2024-6-8T7:3:30Z</time></trkpt>
<trkpt lat="48.442566" lon="2.685657"><ele></ele><time>2024-6-8T7:3:33Z</time></trkpt>
<trkpt lat="48.442641" lon="2.685516"><ele></ele><time>2024-6-8T7:3:36Z</time></trkpt>
<trkpt lat="48.442735" lon="2.685432"><ele></ele><time>2024-6-8T7:3:39Z</time></trkpt>
<trkpt lat="48.442813" lon="2.685338"><ele></ele><time>2024-6-8T7:3:42Z</time></trkpt>
<trkpt lat="48.442915" lon="2.685239"><ele></ele><time>2024-6-8T7:3:45Z</time></trkpt>
<trkpt lat="48.443059" lon="2.685261"><ele></ele><time>2024-6-8T7:3:48Z</time></trkpt>
<trkpt lat="48.44318" lon="2.685303"><ele></ele><time>2024-6-8T7:3:51Z</time></trkpt>
<trkpt lat="48.443284" lon="2.685333"><ele></ele><time>2024-6-8T7:3:54Z</time></trkpt>
<trkpt lat="48.443394" lon="2.685327"><ele></ele><time>2024-6-8T7:3:57Z</time></trkpt>
<trkpt lat="48.443507" lon="2.685306"><ele></ele><time>2024-6-8T7:4:0Z</time></trkpt>
<trkpt lat="48.443596" lon="2.685276"><ele></ele><time>2024-6-8T7:4:3Z</time></trkpt>
<trkpt lat="48.443694" lon="2.685261"><ele></ele><time>2024-6-8T7:4:6Z</time></trkpt>
<trkpt lat="48.443786" lon="2.685229"><ele></ele><time>2024-6-8T7:4:9Z</time></trkpt>
<trkpt lat="48.443878" lon="2.685229"><ele></ele><time>2024-6-8T7:4:12Z</time></trkpt>
<trkpt lat="48.443978" lon="2.685216"><ele></ele><time>2024-6-8T7:4:15Z</time></trkpt>
<trkpt lat="48.44408" lon="2.68518"><ele></ele><time>2024-6-8T7:4:18Z</time></trkpt>
<trkpt lat="48.44417" lon="2.685133"><ele></ele><time>2024-6-8T7:4:21Z</time></trkpt>
<trkpt lat="48.444261" lon="2.685107"><ele></ele><time>2024-6-8T7:4:24Z</time></trkpt>
<trkpt lat="48.444358" lon="2.685089"><ele></ele><time>2024-6-8T7:4:27Z</time></trkpt>
<trkpt lat="48.444449" lon="2.685097"><ele></ele><time>2024-6-8T7:4:30Z</time></trkpt>
<trkpt lat="48.444544" lon="2.685136"><ele></ele><time>2024-6-8T7:4:33Z</time></trkpt>
<trkpt lat="48.444628" lon="2.685187"><ele></ele><time>2024-6-8T7:4:36Z</time></trkpt>
<trkpt lat="48.444726" lon="2.685237"><ele></ele><time>2024-6-8T7:4:39Z</time></trkpt>
<trkpt lat="48.444827" lon="2.685285"><ele></ele><time>2024-6-8T7:4:42Z</time></trkpt>
<trkpt lat="48.444926" lon="2.685373"><ele></ele><time>2024-6-8T7:4:45Z</time></trkpt>
<trkpt lat="48.445034" lon="2.685466"><ele></ele><time>2024-6-8T7:4:48Z</time></trkpt>
<trkpt lat="48.445143" lon="2.685528"><ele></ele><time>2024-6-8T7:4:51Z</time></trkpt>
<trkpt lat="48.445257" lon="2.685594"><ele></ele><time>2024-6-8T7:4:54Z</time></trkpt>
<trkpt lat="48.445367" lon="2.685697"><ele></ele><time>2024-6-8T7:4:57Z</time></trkpt>
<trkpt lat="48.445471" lon="2.685817"><ele></ele><time>2024-6-8T7:5:0Z</time></trkpt>
<trkpt lat="48.44557" lon="2.685942"><ele></ele><time>2024-6-8T7:5:3Z</time></trkpt>
<trkpt lat="48.445636" lon="2.686042"><ele></ele><time>2024-6-8T7:5:6Z</time></trkpt>
<trkpt lat="48.445713" lon="2.686132"><ele></ele><time>2024-6-8T7:5:9Z</time></trkpt>
<trkpt lat="48.44582" lon="2.686194"><ele></ele><time>2024-6-8T7:5:12Z</time></trkpt>
<trkpt lat="48.445899" lon="2.686265"><ele></ele><time>2024-6-8T7:5:15Z</time></trkpt>
<trkpt lat="48.446008" lon="2.686381"><ele></ele><time>2024-6-8T7:5:18Z</time></trkpt>
<trkpt lat="48.446111" lon="2.686471"><ele></ele><time>2024-6-8T7:5:21Z</time></trkpt>
<trkpt lat="48.446215" lon="2.686573"><ele></ele><time>2024-6-8T7:5:24Z</time></trkpt>
<trkpt lat="48.446308" lon="2.686672"><ele></ele><time>2024-6-8T7:5:27Z</time></trkpt>
<trkpt lat="48.446387" lon="2.686744"><ele></ele><time>2024-6-8T7:5:30Z</time></trkpt>
<trkpt lat="48.446458" lon="2.686845"><ele></ele><time>2024-6-8T7:5:33Z</time></trkpt>
<trkpt lat="48.446574" lon="2.686949"><ele></ele><time>2024-6-8T7:5:36Z</time></trkpt>
<trkpt lat="48.446657" lon="2.687057"><ele></ele><time>2024-6-8T7:5:39Z</time></trkpt>
<trkpt lat="48.44674" lon="2.68712"><ele></ele><time>2024-6-8T7:5:42Z</time></trkpt>
<trkpt lat="48.446832" lon="2.687195"><ele></ele><time>2024-6-8T7:5:45Z</time></trkpt>
<trkpt lat="48.446933" lon="2.6873"><ele></ele><time>2024-6-8T7:5:48Z</time></trkpt>
<trkpt lat="48.447019" lon="2.687392"><ele></ele><time>2024-6-8T7:5:51Z</time></trkpt>
<trkpt lat="48.447143" lon="2.687468"><ele></ele><time>2024-6-8T7:5:54Z</time></trkpt>
<trkpt lat="48.447247" lon="2.687591"><ele></ele><time>2024-6-8T7:5:57Z</time></trkpt>
<trkpt lat="48.44732" lon="2.687671"><ele></ele><time>2024-6-8T7:6:0Z</time></trkpt>
<trkpt lat="48.447397" lon="2.687759"><ele></ele><time>2024-6-8T7:6:3Z</time></trkpt>
<trkpt lat="48.447469" lon="2.68785"><ele></ele><time>2024-6-8T7:6:6Z</time></trkpt>
<trkpt lat="48.447565" lon="2.687952"><ele></ele><time>2024-6-8T7:6:9Z</time></trkpt>
<trkpt lat="48.44766" lon="2.687949"><ele></ele><time>2024-6-8T7:6:12Z</time></trkpt>
<trkpt lat="48.447762" lon="2.687899"><ele></ele><time>2024-6-8T7:6:15Z</time></trkpt>
<trkpt lat="48.447853" lon="2.687865"><ele></ele><time>2024-6-8T7:6:18Z</time></trkpt>
<trkpt lat="48.447951" lon="2.687788"><ele></ele><time>2024-6-8T7:6:21Z</time></trkpt>
<trkpt lat="48.448033" lon="2.687694"><ele></ele><time>2024-6-8T7:6:24Z</time></trkpt>
<trkpt lat="48.448115" lon="2.68759"><ele></ele><time>2024-6-8T7:6:27Z</time></trkpt>
<trkpt lat="48.448195" lon="2.68749"><ele></ele><time>2024-6-8T7:6:30Z</time></trkpt>
<trkpt lat="48.448263" lon="2.687387"><ele></ele><time>2024-6-8T7:6:33Z</time></trkpt>
<trkpt lat="48.448341" lon="2.687312"><ele></ele><time>2024-6-8T7:6:36Z</time></trkpt>
<trkpt lat="48.448412" lon="2.687228"><ele></ele><time>2024-6-8T7:6:39Z</time></trkpt>
<trkpt lat="48.448481" lon="2.687118"><ele></ele><time>2024-6-8T7:6:42Z</time></trkpt>
<trkpt lat="48.448549" lon="2.687024"><ele></ele><time>2024-6-8T7:6:45Z</time></trkpt>
<trkpt lat="48.448607" lon="2.686917"><ele></ele><time>2024-6-8T7:6:48Z</time></trkpt>
<trkpt lat="48.448686" lon="2.68685"><ele></ele><time>2024-6-8T7:6:51Z</time></trkpt>
<trkpt lat="48.448772" lon="2.686773"><ele></ele><time>2024-6-8T7:6:54Z</time></trkpt>
<trkpt lat="48.448854" lon="2.68667"><ele></ele><time>2024-6-8T7:6:57Z</time></trkpt>
<trkpt lat="48.44893" lon="2.686596"><ele></ele><time>2024-6-8T7:7:0Z</time></trkpt>
<trkpt lat="48.449014" lon="2.686487"><ele></ele><time>2024-6-8T7:7:3Z</time></trkpt>
<trkpt lat="48.449103" lon="2.686399"><ele></ele><time>2024-6-8T7:7:6Z</time></trkpt>
<trkpt lat="48.449194" lon="2.686308"><ele></ele><time>2024-6-8T7:7:9Z</time></trkpt>
<trkpt lat="48.449272" lon="2.686237"><ele></ele><time>2024-6-8T7:7:12Z</time></trkpt>
<trkpt lat="48.449373" lon="2.686127"><ele></ele><time>2024-6-8T7:7:15Z</time></trkpt>
<trkpt lat="48.449499" lon="2.685976"><ele></ele><time>2024-6-8T7:7:18Z</time></trkpt>
<trkpt lat="48.449586" lon="2.685853"><ele></ele><time>2024-6-8T7:7:21Z</time></trkpt>
<trkpt lat="48.449686" lon="2.685695"><ele></ele><time>2024-6-8T7:7:24Z</time></trkpt>
<trkpt lat="48.449816" lon="2.685562"><ele></ele><time>2024-6-8T7:7:27Z</time></trkpt>
<trkpt lat="48.449928" lon="2.685445"><ele></ele><time>2024-6-8T7:7:30Z</time></trkpt>
<trkpt lat="48.450026" lon="2.68534"><ele></ele><time>2024-6-8T7:7:33Z</time></trkpt>
<trkpt lat="48.450116" lon="2.685181"><ele></ele><time>2024-6-8T7:7:36Z</time></trkpt>
<trkpt lat="48.450208" lon="2.685088"><ele></ele><time>2024-6-8T7:7:39Z</time></trkpt>
<trkpt lat="48.450288" lon="2.684963"><ele></ele><time>2024-6-8T7:7:42Z</time></trkpt>
<trkpt lat="48.450397" lon="2.684878"><ele></ele><time>2024-6-8T7:7:45Z</time></trkpt>
<trkpt lat="48.450483" lon="2.684774"><ele></ele><time>2024-6-8T7:7:48Z</time></trkpt>
<trkpt lat="48.450558" lon="2.68466"><ele></ele><time>2024-6-8T7:7:51Z</time></trkpt>
<trkpt lat="48.450639" lon="2.684552"><ele></ele><time>2024-6-8T7:7:54Z</time></trkpt>
<trkpt lat="48.450729" lon="2.684466"><ele></ele><time>2024-6-8T7:7:57Z</time></trkpt>
<trkpt lat="48.45081" lon="2.684384"><ele></ele><time>2024-6-8T7:8:0Z</time></trkpt>
<trkpt lat="48.450902" lon="2.684256"><ele></ele><time>2024-6-8T7:8:3Z</time></trkpt>
<trkpt lat="48.450986" lon="2.684189"><ele></ele><time>2024-6-8T7:8:6Z</time></trkpt>
<trkpt lat="48.451074" lon="2.684111"><ele></ele><time>2024-6-8T7:8:9Z</time></trkpt>
<trkpt lat="48.451138" lon="2.684007"><ele></ele><time>2024-6-8T7:8:12Z</time></trkpt>
<trkpt lat="48.451203" lon="2.683907"><ele></ele><time>2024-6-8T7:8:15Z</time></trkpt>
<trkpt lat="48.451278" lon="2.683803"><ele></ele><time>2024-6-8T7:8:18Z</time></trkpt>
<trkpt lat="48.451353" lon="2.683725"><ele></ele><time>2024-6-8T7:8:21Z</time></trkpt>
<trkpt lat="48.451427" lon="2.683642"><ele></ele><time>2024-6-8T7:8:24Z</time></trkpt>
<trkpt lat="48.451485" lon="2.683518"><ele></ele><time>2024-6-8T7:8:27Z</time></trkpt>
<trkpt lat="48.451562" lon="2.683444"><ele></ele><time>2024-6-8T7:8:30Z</time></trkpt>
<trkpt lat="48.451649" lon="2.683391"><ele></ele><time>2024-6-8T7:8:33Z</time></trkpt>
<trkpt lat="48.451744" lon="2.683286"><ele></ele><time>2024-6-8T7:8:36Z</time></trkpt>
<trkpt lat="48.451835" lon="2.68317"><ele></ele><time>2024-6-8T7:8:39Z</time></trkpt>
<trkpt lat="48.451913" lon="2.683084"><ele></ele><time>2024-6-8T7:8:42Z</time></trkpt>
<trkpt lat="48.451992" lon="2.683008"><ele></ele><time>2024-6-8T7:8:45Z</time></trkpt>
<trkpt lat="48.452097" lon="2.68291"><ele></ele><time>2024-6-8T7:8:48Z</time></trkpt>
<trkpt lat="48.452193" lon="2.682849"><ele></ele><time>2024-6-8T7:8:51Z</time></trkpt>
<trkpt lat="48.452309" lon="2.682789"><ele></ele><time>2024-6-8T7:8:54Z</time></trkpt>
<trkpt lat="48.452416" lon="2.682727"><ele></ele><time>2024-6-8T7:8:57Z</time></trkpt>
<trkpt lat="48.452529" lon="2.682652"><ele></ele><time>2024-6-8T7:9:0Z</time></trkpt>
<trkpt lat="48.452633" lon="2.682585"><ele></ele><time>2024-6-8T7:9:3Z</time></trkpt>
<trkpt lat="48.45273" lon="2.682516"><ele></ele><time>2024-6-8T7:9:6Z</time></trkpt>
<trkpt lat="48.452828" lon="2.682458"><ele></ele><time>2024-6-8T7:9:9Z</time></trkpt>
<trkpt lat="48.452919" lon="2.68239"><ele></ele><time>2024-6-8T7:9:12Z</time></trkpt>
<trkpt lat="48.453026" lon="2.682337"><ele></ele><time>2024-6-8T7:9:15Z</time></trkpt>
<trkpt lat="48.453146" lon="2.682256"><ele></ele><time>2024-6-8T7:9:18Z</time></trkpt>
<trkpt lat="48.453272" lon="2.682193"><ele></ele><time>2024-6-8T7:9:21Z</time></trkpt>
<trkpt lat="48.453368" lon="2.682048"><ele></ele><time>2024-6-8T7:9:24Z</time></trkpt>
<trkpt lat="48.453429" lon="2.681876"><ele></ele><time>2024-6-8T7:9:27Z</time></trkpt>
<trkpt lat="48.453478" lon="2.681726"><ele></ele><time>2024-6-8T7:9:30Z</time></trkpt>
<trkpt lat="48.453536" lon="2.68155"><ele></ele><time>2024-6-8T7:9:33Z</time></trkpt>
<trkpt lat="48.453579" lon="2.681374"><ele></ele><time>2024-6-8T7:9:36Z</time></trkpt>
<trkpt lat="48.453632" lon="2.681201"><ele></ele><time>2024-6-8T7:9:39Z</time></trkpt>
<trkpt lat="48.453688" lon="2.681023"><ele></ele><time>2024-6-8T7:9:42Z</time></trkpt>
<trkpt lat="48.453725" lon="2.680899"><ele></ele><time>2024-6-8T7:9:45Z</time></trkpt>
<trkpt lat="48.453783" lon="2.680729"><ele></ele><time>2024-6-8T7:9:48Z</time></trkpt>
<trkpt lat="48.453843" lon="2.680563"><ele></ele><time>2024-6-8T7:9:51Z</time></trkpt>
<trkpt lat="48.45389" lon="2.680435"><ele></ele><time>2024-6-8T7:9:54Z</time></trkpt>
<trkpt lat="48.453947" lon="2.680312"><ele></ele><time>2024-6-8T7:9:57Z</time></trkpt>
<trkpt lat="48.45398" lon="2.680164"><ele></ele><time>2024-6-8T7:10:0Z</time></trkpt>
<trkpt lat="48.454021" lon="2.680038"><ele></ele><time>2024-6-8T7:10:3Z</time></trkpt>
<trkpt lat="48.454073" lon="2.679914"><ele></ele><time>2024-6-8T7:10:6Z</time></trkpt>
<trkpt lat="48.454099" lon="2.67976"><ele></ele><time>2024-6-8T7:10:9Z</time></trkpt>
<trkpt lat="48.454134" lon="2.679614"><ele></ele><time>2024-6-8T7:10:12Z</time></trkpt>
<trkpt lat="48.454184" lon="2.679456"><ele></ele><time>2024-6-8T7:10:15Z</time></trkpt>
<trkpt lat="48.454238" lon="2.679324"><ele></ele><time>2024-6-8T7:10:18Z</time></trkpt>
<trkpt lat="48.454296" lon="2.679203"><ele></ele><time>2024-6-8T7:10:21Z</time></trkpt>
<trkpt lat="48.454369" lon="2.67909"><ele></ele><time>2024-6-8T7:10:24Z</time></trkpt>
<trkpt lat="48.454408" lon="2.678958"><ele></ele><time>2024-6-8T7:10:27Z</time></trkpt>
<trkpt lat="48.454443" lon="2.678789"><ele></ele><time>2024-6-8T7:10:30Z</time></trkpt>
<trkpt lat="48.454475" lon="2.678637"><ele></ele><time>2024-6-8T7:10:33Z</time></trkpt>
<trkpt lat="48.454529" lon="2.678523"><ele></ele><time>2024-6-8T7:10:36Z</time></trkpt>
<trkpt lat="48.454571" lon="2.678392"><ele></ele><time>2024-6-8T7:10:39Z</time></trkpt>
<trkpt lat="48.454618" lon="2.678272"><ele></ele><time>2024-6-8T7:10:42Z</time></trkpt>
<trkpt lat="48.454674" lon="2.678138"><ele></ele><time>2024-6-8T7:10:45Z</time></trkpt>
<trkpt lat="48.454728" lon="2.678013"><ele></ele><time>2024-6-8T7:10:48Z</time></trkpt>
<trkpt lat="48.454737" lon="2.677874"><ele></ele><time>2024-6-8T7:10:51Z</time></trkpt>
<trkpt lat="48.454777" lon="2.677739"><ele></ele><time>2024-6-8T7:10:54Z</time></trkpt>
<trkpt lat="48.454839" lon="2.677603"><ele></ele><time>2024-6-8T7:10:57Z</time></trkpt>
<trkpt lat="48.45488" lon="2.677479"><ele></ele><time>2024-6-8T7:11:0Z</time></trkpt>
<trkpt lat="48.454925" lon="2.677344"><ele></ele><time>2024-6-8T7:11:3Z</time></trkpt>
<trkpt lat="48.454963" lon="2.677206"><ele></ele><time>2024-6-8T7:11:6Z</time></trkpt>
<trkpt lat="48.455009" lon="2.677053"><ele></ele><time>2024-6-8T7:11:9Z</time></trkpt>
<trkpt lat="48.455036" lon="2.676895"><ele></ele><time>2024-6-8T7:11:12Z</time></trkpt>
<trkpt lat="48.455063" lon="2.676759"><ele></ele><time>2024-6-8T7:11:15Z</time></trkpt>
<trkpt lat="48.455111" lon="2.676629"><ele></ele><time>2024-6-8T7:11:18Z</time></trkpt>
<trkpt lat="48.455174" lon="2.676521"><ele></ele><time>2024-6-8T7:11:21Z</time></trkpt>
<trkpt lat="48.455214" lon="2.676399"><ele></ele><time>2024-6-8T7:11:24Z</time></trkpt>
<trkpt lat="48.455248" lon="2.676262"><ele></ele><time>2024-6-8T7:11:27Z</time></trkpt>
<trkpt lat="48.455308" lon="2.676141"><ele></ele><time>2024-6-8T7:11:30Z</time></trkpt>
<trkpt lat="48.455352" lon="2.675989"><ele></ele><time>2024-6-8T7:11:33Z</time></trkpt>
<trkpt lat="48.455414" lon="2.675814"><ele></ele><time>2024-6-8T7:11:36Z</time></trkpt>
<trkpt lat="48.455452" lon="2.675676"><ele></ele><time>2024-6-8T7:11:39Z</time></trkpt>
<trkpt lat="48.45552" lon="2.675511"><ele></ele><time>2024-6-8T7:11:42Z</time></trkpt>
<trkpt lat="48.455585" lon="2.675334"><ele></ele><time>2024-6-8T7:11:45Z</time></trkpt>
<trkpt lat="48.455614" lon="2.675175"><ele></ele><time>2024-6-8T7:11:48Z</time></trkpt>
<trkpt lat="48.455645" lon="2.675006"><ele></ele><time>2024-6-8T7:11:51Z</time></trkpt>
<trkpt lat="48.455694" lon="2.674882"><ele></ele><time>2024-6-8T7:11:54Z</time></trkpt>
<trkpt lat="48.455736" lon="2.674719"><ele></ele><time>2024-6-8T7:11:57Z</time></trkpt>
<trkpt lat="48.455776" lon="2.674583"><ele></ele><time>2024-6-8T7:12:0Z</time></trkpt>
<trkpt lat="48.455819" lon="2.674422"><ele></ele><time>2024-6-8T7:12:3Z</time></trkpt>
<trkpt lat="48.455877" lon="2.674272"><ele></ele><time>2024-6-8T7:12:6Z</time></trkpt>
<trkpt lat="48.45594" lon="2.674148"><ele></ele><time>2024-6-8T7:12:9Z</time></trkpt>
<trkpt lat="48.455985" lon="2.674027"><ele></ele><time>2024-6-8T7:12:12Z</time></trkpt>
<trkpt lat="48.45604" lon="2.673855"><ele></ele><time>2024-6-8T7:12:15Z</time></trkpt>
<trkpt lat="48.456095" lon="2.673673"><ele></ele><time>2024-6-8T7:12:18Z</time></trkpt>
<trkpt lat="48.456159" lon="2.673508"><ele></ele><time>2024-6-8T7:12:21Z</time></trkpt>
<trkpt lat="48.456215" lon="2.673341"><ele></ele><time>2024-6-8T7:12:24Z</time></trkpt>
<trkpt lat="48.456275" lon="2.673167"><ele></ele><time>2024-6-8T7:12:27Z</time></trkpt>
<trkpt lat="48.456331" lon="2.672979"><ele></ele><time>2024-6-8T7:12:30Z</time></trkpt>
<trkpt lat="48.456369" lon="2.672827"><ele></ele><time>2024-6-8T7:12:33Z</time></trkpt>
<trkpt lat="48.456405" lon="2.672693"><ele></ele><time>2024-6-8T7:12:36Z</time></trkpt>
<trkpt lat="48.456441" lon="2.672553"><ele></ele><time>2024-6-8T7:12:39Z</time></trkpt>
<trkpt lat="48.456491" lon="2.672419"><ele></ele><time>2024-6-8T7:12:42Z</time></trkpt>
<trkpt lat="48.456541" lon="2.672236"><ele></ele><time>2024-6-8T7:12:45Z</time></trkpt>
<trkpt lat="48.456582" lon="2.672084"><ele></ele><time>2024-6-8T7:12:48Z</time></trkpt>
<trkpt lat="48.456633" lon="2.671912"><ele></ele><time>2024-6-8T7:12:51Z</time></trkpt>
<trkpt lat="48.456678" lon="2.671794"><ele></ele><time>2024-6-8T7:12:54Z</time></trkpt>
<trkpt lat="48.45673" lon="2.671673"><ele></ele><time>2024-6-8T7:12:57Z</time></trkpt>
<trkpt lat="48.456787" lon="2.671552"><ele></ele><time>2024-6-8T7:13:0Z</time></trkpt>
<trkpt lat="48.456844" lon="2.67141"><ele></ele><time>2024-6-8T7:13:3Z</time></trkpt>
<trkpt lat="48.456894" lon="2.671226"><ele></ele><time>2024-6-8T7:13:6Z</time></trkpt>
<trkpt lat="48.456931" lon="2.671083"><ele></ele><time>2024-6-8T7:13:9Z</time></trkpt>
<trkpt lat="48.456977" lon="2.670938"><ele></ele><time>2024-6-8T7:13:12Z</time></trkpt>
<trkpt lat="48.457029" lon="2.670768"><ele></ele><time>2024-6-8T7:13:15Z</time></trkpt>
<trkpt lat="48.457081" lon="2.670622"><ele></ele><time>2024-6-8T7:13:18Z</time></trkpt>
<trkpt lat="48.457138" lon="2.670502"><ele></ele><time>2024-6-8T7:13:21Z</time></trkpt>
<trkpt lat="48.457168" lon="2.67035"><ele></ele><time>2024-6-8T7:13:24Z</time></trkpt>
<trkpt lat="48.457222" lon="2.67022"><ele></ele><time>2024-6-8T7:13:27Z</time></trkpt>
<trkpt lat="48.457236" lon="2.67006"><ele></ele><time>2024-6-8T7:13:30Z</time></trkpt>
<trkpt lat="48.457279" lon="2.669905"><ele></ele><time>2024-6-8T7:13:33Z</time></trkpt>
<trkpt lat="48.457319" lon="2.66976"><ele></ele><time>2024-6-8T7:13:36Z</time></trkpt>
<trkpt lat="48.457375" lon="2.669625"><ele></ele><time>2024-6-8T7:13:39Z</time></trkpt>
<trkpt lat="48.457427" lon="2.669502"><ele></ele><time>2024-6-8T7:13:42Z</time></trkpt>
<trkpt lat="48.457475" lon="2.669383"><ele></ele><time>2024-6-8T7:13:45Z</time></trkpt>
<trkpt lat="48.457518" lon="2.669251"><ele></ele><time>2024-6-8T7:13:48Z</time></trkpt>
<trkpt lat="48.457557" lon="2.669115"><ele></ele><time>2024-6-8T7:13:51Z</time></trkpt>
<trkpt lat="48.457602" lon="2.668977"><ele></ele><time>2024-6-8T7:13:54Z</time></trkpt>
<trkpt lat="48.457652" lon="2.66883"><ele></ele><time>2024-6-8T7:13:57Z</time></trkpt>
<trkpt lat="48.457685" lon="2.668696"><ele></ele><time>2024-6-8T7:14:0Z</time></trkpt>
<trkpt lat="48.457712" lon="2.668554"><ele></ele><time>2024-6-8T7:14:3Z</time></trkpt>
<trkpt lat="48.457757" lon="2.6684"><ele></ele><time>2024-6-8T7:14:6Z</time></trkpt>
<trkpt lat="48.457825" lon="2.66827"><ele></ele><time>2024-6-8T7:14:9Z</time></trkpt>
<trkpt lat="48.457891" lon="2.668128"><ele></ele><time>2024-6-8T7:14:12Z</time></trkpt>
<trkpt lat="48.457938" lon="2.668008"><ele></ele><time>2024-6-8T7:14:15Z</time></trkpt>
<trkpt lat="48.457977" lon="2.667854"><ele></ele><time>2024-6-8T7:14:18Z</time></trkpt>
<trkpt lat="48.45801" lon="2.667709"><ele></ele><time>2024-6-8T7:14:21Z</time></trkpt>
<trkpt lat="48.458042" lon="2.667567"><ele></ele><time>2024-6-8T7:14:24Z</time></trkpt>
<trkpt lat="48.458098" lon="2.667455"><ele></ele><time>2024-6-8T7:14:27Z</time></trkpt>
<trkpt lat="48.458181" lon="2.667294"><ele></ele><time>2024-6-8T7:14:30Z</time></trkpt>
<trkpt lat="48.458246" lon="2.667122"><ele></ele><time>2024-6-8T7:14:33Z</time></trkpt>
<trkpt lat="48.458299" lon="2.666967"><ele></ele><time>2024-6-8T7:14:36Z</time></trkpt>
<trkpt lat="48.458348" lon="2.666799"><ele></ele><time>2024-6-8T7:14:39Z</time></trkpt>
<trkpt lat="48.458378" lon="2.66666"><ele></ele><time>2024-6-8T7:14:42Z</time></trkpt>
<trkpt lat="48.4584" lon="2.666488"><ele></ele><time>2024-6-8T7:14:45Z</time></trkpt>
<trkpt lat="48.458448" lon="2.666331"><ele></ele><time>2024-6-8T7:14:48Z</time></trkpt>
<trkpt lat="48.458511" lon="2.666197"><ele></ele><time>2024-6-8T7:14:51Z</time></trkpt>
<trkpt lat="48.45856" lon="2.666072"><ele></ele><time>2024-6-8T7:14:54Z</time></trkpt>
<trkpt lat="48.45862" lon="2.665909"><ele></ele><time>2024-6-8T7:14:57Z</time></trkpt>
<trkpt lat="48.458681" lon="2.665757"><ele></ele><time>2024-6-8T7:15:0Z</time></trkpt>
<trkpt lat="48.458743" lon="2.665609"><ele></ele><time>2024-6-8T7:15:3Z</time></trkpt>
<trkpt lat="48.458786" lon="2.665458"><ele></ele><time>2024-6-8T7:15:6Z</time></trkpt>
<trkpt lat="48.458839" lon="2.66529"><ele></ele><time>2024-6-8T7:15:9Z</time></trkpt>
<trkpt lat="48.458864" lon="2.665122"><ele></ele><time>2024-6-8T7:15:12Z</time></trkpt>
<trkpt lat="48.458913" lon="2.664947"><ele></ele><time>2024-6-8T7:15:15Z</time></trkpt>
<trkpt lat="48.458972" lon="2.664796"><ele></ele><time>2024-6-8T7:15:18Z</time></trkpt>
<trkpt lat="48.459025" lon="2.664612"><ele></ele><time>2024-6-8T7:15:21Z</time></trkpt>
<trkpt lat="48.459088" lon="2.664412"><ele></ele><time>2024-6-8T7:15:24Z</time></trkpt>
<trkpt lat="48.45915" lon="2.664236"><ele></ele><time>2024-6-8T7:15:27Z</time></trkpt>
<trkpt lat="48.459228" lon="2.664046"><ele></ele><time>2024-6-8T7:15:30Z</time></trkpt>
<trkpt lat="48.459294" lon="2.663855"><ele></ele><time>2024-6-8T7:15:33Z</time></trkpt>
<trkpt lat="48.459348" lon="2.663678"><ele></ele><time>2024-6-8T7:15:36Z</time></trkpt>
<trkpt lat="48.459391" lon="2.663534"><ele></ele><time>2024-6-8T7:15:39Z</time></trkpt>
<trkpt lat="48.459441" lon="2.663363"><ele></ele><time>2024-6-8T7:15:42Z</time></trkpt>
<trkpt lat="48.459503" lon="2.663165"><ele></ele><time>2024-6-8T7:15:45Z</time></trkpt>
<trkpt lat="48.459544" lon="2.662981"><ele></ele><time>2024-6-8T7:15:48Z</time></trkpt>
<trkpt lat="48.459597" lon="2.662812"><ele></ele><time>2024-6-8T7:15:51Z</time></trkpt>
<trkpt lat="48.459644" lon="2.662675"><ele></ele><time>2024-6-8T7:15:54Z</time></trkpt>
<trkpt lat="48.45966" lon="2.662508"><ele></ele><time>2024-6-8T7:15:57Z</time></trkpt>
<trkpt lat="48.459657" lon="2.662358"><ele></ele><time>2024-6-8T7:16:0Z</time></trkpt>
<trkpt lat="48.45964" lon="2.6622"><ele></ele><time>2024-6-8T7:16:3Z</time></trkpt>
<trkpt lat="48.459643" lon="2.662044"><ele></ele><time>2024-6-8T7:16:6Z</time></trkpt>
<trkpt lat="48.459671" lon="2.661844"><ele></ele><time>2024-6-8T7:16:9Z</time></trkpt>
<trkpt lat="48.459708" lon="2.661663"><ele></ele><time>2024-6-8T7:16:12Z</time></trkpt>
<trkpt lat="48.459747" lon="2.661494"><ele></ele><time>2024-6-8T7:16:15Z</time></trkpt>
<trkpt lat="48.459861" lon="2.661468"><ele></ele><time>2024-6-8T7:16:18Z</time></trkpt>
<trkpt lat="48.459969" lon="2.661487"><ele></ele><time>2024-6-8T7:16:21Z</time></trkpt>
<trkpt lat="48.460071" lon="2.661413"><ele></ele><time>2024-6-8T7:16:24Z</time></trkpt>
<trkpt lat="48.460166" lon="2.661362"><ele></ele><time>2024-6-8T7:16:27Z</time></trkpt>
<trkpt lat="48.460275" lon="2.661295"><ele></ele><time>2024-6-8T7:16:30Z</time></trkpt>
<trkpt lat="48.460394" lon="2.661252"><ele></ele><time>2024-6-8T7:16:33Z</time></trkpt>
<trkpt lat="48.460484" lon="2.661174"><ele></ele><time>2024-6-8T7:16:36Z</time></trkpt>
<trkpt lat="48.460546" lon="2.661045"><ele></ele><time>2024-6-8T7:16:39Z</time></trkpt>
<trkpt lat="48.460634" lon="2.660918"><ele></ele><time>2024-6-8T7:16:42Z</time></trkpt>
<trkpt lat="48.4607" lon="2.660821"><ele></ele><time>2024-6-8T7:16:45Z</time></trkpt>
<trkpt lat="48.460763" lon="2.66068"><ele></ele><time>2024-6-8T7:16:48Z</time></trkpt>
<trkpt lat="48.460839" lon="2.660581"><ele></ele><time>2024-6-8T7:16:51Z</time></trkpt>
<trkpt lat="48.460931" lon="2.660561"><ele></ele><time>2024-6-8T7:16:54Z</time></trkpt>
<trkpt lat="48.461025" lon="2.660529"><ele></ele><time>2024-6-8T7:16:57Z</time></trkpt>
<trkpt lat="48.461122" lon="2.660484"><ele></ele><time>2024-6-8T7:17:0Z</time></trkpt>
<trkpt lat="48.461231" lon="2.660462"><ele></ele><time>2024-6-8T7:17:3Z</time></trkpt>
<trkpt lat="48.461351" lon="2.660469"><ele></ele><time>2024-6-8T7:17:6Z</time></trkpt>
<trkpt lat="48.461465" lon="2.660518"><ele></ele><time>2024-6-8T7:17:9Z</time></trkpt>
<trkpt lat="48.461594" lon="2.660534"><ele></ele><time>2024-6-8T7:17:12Z</time></trkpt>
<trkpt lat="48.461721" lon="2.660537"><ele></ele><time>2024-6-8T7:17:15Z</time></trkpt>
<trkpt lat="48.461816" lon="2.660526"><ele></ele><time>2024-6-8T7:17:18Z</time></trkpt>
<trkpt lat="48.461911" lon="2.660457"><ele></ele><time>2024-6-8T7:17:21Z</time></trkpt>
<trkpt lat="48.46202" lon="2.660385"><ele></ele><time>2024-6-8T7:17:24Z</time></trkpt>
<trkpt lat="48.462112" lon="2.66039"><ele></ele><time>2024-6-8T7:17:27Z</time></trkpt>
<trkpt lat="48.462235" lon="2.660362"><ele></ele><time>2024-6-8T7:17:30Z</time></trkpt>
<trkpt lat="48.462343" lon="2.660299"><ele></ele><time>2024-6-8T7:17:33Z</time></trkpt>
<trkpt lat="48.46244" lon="2.660187"><ele></ele><time>2024-6-8T7:17:36Z</time></trkpt>
<trkpt lat="48.462556" lon="2.660104"><ele></ele><time>2024-6-8T7:17:39Z</time></trkpt>
<trkpt lat="48.462656" lon="2.660025"><ele></ele><time>2024-6-8T7:17:42Z</time></trkpt>
<trkpt lat="48.462771" lon="2.659936"><ele></ele><time>2024-6-8T7:17:45Z</time></trkpt>
<trkpt lat="48.462895" lon="2.659811"><ele></ele><time>2024-6-8T7:17:48Z</time></trkpt>
<trkpt lat="48.462978" lon="2.659735"><ele></ele><time>2024-6-8T7:17:51Z</time></trkpt>
<trkpt lat="48.463084" lon="2.659655"><ele></ele><time>2024-6-8T7:17:54Z</time></trkpt>
<trkpt lat="48.463177" lon="2.659562"><ele></ele><time>2024-6-8T7:17:57Z</time></trkpt>
<trkpt lat="48.463268" lon="2.65949"><ele></ele><time>2024-6-8T7:18:0Z</time></trkpt>
<trkpt lat="48.463362" lon="2.659429"><ele></ele><time>2024-6-8T7:18:3Z</time></trkpt>
<trkpt lat="48.463451" lon="2.659355"><ele></ele><time>2024-6-8T7:18:6Z</time></trkpt>
<trkpt lat="48.463549" lon="2.659259"><ele></ele><time>2024-6-8T7:18:9Z</time></trkpt>
<trkpt lat="48.463661" lon="2.659204"><ele></ele><time>2024-6-8T7:18:12Z</time></trkpt>
<trkpt lat="48.463754" lon="2.659125"><ele></ele><time>2024-6-8T7:18:15Z</time></trkpt>
<trkpt lat="48.463849" lon="2.659043"><ele></ele><time>2024-6-8T7:18:18Z</time></trkpt>
<trkpt lat="48.463941" lon="2.658947"><ele></ele><time>2024-6-8T7:18:21Z</time></trkpt>
<trkpt lat="48.464026" lon="2.658868"><ele></ele><time>2024-6-8T7:18:24Z</time></trkpt>
<trkpt lat="48.464132" lon="2.658803"><ele></ele><time>2024-6-8T7:18:27Z</time></trkpt>
<trkpt lat="48.464219" lon="2.658723"><ele></ele><time>2024-6-8T7:18:30Z</time></trkpt>
<trkpt lat="48.464305" lon="2.658644"><ele></ele><time>2024-6-8T7:18:33Z</time></trkpt>
<trkpt lat="48.464394" lon="2.658575"><ele></ele><time>2024-6-8T7:18:36Z</time></trkpt>
<trkpt lat="48.46448" lon="2.658517"><ele></ele><time>2024-6-8T7:18:39Z</time></trkpt>
<trkpt lat="48.464586" lon="2.658489"><ele></ele><time>2024-6-8T7:18:42Z</time></trkpt>
<trkpt lat="48.464694" lon="2.658508"><ele></ele><time>2024-6-8T7:18:45Z</time></trkpt>
<trkpt lat="48.46483" lon="2.658551"><ele></ele><time>2024-6-8T7:18:48Z</time></trkpt>
<trkpt lat="48.464928" lon="2.658554"><ele></ele><time>2024-6-8T7:18:51Z</time></trkpt>
<trkpt lat="48.465047" lon="2.658503"><ele></ele><time>2024-6-8T7:18:54Z</time></trkpt>
<trkpt lat="48.465176" lon="2.658458"><ele></ele><time>2024-6-8T7:18:57Z</time></trkpt>
<trkpt lat="48.465267" lon="2.658467"><ele></ele><time>2024-6-8T7:19:0Z</time></trkpt>
<trkpt lat="48.465368" lon="2.658437"><ele></ele><time>2024-6-8T7:19:3Z</time></trkpt>
<trkpt lat="48.465498" lon="2.658439"><ele></ele><time>2024-6-8T7:19:6Z</time></trkpt>
<trkpt lat="48.46558" lon="2.658497"><ele></ele><time>2024-6-8T7:19:9Z</time></trkpt>
<trkpt lat="48.46567" lon="2.658535"><ele></ele><time>2024-6-8T7:19:12Z</time></trkpt>
<trkpt lat="48.465764" lon="2.658509"><ele></ele><time>2024-6-8T7:19:15Z</time></trkpt>
<trkpt lat="48.465851" lon="2.658462"><ele></ele><time>2024-6-8T7:19:18Z</time></trkpt>
<trkpt lat="48.466004" lon="2.658369"><ele></ele><time>2024-6-8T7:19:21Z</time></trkpt>
<trkpt lat="48.466131" lon="2.658324"><ele></ele><time>2024-6-8T7:19:24Z</time></trkpt>
<trkpt lat="48.466239" lon="2.658316"><ele></ele><time>2024-6-8T7:19:27Z</time></trkpt>
<trkpt lat="48.466348" lon="2.658313"><ele></ele><time>2024-6-8T7:19:30Z</time></trkpt>
<trkpt lat="48.466463" lon="2.658324"><ele></ele><time>2024-6-8T7:19:33Z</time></trkpt>
<trkpt lat="48.466573" lon="2.658353"><ele></ele><time>2024-6-8T7:19:36Z</time></trkpt>
<trkpt lat="48.46668" lon="2.658397"><ele></ele><time>2024-6-8T7:19:39Z</time></trkpt>
<trkpt lat="48.466798" lon="2.658477"><ele></ele><time>2024-6-8T7:19:42Z</time></trkpt>
<trkpt lat="48.466907" lon="2.658472"><ele></ele><time>2024-6-8T7:19:45Z</time></trkpt>
<trkpt lat="48.466997" lon="2.658477"><ele></ele><time>2024-6-8T7:19:48Z</time></trkpt>
<trkpt lat="48.467109" lon="2.658487"><ele></ele><time>2024-6-8T7:19:51Z</time></trkpt>
<trkpt lat="48.467213" lon="2.658529"><ele></ele><time>2024-6-8T7:19:54Z</time></trkpt>
<trkpt lat="48.467341" lon="2.658537"><ele></ele><time>2024-6-8T7:19:57Z</time></trkpt>
<trkpt lat="48.467431" lon="2.658556"><ele></ele><time>2024-6-8T7:20:0Z</time></trkpt>
<trkpt lat="48.467542" lon="2.658572"><ele></ele><time>2024-6-8T7:20:3Z</time></trkpt>
<trkpt lat="48.467658" lon="2.658585"><ele></ele><time>2024-6-8T7:20:6Z</time></trkpt>
<trkpt lat="48.467792" lon="2.658598"><ele></ele><time>2024-6-8T7:20:9Z</time></trkpt>
<trkpt lat="48.467915" lon="2.658587"><ele></ele><time>2024-6-8T7:20:12Z</time></trkpt>
<trkpt lat="48.468011" lon="2.65855"><ele></ele><time>2024-6-8T7:20:15Z</time></trkpt>
<trkpt lat="48.468114" lon="2.658552"><ele></ele><time>2024-6-8T7:20:18Z</time></trkpt>
<trkpt lat="48.46821" lon="2.658557"><ele></ele><time>2024-6-8T7:20:21Z</time></trkpt>
<trkpt lat="48.468311" lon="2.658578"><ele></ele><time>2024-6-8T7:20:24Z</time></trkpt>
<trkpt lat="48.468428" lon="2.658597"><ele></ele><time>2024-6-8T7:20:27Z</time></trkpt>
<trkpt lat="48.468521" lon="2.658628"><ele></ele><time>2024-6-8T7:20:30Z</time></trkpt>
<trkpt lat="48.468646" lon="2.65865"><ele></ele><time>2024-6-8T7:20:33Z</time></trkpt>
<trkpt lat="48.468766" lon="2.658647"><ele></ele><time>2024-6-8T7:20:36Z</time></trkpt>
<trkpt lat="48.468859" lon="2.658647"><ele></ele><time>2024-6-8T7:20:39Z</time></trkpt>
<trkpt lat="48.468988" lon="2.658651"><ele></ele><time>2024-6-8T7:20:42Z</time></trkpt>
<trkpt lat="48.469079" lon="2.658652"><ele></ele><time>2024-6-8T7:20:45Z</time></trkpt>
<trkpt lat="48.469199" lon="2.658662"><ele></ele><time>2024-6-8T7:20:48Z</time></trkpt>
<trkpt lat="48.469312" lon="2.658674"><ele></ele><time>2024-6-8T7:20:51Z</time></trkpt>
<trkpt lat="48.469425" lon="2.658687"><ele></ele><time>2024-6-8T7:20:54Z</time></trkpt>
<trkpt lat="48.46953" lon="2.658706"><ele></ele><time>2024-6-8T7:20:57Z</time></trkpt>
<trkpt lat="48.469626" lon="2.658705"><ele></ele><time>2024-6-8T7:21:0Z</time></trkpt>
<trkpt lat="48.469724" lon="2.658718"><ele></ele><time>2024-6-8T7:21:3Z</time></trkpt>
<trkpt lat="48.469829" lon="2.658754"><ele></ele><time>2024-6-8T7:21:6Z</time></trkpt>
<trkpt lat="48.469925" lon="2.65877"><ele></ele><time>2024-6-8T7:21:9Z</time></trkpt>
<trkpt lat="48.470043" lon="2.658772"><ele></ele><time>2024-6-8T7:21:12Z</time></trkpt>
<trkpt lat="48.470166" lon="2.658802"><ele></ele><time>2024-6-8T7:21:15Z</time></trkpt>
<trkpt lat="48.470273" lon="2.658834"><ele></ele><time>2024-6-8T7:21:18Z</time></trkpt>
<trkpt lat="48.470392" lon="2.658848"><ele></ele><time>2024-6-8T7:21:21Z</time></trkpt>
<trkpt lat="48.470503" lon="2.658847"><ele></ele><time>2024-6-8T7:21:24Z</time></trkpt>
<trkpt lat="48.470599" lon="2.658838"><ele></ele><time>2024-6-8T7:21:27Z</time></trkpt>
<trkpt lat="48.470725" lon="2.658839"><ele></ele><time>2024-6-8T7:21:30Z</time></trkpt>
<trkpt lat="48.470858" lon="2.658875"><ele></ele><time>2024-6-8T7:21:33Z</time></trkpt>
<trkpt lat="48.470978" lon="2.65889"><ele></ele><time>2024-6-8T7:21:36Z</time></trkpt>
<trkpt lat="48.471096" lon="2.658867"><ele></ele><time>2024-6-8T7:21:39Z</time></trkpt>
<trkpt lat="48.471194" lon="2.658814"><ele></ele><time>2024-6-8T7:21:42Z</time></trkpt>
<trkpt lat="48.47131" lon="2.658756"><ele></ele><time>2024-6-8T7:21:45Z</time></trkpt>
<trkpt lat="48.471424" lon="2.658691"><ele></ele><time>2024-6-8T7:21:48Z</time></trkpt>
<trkpt lat="48.471517" lon="2.658578"><ele></ele><time>2024-6-8T7:21:51Z</time></trkpt>
<trkpt lat="48.471612" lon="2.658439"><ele></ele><time>2024-6-8T7:21:54Z</time></trkpt>
<trkpt lat="48.47172" lon="2.658336"><ele></ele><time>2024-6-8T7:21:57Z</time></trkpt>
<trkpt lat="48.4718" lon="2.658272"><ele></ele><time>2024-6-8T7:22:0Z</time></trkpt>
<trkpt lat="48.4719" lon="2.658168"><ele></ele><time>2024-6-8T7:22:3Z</time></trkpt>
<trkpt lat="48.471987" lon="2.65809"><ele></ele><time>2024-6-8T7:22:6Z</time></trkpt>
<trkpt lat="48.472095" lon="2.658006"><ele></ele><time>2024-6-8T7:22:9Z</time></trkpt>
<trkpt lat="48.472178" lon="2.657936"><ele></ele><time>2024-6-8T7:22:12Z</time></trkpt>
<trkpt lat="48.472263" lon="2.657865"><ele></ele><time>2024-6-8T7:22:15Z</time></trkpt>
<trkpt lat="48.472351" lon="2.657804"><ele></ele><time>2024-6-8T7:22:18Z</time></trkpt>
<trkpt lat="48.472433" lon="2.657747"><ele></ele><time>2024-6-8T7:22:21Z</time></trkpt>
<trkpt lat="48.472525" lon="2.657664"><ele></ele><time>2024-6-8T7:22:24Z</time></trkpt>
<trkpt lat="48.472623" lon="2.657571"><ele></ele><time>2024-6-8T7:22:27Z</time></trkpt>
<trkpt lat="48.472713" lon="2.657513"><ele></ele><time>2024-6-8T7:22:30Z</time></trkpt>
<trkpt lat="48.47283" lon="2.657433"><ele></ele><time>2024-6-8T7:22:33Z</time></trkpt>
<trkpt lat="48.472938" lon="2.657339"><ele></ele><time>2024-6-8T7:22:36Z</time></trkpt>
<trkpt lat="48.473042" lon="2.657242"><ele></ele><time>2024-6-8T7:22:39Z</time></trkpt>
<trkpt lat="48.473154" lon="2.657151"><ele></ele><time>2024-6-8T7:22:42Z</time></trkpt>
<trkpt lat="48.473271" lon="2.657065"><ele></ele><time>2024-6-8T7:22:45Z</time></trkpt>
<trkpt lat="48.473376" lon="2.656979"><ele></ele><time>2024-6-8T7:22:48Z</time></trkpt>
<trkpt lat="48.473468" lon="2.656899"><ele></ele><time>2024-6-8T7:22:51Z</time></trkpt>
<trkpt lat="48.473552" lon="2.656828"><ele></ele><time>2024-6-8T7:22:54Z</time></trkpt>
<trkpt lat="48.473657" lon="2.656782"><ele></ele><time>2024-6-8T7:22:57Z</time></trkpt>
<trkpt lat="48.473751" lon="2.656731"><ele></ele><time>2024-6-8T7:23:0Z</time></trkpt>
<trkpt lat="48.473838" lon="2.65665"><ele></ele><time>2024-6-8T7:23:3Z</time></trkpt>
<trkpt lat="48.473921" lon="2.656564"><ele></ele><time>2024-6-8T7:23:6Z</time></trkpt>
<trkpt lat="48.474023" lon="2.656463"><ele></ele><time>2024-6-8T7:23:9Z</time></trkpt>
<trkpt lat="48.474131" lon="2.656363"><ele></ele><time>2024-6-8T7:23:12Z</time></trkpt>
<trkpt lat="48.47421" lon="2.656297"><ele></ele><time>2024-6-8T7:23:15Z</time></trkpt>
<trkpt lat="48.474287" lon="2.656227"><ele></ele><time>2024-6-8T7:23:18Z</time></trkpt>
<trkpt lat="48.474381" lon="2.65613"><ele></ele><time>2024-6-8T7:23:21Z</time></trkpt>
<trkpt lat="48.474461" lon="2.656066"><ele></ele><time>2024-6-8T7:23:24Z</time></trkpt>
<trkpt lat="48.474567" lon="2.655964"><ele></ele><time>2024-6-8T7:23:27Z</time></trkpt>
<trkpt lat="48.474666" lon="2.655885"><ele></ele><time>2024-6-8T7:23:30Z</time></trkpt>
<trkpt lat="48.47478" lon="2.65579"><ele></ele><time>2024-6-8T7:23:33Z</time></trkpt>
<trkpt lat="48.474874" lon="2.655741"><ele></ele><time>2024-6-8T7:23:36Z</time></trkpt>
<trkpt lat="48.474976" lon="2.655655"><ele></ele><time>2024-6-8T7:23:39Z</time></trkpt>
<trkpt lat="48.475059" lon="2.655582"><ele></ele><time>2024-6-8T7:23:42Z</time></trkpt>
<trkpt lat="48.475176" lon="2.655492"><ele></ele><time>2024-6-8T7:23:45Z</time></trkpt>
<trkpt lat="48.475283" lon="2.65538"><ele></ele><time>2024-6-8T7:23:48Z</time></trkpt>
<trkpt lat="48.475394" lon="2.65528"><ele></ele><time>2024-6-8T7:23:51Z</time></trkpt>
<trkpt lat="48.475481" lon="2.655199"><ele></ele><time>2024-6-8T7:23:54Z</time></trkpt>
<trkpt lat="48.475588" lon="2.655099"><ele></ele><time>2024-6-8T7:23:57Z</time></trkpt>
<trkpt lat="48.475683" lon="2.65503"><ele></ele><time>2024-6-8T7:24:0Z</time></trkpt>
<trkpt lat="48.475756" lon="2.654948"><ele></ele><time>2024-6-8T7:24:3Z</time></trkpt>
<trkpt lat="48.475873" lon="2.654837"><ele></ele><time>2024-6-8T7:24:6Z</time></trkpt>
<trkpt lat="48.475969" lon="2.654761"><ele></ele><time>2024-6-8T7:24:9Z</time></trkpt>
<trkpt lat="48.476059" lon="2.654664"><ele></ele><time>2024-6-8T7:24:12Z</time></trkpt>
<trkpt lat="48.47614" lon="2.654591"><ele></ele><time>2024-6-8T7:24:15Z</time></trkpt>
<trkpt lat="48.476226" lon="2.654536"><ele></ele><time>2024-6-8T7:24:18Z</time></trkpt>
<trkpt lat="48.476318" lon="2.654459"><ele></ele><time>2024-6-8T7:24:21Z</time></trkpt>
<trkpt lat="48.476398" lon="2.65439"><ele></ele><time>2024-6-8T7:24:24Z</time></trkpt>
<trkpt lat="48.476485" lon="2.654325"><ele></ele><time>2024-6-8T7:24:27Z</time></trkpt>
<trkpt lat="48.476599" lon="2.654236"><ele></ele><time>2024-6-8T7:24:30Z</time></trkpt>
<trkpt lat="48.476693" lon="2.654164"><ele></ele><time>2024-6-8T7:24:33Z</time></trkpt>
<trkpt lat="48.47681" lon="2.654081"><ele></ele><time>2024-6-8T7:24:36Z</time></trkpt>
<trkpt lat="48.47692" lon="2.653987"><ele></ele><time>2024-6-8T7:24:39Z</time></trkpt>
<trkpt lat="48.477043" lon="2.653894"><ele></ele><time>2024-6-8T7:24:42Z</time></trkpt>
<trkpt lat="48.477118" lon="2.653818"><ele></ele><time>2024-6-8T7:24:45Z</time></trkpt>
<trkpt lat="48.477203" lon="2.653758"><ele></ele><time>2024-6-8T7:24:48Z</time></trkpt>
<trkpt lat="48.477303" lon="2.653626"><ele></ele><time>2024-6-8T7:24:51Z</time></trkpt>
<trkpt lat="48.477413" lon="2.653551"><ele></ele><time>2024-6-8T7:24:54Z</time></trkpt>
<trkpt lat="48.477497" lon="2.65348"><ele></ele><time>2024-6-8T7:24:57Z</time></trkpt>
<trkpt lat="48.4776" lon="2.653362"><ele></ele><time>2024-6-8T7:25:0Z</time></trkpt>
<trkpt lat="48.477703" lon="2.653284"><ele></ele><time>2024-6-8T7:25:3Z</time></trkpt>
<trkpt lat="48.477804" lon="2.653181"><ele></ele><time>2024-6-8T7:25:6Z</time></trkpt>
<trkpt lat="48.477889" lon="2.65308"><ele></ele><time>2024-6-8T7:25:9Z</time></trkpt>
<trkpt lat="48.477979" lon="2.653018"><ele></ele><time>2024-6-8T7:25:12Z</time></trkpt>
<trkpt lat="48.478069" lon="2.652952"><ele></ele><time>2024-6-8T7:25:15Z</time></trkpt>
<trkpt lat="48.478161" lon="2.65288"><ele></ele><time>2024-6-8T7:25:18Z</time></trkpt>
<trkpt lat="48.478255" lon="2.652792"><ele></ele><time>2024-6-8T7:25:21Z</time></trkpt>
<trkpt lat="48.47837" lon="2.6527"><ele></ele><time>2024-6-8T7:25:24Z</time></trkpt>
<trkpt lat="48.478448" lon="2.652625"><ele></ele><time>2024-6-8T7:25:27Z</time></trkpt>
<trkpt lat="48.478529" lon="2.652538"><ele></ele><time>2024-6-8T7:25:30Z</time></trkpt>
<trkpt lat="48.478629" lon="2.652429"><ele></ele><time>2024-6-8T7:25:33Z</time></trkpt>
<trkpt lat="48.4787" lon="2.652337"><ele></ele><time>2024-6-8T7:25:36Z</time></trkpt>
<trkpt lat="48.47878" lon="2.652272"><ele></ele><time>2024-6-8T7:25:39Z</time></trkpt>
<trkpt lat="48.478868" lon="2.652207"><ele></ele><time>2024-6-8T7:25:42Z</time></trkpt>
<trkpt lat="48.47895" lon="2.652125"><ele></ele><time>2024-6-8T7:25:45Z</time></trkpt>
<trkpt lat="48.479039" lon="2.652067"><ele></ele><time>2024-6-8T7:25:48Z</time></trkpt>
<trkpt lat="48.479138" lon="2.652016"><ele></ele><time>2024-6-8T7:25:51Z</time></trkpt>
<trkpt lat="48.47923" lon="2.651997"><ele></ele><time>2024-6-8T7:25:54Z</time></trkpt>
<trkpt lat="48.479319" lon="2.651932"><ele></ele><time>2024-6-8T7:25:57Z</time></trkpt>
<trkpt lat="48.479407" lon="2.651836"><ele></ele><time>2024-6-8T7:26:0Z</time></trkpt>
<trkpt lat="48.4795" lon="2.651759"><ele></ele><time>2024-6-8T7:26:3Z</time></trkpt>
<trkpt lat="48.479589" lon="2.651651"><ele></ele><time>2024-6-8T7:26:6Z</time></trkpt>
<trkpt lat="48.479679" lon="2.651575"><ele></ele><time>2024-6-8T7:26:9Z</time></trkpt>
<trkpt lat="48.479771" lon="2.651493"><ele></ele><time>2024-6-8T7:26:12Z</time></trkpt>
<trkpt lat="48.479873" lon="2.651425"><ele></ele><time>2024-6-8T7:26:15Z</time></trkpt>
<trkpt lat="48.479967" lon="2.651341"><ele></ele><time>2024-6-8T7:26:18Z</time></trkpt>
<trkpt lat="48.480057" lon="2.651259"><ele></ele><time>2024-6-8T7:26:21Z</time></trkpt>
<trkpt lat="48.480132" lon="2.651171"><ele></ele><time>2024-6-8T7:26:24Z</time></trkpt>
<trkpt lat="48.480221" lon="2.651086"><ele></ele><time>2024-6-8T7:26:27Z</time></trkpt>
<trkpt lat="48.480315" lon="2.650997"><ele></ele><time>2024-6-8T7:26:30Z</time></trkpt>
<trkpt lat="48.480428" lon="2.650933"><ele></ele><time>2024-6-8T7:26:33Z</time></trkpt>
<trkpt lat="48.480516" lon="2.650868"><ele></ele><time>2024-6-8T7:26:36Z</time></trkpt>
<trkpt lat="48.480597" lon="2.650798"><ele></ele><time>2024-6-8T7:26:39Z</time></trkpt>
<trkpt lat="48.480674" lon="2.650716"><ele></ele><time>2024-6-8T7:26:42Z</time></trkpt>
<trkpt lat="48.480777" lon="2.650645"><ele></ele><time>2024-6-8T7:26:45Z</time></trkpt>
<trkpt lat="48.480875" lon="2.650573"><ele></ele><time>2024-6-8T7:26:48Z</time></trkpt>
<trkpt lat="48.480971" lon="2.650502"><ele></ele><time>2024-6-8T7:26:51Z</time></trkpt>
<trkpt lat="48.481073" lon="2.650424"><ele></ele><time>2024-6-8T7:26:54Z</time></trkpt>
<trkpt lat="48.481163" lon="2.650373"><ele></ele><time>2024-6-8T7:26:57Z</time></trkpt>
<trkpt lat="48.481248" lon="2.650299"><ele></ele><time>2024-6-8T7:27:0Z</time></trkpt>
<trkpt lat="48.481328" lon="2.650202"><ele></ele><time>2024-6-8T7:27:3Z</time></trkpt>
<trkpt lat="48.481437" lon="2.650143"><ele></ele><time>2024-6-8T7:27:6Z</time></trkpt>
<trkpt lat="48.481519" lon="2.65008"><ele></ele><time>2024-6-8T7:27:9Z</time></trkpt>
<trkpt lat="48.481616" lon="2.649963"><ele></ele><time>2024-6-8T7:27:12Z</time></trkpt>
<trkpt lat="48.481707" lon="2.649875"><ele></ele><time>2024-6-8T7:27:15Z</time></trkpt>
<trkpt lat="48.481805" lon="2.649777"><ele></ele><time>2024-6-8T7:27:18Z</time></trkpt>
<trkpt lat="48.48189" lon="2.649721"><ele></ele><time>2024-6-8T7:27:21Z</time></trkpt>
<trkpt lat="48.481989" lon="2.649651"><ele></ele><time>2024-6-8T7:27:24Z</time></trkpt>
<trkpt lat="48.482071" lon="2.64956"><ele></ele><time>2024-6-8T7:27:27Z</time></trkpt>
<trkpt lat="48.482155" lon="2.649486"><ele></ele><time>2024-6-8T7:27:30Z</time></trkpt>
<trkpt lat="48.482245" lon="2.649408"><ele></ele><time>2024-6-8T7:27:33Z</time></trkpt>
<trkpt lat="48.482329" lon="2.649322"><ele></ele><time>2024-6-8T7:27:36Z</time></trkpt>
<trkpt lat="48.482418" lon="2.649258"><ele></ele><time>2024-6-8T7:27:39Z</time></trkpt>
<trkpt lat="48.482514" lon="2.649214"><ele></ele><time>2024-6-8T7:27:42Z</time></trkpt>
<trkpt lat="48.482603" lon="2.649147"><ele></ele><time>2024-6-8T7:27:45Z</time></trkpt>
<trkpt lat="48.4827" lon="2.649057"><ele></ele><time>2024-6-8T7:27:48Z</time></trkpt>
<trkpt lat="48.482785" lon="2.648984"><ele></ele><time>2024-6-8T7:27:51Z</time></trkpt>
<trkpt lat="48.482873" lon="2.64888"><ele></ele><time>2024-6-8T7:27:54Z</time></trkpt>
<trkpt lat="48.482973" lon="2.648809"><ele></ele><time>2024-6-8T7:27:57Z</time></trkpt>
<trkpt lat="48.483073" lon="2.648704"><ele></ele><time>2024-6-8T7:28:0Z</time></trkpt>
<trkpt lat="48.483154" lon="2.648622"><ele></ele><time>2024-6-8T7:28:3Z</time></trkpt>
<trkpt lat="48.483256" lon="2.648548"><ele></ele><time>2024-6-8T7:28:6Z</time></trkpt>
<trkpt lat="48.483356" lon="2.64847"><ele></ele><time>2024-6-8T7:28:9Z</time></trkpt>
<trkpt lat="48.483444" lon="2.648406"><ele></ele><time>2024-6-8T7:28:12Z</time></trkpt>
<trkpt lat="48.483527" lon="2.648328"><ele></ele><time>2024-6-8T7:28:15Z</time></trkpt>
<trkpt lat="48.483616" lon="2.648244"><ele></ele><time>2024-6-8T7:28:18Z</time></trkpt>
<trkpt lat="48.483698" lon="2.648154"><ele></ele><time>2024-6-8T7:28:21Z</time></trkpt>
<trkpt lat="48.483786" lon="2.648074"><ele></ele><time>2024-6-8T7:28:24Z</time></trkpt>
<trkpt lat="48.483898" lon="2.647992"><ele></ele><time>2024-6-8T7:28:27Z</time></trkpt>
<trkpt lat="48.483987" lon="2.647944"><ele></ele><time>2024-6-8T7:28:30Z</time></trkpt>
<trkpt lat="48.484074" lon="2.647895"><ele></ele><time>2024-6-8T7:28:33Z</time></trkpt>
<trkpt lat="48.484172" lon="2.647811"><ele></ele><time>2024-6-8T7:28:36Z</time></trkpt>
<trkpt lat="48.484254" lon="2.647736"><ele></ele><time>2024-6-8T7:28:39Z</time></trkpt>
<trkpt lat="48.484336" lon="2.647653"><ele></ele><time>2024-6-8T7:28:42Z</time></trkpt>
<trkpt lat="48.484432" lon="2.647556"><ele></ele><time>2024-6-8T7:28:45Z</time></trkpt>
<trkpt lat="48.484531" lon="2.647459"><ele></ele><time>2024-6-8T7:28:48Z</time></trkpt>
<trkpt lat="48.484641" lon="2.647353"><ele></ele><time>2024-6-8T7:28:51Z</time></trkpt>
<trkpt lat="48.484728" lon="2.647291"><ele></ele><time>2024-6-8T7:28:54Z</time></trkpt>
<trkpt lat="48.484817" lon="2.64723"><ele></ele><time>2024-6-8T7:28:57Z</time></trkpt>
<trkpt lat="48.484928" lon="2.647133"><ele></ele><time>2024-6-8T7:29:0Z</time></trkpt>
<trkpt lat="48.485009" lon="2.647059"><ele></ele><time>2024-6-8T7:29:3Z</time></trkpt>
<trkpt lat="48.485092" lon="2.646988"><ele></ele><time>2024-6-8T7:29:6Z</time></trkpt>
<trkpt lat="48.48521" lon="2.646897"><ele></ele><time>2024-6-8T7:29:9Z</time></trkpt>
<trkpt lat="48.485311" lon="2.646808"><ele></ele><time>2024-6-8T7:29:12Z</time></trkpt>
<trkpt lat="48.4854" lon="2.646728"><ele></ele><time>2024-6-8T7:29:15Z</time></trkpt>
<trkpt lat="48.485504" lon="2.646627"><ele></ele><time>2024-6-8T7:29:18Z</time></trkpt>
<trkpt lat="48.485601" lon="2.646529"><ele></ele><time>2024-6-8T7:29:21Z</time></trkpt>
<trkpt lat="48.485719" lon="2.646428"><ele></ele><time>2024-6-8T7:29:24Z</time></trkpt>
<trkpt lat="48.485832" lon="2.646344"><ele></ele><time>2024-6-8T7:29:27Z</time></trkpt>
<trkpt lat="48.485948" lon="2.646287"><ele></ele><time>2024-6-8T7:29:30Z</time></trkpt>
<trkpt lat="48.486076" lon="2.646141"><ele></ele><time>2024-6-8T7:29:33Z</time></trkpt>
<trkpt lat="48.486179" lon="2.646033"><ele></ele><time>2024-6-8T7:29:36Z</time></trkpt>
<trkpt lat="48.486262" lon="2.645952"><ele></ele><time>2024-6-8T7:29:39Z</time></trkpt>
<trkpt lat="48.486357" lon="2.645874"><ele></ele><time>2024-6-8T7:29:42Z</time></trkpt>
<trkpt lat="48.486465" lon="2.645788"><ele></ele><time>2024-6-8T7:29:45Z</time></trkpt>
<trkpt lat="48.486595" lon="2.645718"><ele></ele><time>2024-6-8T7:29:48Z</time></trkpt>
<trkpt lat="48.486699" lon="2.645606"><ele></ele><time>2024-6-8T7:29:51Z</time></trkpt>
<trkpt lat="48.486796" lon="2.645497"><ele></ele><time>2024-6-8T7:29:54Z</time></trkpt>
<trkpt lat="48.486899" lon="2.645405"><ele></ele><time>2024-6-8T7:29:57Z</time></trkpt>
<trkpt lat="48.487015" lon="2.645319"><ele></ele><time>2024-6-8T7:30:0Z</time></trkpt>
<trkpt lat="48.4871" lon="2.645251"><ele></ele><time>2024-6-8T7:30:3Z</time></trkpt>
<trkpt lat="48.487183" lon="2.645176"><ele></ele><time>2024-6-8T7:30:6Z</time></trkpt>
<trkpt lat="48.487274" lon="2.645077"><ele></ele><time>2024-6-8T7:30:9Z</time></trkpt>
<trkpt lat="48.487371" lon="2.645007"><ele></ele><time>2024-6-8T7:30:12Z</time></trkpt>
<trkpt lat="48.487474" lon="2.644908"><ele></ele><time>2024-6-8T7:30:15Z</time></trkpt>
<trkpt lat="48.487555" lon="2.644807"><ele></ele><time>2024-6-8T7:30:18Z</time></trkpt>
<trkpt lat="48.487634" lon="2.644736"><ele></ele><time>2024-6-8T7:30:21Z</time></trkpt>
<trkpt lat="48.487729" lon="2.644654"><ele></ele><time>2024-6-8T7:30:24Z</time></trkpt>
<trkpt lat="48.487829" lon="2.644604"><ele></ele><time>2024-6-8T7:30:27Z</time></trkpt>
<trkpt lat="48.487925" lon="2.644526"><ele></ele><time>2024-6-8T7:30:30Z</time></trkpt>
<trkpt lat="48.488031" lon="2.644442"><ele></ele><time>2024-6-8T7:30:33Z</time></trkpt>
<trkpt lat="48.488149" lon="2.64436"><ele></ele><time>2024-6-8T7:30:36Z</time></trkpt>
<trkpt lat="48.48826" lon="2.644258"><ele></ele><time>2024-6-8T7:30:39Z</time></trkpt>
<trkpt lat="48.488339" lon="2.644168"><ele></ele><time>2024-6-8T7:30:42Z</time></trkpt>
<trkpt lat="48.488437" lon="2.644115"><ele></ele><time>2024-6-8T7:30:45Z</time></trkpt>
<trkpt lat="48.488528" lon="2.644049"><ele></ele><time>2024-6-8T7:30:48Z</time></trkpt>
<trkpt lat="48.488618" lon="2.643957"><ele></ele><time>2024-6-8T7:30:51Z</time></trkpt>
<trkpt lat="48.488714" lon="2.64391"><ele></ele><time>2024-6-8T7:30:54Z</time></trkpt>
<trkpt lat="48.488804" lon="2.643881"><ele></ele><time>2024-6-8T7:30:57Z</time></trkpt>
<trkpt lat="48.488934" lon="2.64384"><ele></ele><time>2024-6-8T7:31:0Z</time></trkpt>
<trkpt lat="48.489025" lon="2.643797"><ele></ele><time>2024-6-8T7:31:3Z</time></trkpt>
<trkpt lat="48.489146" lon="2.643742"><ele></ele><time>2024-6-8T7:31:6Z</time></trkpt>
<trkpt lat="48.489265" lon="2.6437"><ele></ele><time>2024-6-8T7:31:9Z</time></trkpt>
<trkpt lat="48.48936" lon="2.643678"><ele></ele><time>2024-6-8T7:31:12Z</time></trkpt>
<trkpt lat="48.489453" lon="2.643646"><ele></ele><time>2024-6-8T7:31:15Z</time></trkpt>
<trkpt lat="48.489564" lon="2.643584"><ele></ele><time>2024-6-8T7:31:18Z</time></trkpt>
<trkpt lat="48.489657" lon="2.643554"><ele></ele><time>2024-6-8T7:31:21Z</time></trkpt>
<trkpt lat="48.489752" lon="2.64349"><ele></ele><time>2024-6-8T7:31:24Z</time></trkpt>
<trkpt lat="48.489827" lon="2.643374"><ele></ele><time>2024-6-8T7:31:27Z</time></trkpt>
<trkpt lat="48.48989" lon="2.643258"><ele></ele><time>2024-6-8T7:31:30Z</time></trkpt>
<trkpt lat="48.489961" lon="2.643157"><ele></ele><time>2024-6-8T7:31:33Z</time></trkpt>
<trkpt lat="48.490046" lon="2.643045"><ele></ele><time>2024-6-8T7:31:36Z</time></trkpt>
<trkpt lat="48.49012" lon="2.642912"><ele></ele><time>2024-6-8T7:31:39Z</time></trkpt>
<trkpt lat="48.49021" lon="2.642776"><ele></ele><time>2024-6-8T7:31:42Z</time></trkpt>
<trkpt lat="48.490283" lon="2.642696"><ele></ele><time>2024-6-8T7:31:45Z</time></trkpt>
<trkpt lat="48.490368" lon="2.642626"><ele></ele><time>2024-6-8T7:31:48Z</time></trkpt>
<trkpt lat="48.490462" lon="2.642523"><ele></ele><time>2024-6-8T7:31:51Z</time></trkpt>
<trkpt lat="48.490551" lon="2.642406"><ele></ele><time>2024-6-8T7:31:54Z</time></trkpt>
<trkpt lat="48.490644" lon="2.642277"><ele></ele><time>2024-6-8T7:31:57Z</time></trkpt>
<trkpt lat="48.490751" lon="2.642176"><ele></ele><time>2024-6-8T7:32:0Z</time></trkpt>
<trkpt lat="48.49087" lon="2.642051"><ele></ele><time>2024-6-8T7:32:3Z</time></trkpt>
<trkpt lat="48.49096" lon="2.64193"><ele></ele><time>2024-6-8T7:32:6Z</time></trkpt>
<trkpt lat="48.49105" lon="2.641819"><ele></ele><time>2024-6-8T7:32:9Z</time></trkpt>
<trkpt lat="48.491142" lon="2.641702"><ele></ele><time>2024-6-8T7:32:12Z</time></trkpt>
<trkpt lat="48.491215" lon="2.6416"><ele></ele><time>2024-6-8T7:32:15Z</time></trkpt>
<trkpt lat="48.491304" lon="2.641527"><ele></ele><time>2024-6-8T7:32:18Z</time></trkpt>
<trkpt lat="48.491414" lon="2.641432"><ele></ele><time>2024-6-8T7:32:21Z</time></trkpt>
<trkpt lat="48.491511" lon="2.641334"><ele></ele><time>2024-6-8T7:32:24Z</time></trkpt>
<trkpt lat="48.491601" lon="2.641247"><ele></ele><time>2024-6-8T7:32:27Z</time></trkpt>
<trkpt lat="48.49167" lon="2.641158"><ele></ele><time>2024-6-8T7:32:30Z</time></trkpt>
<trkpt lat="48.491759" lon="2.641028"><ele></ele><time>2024-6-8T7:32:33Z</time></trkpt>
<trkpt lat="48.49184" lon="2.640898"><ele></ele><time>2024-6-8T7:32:36Z</time></trkpt>
<trkpt lat="48.491919" lon="2.640813"><ele></ele><time>2024-6-8T7:32:39Z</time></trkpt>
<trkpt lat="48.492012" lon="2.640733"><ele></ele><time>2024-6-8T7:32:42Z</time></trkpt>
<trkpt lat="48.492079" lon="2.640629"><ele></ele><time>2024-6-8T7:32:45Z</time></trkpt>
<trkpt lat="48.49215" lon="2.640483"><ele></ele><time>2024-6-8T7:32:48Z</time></trkpt>
<trkpt lat="48.492214" lon="2.640382"><ele></ele><time>2024-6-8T7:32:51Z</time></trkpt>
<trkpt lat="48.492276" lon="2.640272"><ele></ele><time>2024-6-8T7:32:54Z</time></trkpt>
<trkpt lat="48.492366" lon="2.64016"><ele></ele><time>2024-6-8T7:32:57Z</time></trkpt>
<trkpt lat="48.49245" lon="2.640071"><ele></ele><time>2024-6-8T7:33:0Z</time></trkpt>
<trkpt lat="48.492552" lon="2.639985"><ele></ele><time>2024-6-8T7:33:3Z</time></trkpt>
<trkpt lat="48.492647" lon="2.639878"><ele></ele><time>2024-6-8T7:33:6Z</time></trkpt>
<trkpt lat="48.492744" lon="2.639785"><ele></ele><time>2024-6-8T7:33:9Z</time></trkpt>
<trkpt lat="48.492848" lon="2.639682"><ele></ele><time>2024-6-8T7:33:12Z</time></trkpt>
<trkpt lat="48.492942" lon="2.639609"><ele></ele><time>2024-6-8T7:33:15Z</time></trkpt>
<trkpt lat="48.493031" lon="2.639554"><ele></ele><time>2024-6-8T7:33:18Z</time></trkpt>
<trkpt lat="48.493138" lon="2.639459"><ele></ele><time>2024-6-8T7:33:21Z</time></trkpt>
<trkpt lat="48.493227" lon="2.639358"><ele></ele><time>2024-6-8T7:33:24Z</time></trkpt>
<trkpt lat="48.493286" lon="2.639228"><ele></ele><time>2024-6-8T7:33:27Z</time></trkpt>
<trkpt lat="48.493355" lon="2.639098"><ele></ele><time>2024-6-8T7:33:30Z</time></trkpt>
<trkpt lat="48.49342" lon="2.639001"><ele></ele><time>2024-6-8T7:33:33Z</time></trkpt>
<trkpt lat="48.49349" lon="2.638894"><ele></ele><time>2024-6-8T7:33:36Z</time></trkpt>
<trkpt lat="48.493568" lon="2.63876"><ele></ele><time>2024-6-8T7:33:39Z</time></trkpt>
<trkpt lat="48.493661" lon="2.638632"><ele></ele><time>2024-6-8T7:33:42Z</time></trkpt>
<trkpt lat="48.493739" lon="2.638526"><ele></ele><time>2024-6-8T7:33:45Z</time></trkpt>
<trkpt lat="48.49382" lon="2.63842"><ele></ele><time>2024-6-8T7:33:48Z</time></trkpt>
<trkpt lat="48.493888" lon="2.638327"><ele></ele><time>2024-6-8T7:33:51Z</time></trkpt>
<trkpt lat="48.493966" lon="2.638224"><ele></ele><time>2024-6-8T7:33:54Z</time></trkpt>
<trkpt lat="48.494039" lon="2.638125"><ele></ele><time>2024-6-8T7:33:57Z</time></trkpt>
<trkpt lat="48.494116" lon="2.63803"><ele></ele><time>2024-6-8T7:34:0Z</time></trkpt>
<trkpt lat="48.494192" lon="2.63793"><ele></ele><time>2024-6-8T7:34:3Z</time></trkpt>
<trkpt lat="48.494259" lon="2.637817"><ele></ele><time>2024-6-8T7:34:6Z</time></trkpt>
<trkpt lat="48.494343" lon="2.637725"><ele></ele><time>2024-6-8T7:34:9Z</time></trkpt>
<trkpt lat="48.494424" lon="2.637617"><ele></ele><time>2024-6-8T7:34:12Z</time></trkpt>
<trkpt lat="48.494511" lon="2.637519"><ele></ele><time>2024-6-8T7:34:15Z</time></trkpt>
<trkpt lat="48.494588" lon="2.637426"><ele></ele><time>2024-6-8T7:34:18Z</time></trkpt>
<trkpt lat="48.494671" lon="2.63732"><ele></ele><time>2024-6-8T7:34:21Z</time></trkpt>
<trkpt lat="48.49476" lon="2.637203"><ele></ele><time>2024-6-8T7:34:24Z</time></trkpt>
<trkpt lat="48.494842" lon="2.637093"><ele></ele><time>2024-6-8T7:34:27Z</time></trkpt>
<trkpt lat="48.494931" lon="2.636992"><ele></ele><time>2024-6-8T7:34:30Z</time></trkpt>
<trkpt lat="48.495008" lon="2.636886"><ele></ele><time>2024-6-8T7:34:33Z</time></trkpt>
<trkpt lat="48.495089" lon="2.636788"><ele></ele><time>2024-6-8T7:34:36Z</time></trkpt>
<trkpt lat="48.495171" lon="2.636677"><ele></ele><time>2024-6-8T7:34:39Z</time></trkpt>
<trkpt lat="48.495273" lon="2.63656"><ele></ele><time>2024-6-8T7:34:42Z</time></trkpt>
<trkpt lat="48.495368" lon="2.63645"><ele></ele><time>2024-6-8T7:34:45Z</time></trkpt>
<trkpt lat="48.495451" lon="2.636328"><ele></ele><time>2024-6-8T7:34:48Z</time></trkpt>
<trkpt lat="48.49553" lon="2.636249"><ele></ele><time>2024-6-8T7:34:51Z</time></trkpt>
<trkpt lat="48.495618" lon="2.636121"><ele></ele><time>2024-6-8T7:34:54Z</time></trkpt>
<trkpt lat="48.495694" lon="2.636029"><ele></ele><time>2024-6-8T7:34:57Z</time></trkpt>
<trkpt lat="48.4958" lon="2.635903"><ele></ele><time>2024-6-8T7:35:0Z</time></trkpt>
<trkpt lat="48.495893" lon="2.635818"><ele></ele><time>2024-6-8T7:35:3Z</time></trkpt>
<trkpt lat="48.495986" lon="2.635709"><ele></ele><time>2024-6-8T7:35:6Z</time></trkpt>
<trkpt lat="48.496088" lon="2.635593"><ele></ele><time>2024-6-8T7:35:9Z</time></trkpt>
<trkpt lat="48.496167" lon="2.635495"><ele></ele><time>2024-6-8T7:35:12Z</time></trkpt>
<trkpt lat="48.496242" lon="2.635396"><ele></ele><time>2024-6-8T7:35:15Z</time></trkpt>
<trkpt lat="48.496317" lon="2.635287"><ele></ele><time>2024-6-8T7:35:18Z</time></trkpt>
<trkpt lat="48.496435" lon="2.635175"><ele></ele><time>2024-6-8T7:35:21Z</time></trkpt>
<trkpt lat="48.496514" lon="2.635059"><ele></ele><time>2024-6-8T7:35:24Z</time></trkpt>
<trkpt lat="48.496601" lon="2.634935"><ele></ele><time>2024-6-8T7:35:27Z</time></trkpt>
<trkpt lat="48.496672" lon="2.634848"><ele></ele><time>2024-6-8T7:35:30Z</time></trkpt>
<trkpt lat="48.49674" lon="2.634725"><ele></ele><time>2024-6-8T7:35:33Z</time></trkpt>
<trkpt lat="48.496786" lon="2.634748"><ele></ele><time>2024-6-8T7:35:36Z</time></trkpt>
<trkpt lat="48.496788" lon="2.634744"><ele></ele><time>2024-6-8T7:35:39Z</time></trkpt>
<trkpt lat="48.496789" lon="2.634741"><ele></ele><time>2024-6-8T7:35:42Z</time></trkpt>
<trkpt lat="48.49679" lon="2.63474"><ele></ele><time>2024-6-8T7:35:45Z</time></trkpt>
<trkpt lat="48.496791" lon="2.634739"><ele></ele><time>2024-6-8T7:35:48Z</time></trkpt>
<trkpt lat="48.496792" lon="2.634738"><ele></ele><time>2024-6-8T7:35:51Z</time></trkpt>
<trkpt lat="48.496802" lon="2.634726"><ele></ele><time>2024-6-8T7:35:54Z</time></trkpt>
<trkpt lat="48.496802" lon="2.634726"><ele></ele><time>2024-6-8T7:35:57Z</time></trkpt>
<trkpt lat="48.4968" lon="2.634715"><ele></ele><time>2024-6-8T7:36:0Z</time></trkpt>
<trkpt lat="48.496798" lon="2.634716"><ele></ele><time>2024-6-8T7:36:3Z</time></trkpt>
<trkpt lat="48.496795" lon="2.634731"><ele></ele><time>2024-6-8T7:36:6Z</time></trkpt>
</trkseg></trk></gpx>